[[{"header":{"parameterUnit":"m.s-1","parameterCategory":1,"la1":30.6,"la2":28.766,"lo1":-90.7593,"lo2":-88.6598,"dy":0.0162,"dx":0.0183,"nx":116,"ny":114,"refTime":"2024-02-17T18:00:00:Z","depth":0,"parameterNumber":2,"parameterNumberName":"U-component_of_WINDS"},"data":[0.0,0.0,0.0,0.0,0.0,0.0,0.0,0.0,0.0,0.0,0.0,0.0,0.0,0.0,0.0,0.0,0.0,0.0,0.0,0.0,0.0,0.0,0.0,0.0,0.0,0.0,0.0,0.0,0.0,0.0,0.0,0.0,0.0,0.0,0.0,0.0,0.0,0.0,0.0,0.0,0.0,0.0,0.0,0.0,0.0,0.0,0.0,0.0,0.0,0.0,0.0,0.0,0.0,0.0,0.0,0.0,0.0,0.0,0.0,0.0,0.0,0.0,0.0,0.0,0.0,0.0,0.0,0.0,0.0,0.0,0.0,0.0,0.0,0.0,0.0,0.0,0.0,0.0,0.0,0.0,0.0,0.0,0.0,0.0,0.0,0.0,0.0,0.0,0.0,0.0,0.0,0.0,0.0,0.0,0.0,0.0,0.0,0.0,0.0,0.0,0.0,0.0,0.0,0.0,0.0,0.0,0.0,0.0,0.0,0.0,0.0,0.0,0.0,0.0,0.0,0.0,0.0,0.0,0.0,0.0,0.0,0.0,0.0,0.0,0.0,0.0,0.0,0.0,0.0,0.0,0.0,0.0,0.0,0.0,0.0,0.0,0.0,0.0,0.0,0.0,0.0,0.0,0.0,0.0,0.0,0.0,0.0,0.0,0.0,0.0,0.0,0.0,0.0,0.0,0.0,0.0,0.0,0.0,0.0,0.0,0.0,0.0,0.0,0.0,0.0,0.0,0.0,0.0,0.0,0.0,0.0,0.0,0.0,0.0,0.0,0.0,0.0,0.0,0.0,0.0,0.0,0.0,0.0,0.0,0.0,0.0,0.0,0.0,0.0,0.0,0.0,0.0,0.0,0.0,0.0,0.0,0.0,0.0,0.0,0.0,0.0,0.0,0.0,0.0,0.0,0.0,0.0,0.0,0.0,0.0,0.0,0.0,0.0,0.0,0.0,0.0,0.0,0.0,0.0,0.0,0.0,0.0,0.0,0.0,0.0,0.0,0.0,0.0,0.0,0.0,0.0,0.0,0.0,0.0,0.0,0.0,0.0,0.0,0.0,0.0,0.0,0.0,0.0,0.0,0.0,0.0,0.0,0.0,0.0,0.0,0.0,0.0,0.0,0.0,0.0,0.0,0.0,0.0,0.0,0.0,0.0,0.0,0.0,0.0,0.0,0.0,0.0,0.0,0.0,0.0,0.0,0.0,0.0,0.0,0.0,0.0,0.0,0.0,0.0,0.0,0.0,0.0,0.0,0.0,0.0,0.0,0.0,0.0,0.0,0.0,0.0,0.0,0.0,0.0,0.0,0.0,0.0,0.0,0.0,0.0,0.0,0.0,0.0,0.0,0.0,0.0,0.0,0.0,0.0,0.0,0.0,0.0,0.0,0.0,0.0,0.0,0.0,0.0,0.0,0.0,0.0,0.0,0.0,0.0,0.0,0.0,0.0,0.0,0.0,0.0,0.0,0.0,0.0,0.0,0.0,0.0,0.0,0.0,0.0,0.0,0.0,0.0,0.0,0.0,0.0,0.0,0.0,0.0,0.0,0.0,0.0,0.0,0.0,0.0,0.0,0.0,0.0,0.0,0.0,0.0,0.0,0.0,0.0,0.0,0.0,0.0,0.0,0.0,0.0,0.0,0.0,0.0,0.0,0.0,0.0,0.0,0.0,0.0,0.0,0.0,0.0,0.0,0.0,0.0,0.0,0.0,0.0,0.0,0.0,0.0,0.0,0.0,0.0,0.0,0.0,0.0,0.0,0.0,0.0,0.0,0.0,0.0,0.0,0.0,0.0,0.0,0.0,0.0,0.0,0.0,0.0,0.0,0.0,0.0,0.0,0.0,0.0,0.0,0.0,0.0,0.0,0.0,0.0,0.0,0.0,0.0,0.0,0.0,0.0,0.0,0.0,0.0,0.0,0.0,0.0,0.0,0.0,0.0,0.0,0.0,0.0,0.0,0.0,0.0,0.0,0.0,0.0,0.0,0.0,0.0,0.0,0.0,0.0,0.0,0.0,0.0,0.0,0.0,0.0,0.0,0.0,0.0,0.0,0.0,0.0,0.0,0.0,0.0,0.0,0.0,0.0,0.0,0.0,0.0,0.0,0.0,0.0,0.0,0.0,0.0,0.0,0.0,0.0,0.0,0.0,0.0,0.0,0.0,0.0,0.0,0.0,0.0,0.0,0.0,0.0,0.0,0.0,0.0,0.0,0.0,0.0,0.0,0.0,0.0,0.0,0.0,0.0,0.0,0.0,0.0,0.0,0.0,0.0,0.0,0.0,0.0,0.0,0.0,0.0,0.0,0.0,0.0,0.0,0.0,0.0,0.0,0.0,0.0,0.0,0.0,0.0,0.0,0.0,0.0,0.0,0.0,0.0,0.0,0.0,0.0,0.0,0.0,0.0,0.0,0.0,0.0,0.0,0.0,0.0,0.0,0.0,0.0,0.0,0.0,0.0,0.0,0.0,0.0,0.0,0.0,0.0,0.0,0.0,0.0,0.0,0.0,0.0,0.0,0.0,0.0,0.0,0.0,0.0,0.0,0.0,0.0,0.0,0.0,0.0,0.0,0.0,0.0,0.0,0.0,0.0,0.0,0.0,0.0,0.0,0.0,0.0,0.0,0.0,0.0,0.0,0.0,0.0,0.0,0.0,0.0,0.0,0.0,0.0,0.0,0.0,0.0,0.0,0.0,0.0,0.0,0.0,0.0,0.0,0.0,0.0,0.0,0.0,0.0,0.0,0.0,0.0,0.0,0.0,0.0,0.0,0.0,0.0,0.0,0.0,0.0,0.0,0.0,0.0,0.0,0.0,0.0,0.0,0.0,0.0,0.0,0.0,0.0,0.0,0.0,0.0,0.0,0.0,0.0,0.0,0.0,0.0,0.0,0.0,0.0,0.0,0.0,0.0,0.0,0.0,0.0,0.0,0.0,0.0,0.0,0.0,0.0,0.0,0.0,0.0,0.0,0.0,0.0,0.0,0.0,0.0,0.0,0.0,0.0,0.0,0.0,0.0,0.0,0.0,0.0,0.0,0.0,0.0,0.0,0.0,0.0,0.0,0.0,0.0,0.0,0.0,0.0,0.0,0.0,0.0,0.0,0.0,0.0,0.0,0.0,0.0,0.0,0.0,0.0,0.0,0.0,0.0,0.0,0.0,0.0,0.0,0.0,0.0,0.0,0.0,0.0,0.0,0.0,0.0,0.0,0.0,0.0,0.0,0.0,0.0,0.0,0.0,0.0,0.0,0.0,0.0,0.0,0.0,0.0,0.0,0.0,0.0,0.0,0.0,0.0,0.0,0.0,0.0,0.0,0.0,0.0,0.0,0.0,0.0,0.0,0.0,0.0,0.0,0.0,0.0,0.0,0.0,0.0,0.0,0.0,0.0,0.0,0.0,0.0,0.0,0.0,0.0,0.0,0.0,0.0,0.0,0.0,0.0,0.0,0.0,0.0,0.0,0.0,0.0,0.0,0.0,0.0,0.0,0.0,0.0,0.0,0.0,0.0,0.0,0.0,0.0,0.0,0.0,0.0,0.0,0.0,0.0,0.0,0.0,0.0,0.0,0.0,0.0,0.0,0.0,0.0,0.0,0.0,0.0,0.0,0.0,0.0,0.0,0.0,0.0,0.0,0.0,0.0,0.0,0.0,0.0,0.0,0.0,0.0,0.0,0.0,0.0,0.0,0.0,0.0,0.0,0.0,0.0,0.0,0.0,0.0,0.0,0.0,0.0,0.0,0.0,0.0,0.0,0.0,0.0,0.0,0.0,0.0,0.0,0.0,0.0,0.0,0.0,0.0,0.0,0.0,0.0,0.0,0.0,0.0,0.0,0.0,0.0,0.0,0.0,0.0,0.0,0.0,0.0,0.0,0.0,0.0,0.0,0.0,0.0,0.0,0.0,0.0,0.0,0.0,0.0,0.0,0.0,0.0,0.0,0.0,0.0,0.0,0.0,0.0,0.0,0.0,0.0,0.0,0.0,0.0,0.0,0.0,0.0,0.0,0.0,0.0,0.0,0.0,0.0,0.0,0.0,0.0,0.0,0.0,0.0,0.0,0.0,0.0,0.0,0.0,0.0,0.0,0.0,0.0,0.0,0.0,0.0,0.0,0.0,0.0,0.0,0.0,0.0,0.0,0.0,0.0,0.0,0.0,0.0,0.0,0.0,0.0,0.0,0.0,0.0,0.0,0.0,0.0,0.0,0.0,0.0,0.0,0.0,0.0,0.0,0.0,0.0,0.0,0.0,0.0,0.0,0.0,0.0,0.0,0.0,0.0,0.0,0.0,0.0,0.0,0.0,0.0,0.0,0.0,0.0,0.0,0.0,0.0,0.0,0.0,0.0,0.0,0.0,0.0,0.0,0.0,0.0,0.0,0.0,0.0,0.0,0.0,0.0,0.0,0.0,0.0,0.0,0.0,0.0,0.0,0.0,0.0,0.0,0.0,0.0,0.0,0.0,0.0,0.0,0.0,0.0,0.0,0.0,0.0,0.0,0.0,0.0,0.0,0.0,0.0,0.0,0.0,0.0,0.0,0.0,0.0,0.0,0.0,0.0,0.0,0.0,0.0,0.0,0.0,0.0,0.0,0.0,0.0,0.0,0.0,0.0,0.0,0.0,0.0,0.0,0.0,0.0,0.0,0.0,0.0,0.0,0.0,0.0,0.0,0.0,0.0,0.0,0.0,0.0,0.0,0.0,0.0,0.0,0.0,0.0,0.0,0.0,0.0,0.0,0.0,0.0,0.0,0.0,0.0,0.0,0.0,0.0,0.0,0.0,0.0,0.0,0.0,0.0,0.0,0.0,0.0,0.0,0.0,0.0,0.0,0.0,0.0,0.0,0.0,0.0,0.0,0.0,0.0,0.0,0.0,0.0,0.0,0.0,0.0,0.0,0.0,0.0,0.0,0.0,0.0,0.0,0.0,0.0,0.0,0.0,0.0,0.0,0.0,0.0,0.0,0.0,0.0,0.0,0.0,0.0,0.0,0.0,0.0,0.0,0.0,0.0,0.0,0.0,0.0,0.0,0.0,0.0,0.0,0.0,0.0,0.0,0.0,0.0,0.0,0.0,0.0,0.0,0.0,0.0,0.0,0.0,0.0,0.0,0.0,0.0,0.0,0.0,0.0,0.0,0.0,0.0,0.0,0.0,0.0,0.0,0.0,0.0,0.0,0.0,0.0,0.0,0.0,0.0,0.0,0.0,0.0,0.0,0.0,0.0,0.0,0.0,0.0,0.0,0.0,0.0,0.0,0.0,0.0,0.0,0.0,0.0,0.0,0.0,0.0,0.0,0.0,0.0,0.0,0.0,0.0,0.0,0.0,0.0,0.0,0.0,0.0,0.0,0.0,0.0,0.0,0.0,0.0,0.0,0.0,0.0,0.0,0.0,0.0,0.0,0.0,0.0,0.0,0.0,0.0,0.0,0.0,0.0,0.0,0.0,0.0,0.0,0.0,0.0,0.0,0.0,0.0,0.0,0.0,0.0,0.0,0.0,0.0,0.0,0.0,0.0,0.0,0.0,0.0,0.0,0.0,0.0,0.0,0.0,0.0,0.0,0.0,0.0,0.0,0.0,0.0,0.0,0.0,0.0,0.0,0.0,0.0,0.0,0.0,0.0,0.0,0.0,0.0,0.0,0.0,0.0,0.0,0.0,0.0,0.0,0.0,0.0,0.0,0.0,0.0,0.0,0.0,0.0,0.0,0.0,0.0,0.0,0.0,0.0,0.0,0.0,0.0,0.0,0.0,0.0,0.0,0.0,0.0,0.0,0.0,0.0,0.0,0.0,0.0,0.0,0.0,0.0,0.0,0.0,0.0,0.0,0.0,0.0,0.0,0.0,0.0,0.0,0.0,0.0,0.0,0.0,0.0,0.0,0.0,0.0,0.0,0.0,0.0,0.0,0.0,0.0,0.0,0.0,0.0,0.0,0.0,0.0,0.0,0.0,0.0,0.0,0.0,0.0,0.0,0.0,0.0,0.0,0.0,0.0,0.0,0.0,0.0,0.0,0.0,0.0,0.0,0.0,0.0,0.0,0.0,0.0,0.0,0.0,0.0,0.0,0.0,0.0,0.0,0.0,0.0,0.0,0.0,0.0,0.0,0.0,0.0,2.5265,2.2182,0.0,0.0,0.0,0.0,0.0,0.0,0.0,0.0,0.0,0.0,0.0,0.0,0.0,0.0,0.0,0.0,0.0,0.0,0.0,0.0,0.0,0.0,0.0,0.0,0.0,0.0,0.0,0.0,0.0,0.0,0.0,0.0,0.0,0.0,1.8569,1.9821,2.0724,2.1192,2.328,2.5827,2.872,2.8232,2.6239,2.3015,0.0,0.0,0.0,0.0,0.0,0.0,0.0,0.0,0.0,0.0,0.0,0.0,0.0,0.0,0.0,0.0,0.0,0.0,0.0,0.0,0.0,0.0,0.0,0.0,0.0,0.0,0.0,0.0,0.0,0.0,0.0,0.0,0.0,0.0,0.0,0.0,0.0,0.0,0.0,0.0,0.0,0.0,0.0,0.0,0.0,0.0,0.0,0.0,0.0,0.0,0.0,0.0,0.0,0.0,0.0,0.0,0.0,0.0,0.0,0.0,0.0,0.0,0.0,0.0,0.0,0.0,0.0,0.0,0.0,0.0,2.9692,2.7284,0.0,0.0,0.0,0.0,0.0,0.0,0.0,0.0,0.0,0.0,0.0,0.0,0.0,0.0,0.0,0.0,0.0,0.0,0.0,0.0,0.0,0.0,0.0,1.6214,1.6789,1.6927,1.7539,1.7936,1.8042,1.7936,1.7951,1.8129,1.812,1.8259,1.8569,1.9974,2.1071,2.1825,2.637,3.0526,3.4328,3.5195,3.2461,2.6867,2.6234,0.0,0.0,0.0,0.0,0.0,0.0,0.0,0.0,0.0,0.0,0.0,0.0,0.0,0.0,0.0,0.0,0.0,0.0,0.0,0.0,0.0,0.0,0.0,0.0,0.0,0.0,0.0,0.0,0.0,0.0,0.0,0.0,0.0,0.0,0.0,0.0,0.0,0.0,0.0,0.0,0.0,0.0,0.0,0.0,0.0,0.0,0.0,0.0,0.0,0.0,0.0,0.0,0.0,0.0,0.0,0.0,0.0,0.0,0.0,0.0,0.0,0.0,0.0,3.4646,3.5421,3.5666,3.7141,3.8177,3.8656,3.5105,3.3866,3.3976,2.9533,0.0,0.0,0.0,0.0,0.0,0.0,0.0,0.0,0.0,0.0,0.0,0.0,0.0,0.0,0.0,0.0,0.0,0.0,0.0,0.0,0.0,1.7086,1.7943,1.8672,1.8222,1.8237,1.8979,1.8314,1.8232,1.9018,1.904,1.9752,2.1234,2.1496,2.3462,2.7172,3.2303,3.5886,3.7929,3.881,3.833,3.6582,3.3553,0.0,0.0,0.0,0.0,0.0,0.0,0.0,0.0,0.0,0.0,0.0,0.0,0.0,0.0,0.0,0.0,0.0,0.0,0.0,0.0,0.0,0.0,0.0,0.0,0.0,0.0,0.0,0.0,0.0,0.0,0.0,0.0,0.0,0.0,0.0,0.0,0.0,0.0,0.0,0.0,0.0,0.0,0.0,2.5919,2.6766,0.0,0.0,0.0,0.0,0.0,0.0,0.0,0.0,0.0,0.0,0.0,0.0,0.0,3.1216,3.1429,3.5327,3.7747,3.8696,4.1857,4.3758,4.4504,4.4809,4.4991,4.5078,4.4521,0.0,3.7792,3.636,0.0,0.0,0.0,0.0,0.0,0.0,0.0,0.0,0.0,0.0,0.0,0.0,0.0,0.0,0.0,0.0,0.0,0.0,0.0,0.0,0.0,1.9542,2.1029,2.1956,2.348,2.3966,2.2863,2.2907,2.2479,2.1424,2.1347,2.171,2.2505,2.49,2.9207,3.5467,3.8233,4.0976,4.3671,4.4504,4.4723,4.4305,4.2756,3.8469,3.2303,2.957,0.0,0.0,0.0,0.0,0.0,0.0,0.0,0.0,0.0,0.0,0.0,0.0,0.0,0.0,0.0,0.0,0.0,0.0,0.0,0.0,0.0,0.0,0.0,0.0,0.0,0.0,0.0,0.0,0.0,0.0,0.0,0.0,0.0,0.0,0.0,0.0,0.0,0.0,0.0,2.3774,2.609,2.6511,2.5962,2.4825,0.0,0.0,0.0,0.0,0.0,0.0,0.0,0.0,0.0,3.3274,3.5155,3.66,3.7608,4.054,4.2439,4.3374,4.539,4.683,4.7673,4.7727,4.7773,4.7769,4.7705,4.6426,4.4064,4.0777,3.8326,3.6293,0.0,0.0,0.0,0.0,3.1678,3.1757,0.0,0.0,0.0,0.0,0.0,0.0,0.0,0.0,0.0,0.0,0.0,0.0,1.9918,2.2745,2.4937,2.5879,2.834,2.8905,2.6753,2.6797,2.5857,2.3513,2.3188,2.3275,2.3735,2.8824,3.4775,4.1429,4.3164,4.5582,4.8586,4.9415,4.9825,4.984,4.9801,4.5125,3.7136,3.3851,3.1743,0.0,0.0,0.0,0.0,0.0,0.0,0.0,0.0,0.0,0.0,0.0,0.0,0.0,0.0,0.0,0.0,0.0,0.0,0.0,0.0,0.0,0.0,0.0,0.0,0.0,0.0,0.0,0.0,0.0,0.0,0.0,0.0,0.0,0.0,0.0,0.0,0.0,0.0,2.5446,2.7572,2.7179,2.8241,2.8008,0.0,0.0,0.0,0.0,0.0,0.0,3.2315,3.4058,3.5919,3.7898,4.0257,4.216,4.35,4.5336,4.6658,4.7522,4.8396,4.9283,5.0115,5.0193,5.0186,5.0214,5.0147,5.0098,4.9752,4.4762,4.2463,4.1761,3.8326,3.6618,3.6118,3.6755,3.6875,3.7148,0.0,0.0,0.0,0.0,0.0,0.0,0.0,0.0,0.0,0.0,0.0,2.2593,2.267,2.6505,2.944,3.0281,3.0614,3.0321,2.9367,2.7792,2.6143,2.4425,2.3552,2.3867,2.5531,3.3031,3.8708,4.2344,4.6442,4.9436,5.1235,5.2103,5.2454,5.2428,5.2415,4.9463,4.4309,4.1627,3.9087,3.6332,0.0,0.0,0.0,0.0,0.0,0.0,0.0,0.0,0.0,0.0,0.0,0.0,0.0,0.0,0.0,0.0,0.0,0.0,0.0,0.0,0.0,0.0,0.0,0.0,0.0,0.0,0.0,0.0,0.0,0.0,0.0,0.0,0.0,0.0,0.0,0.0,0.0,0.0,0.0,3.1778,3.3806,0.0,0.0,0.0,0.0,3.1468,3.2397,3.4352,3.7616,3.9518,4.1665,4.4248,4.6085,4.7067,4.7154,4.8927,5.0277,5.1144,5.2029,5.289,5.375,5.3756,5.3721,5.3727,5.367,5.3676,5.3387,4.8977,4.6245,4.4684,4.3642,4.1771,3.9937,4.2368,4.2724,4.2375,0.0,0.0,0.0,0.0,0.0,0.0,0.0,0.0,1.8005,1.9139,2.2321,2.491,2.6049,3.0567,3.3894,3.4787,3.6967,3.7414,3.5424,3.3704,3.1746,2.9437,2.7433,2.877,3.3835,3.8858,4.363,4.8176,5.0308,5.1904,5.3,5.3345,5.3462,5.3436,5.3423,5.2415,5.0411,4.5585,4.2387,4.014,3.5143,3.1324,0.0,0.0,0.0,0.0,0.0,0.0,0.0,0.0,0.0,0.0,0.0,0.0,0.0,0.0,0.0,0.0,0.0,0.0,0.0,0.0,0.0,0.0,0.0,0.0,0.0,0.0,0.0,0.0,0.0,0.0,0.0,0.0,0.0,0.0,0.0,0.0,0.0,3.4497,3.6705,0.0,3.4768,3.5141,3.5891,3.6754,3.8626,4.0537,4.2345,4.4067,4.546,4.645,4.8164,4.9088,4.9151,5.0906,5.1935,5.2255,5.3124,5.3695,5.3986,5.3955,5.3936,5.3936,5.393,5.3891,5.3819,5.2259,5.0957,4.9809,4.84,4.7268,4.6495,4.685,4.7126,4.7471,0.0,0.0,0.0,0.0,0.0,0.0,0.0,0.0,1.854,2.1148,2.455,2.7619,2.9923,3.4598,3.8046,3.9246,4.1505,4.1718,3.9103,3.7109,3.4683,3.1789,3.0845,3.347,4.0093,4.3354,4.7258,5.1824,5.328,5.4255,5.478,5.5358,5.5631,5.5606,5.5319,5.5014,5.4515,5.0205,4.721,4.4967,4.0042,3.5671,3.1854,0.0,0.0,0.0,0.0,0.0,0.0,0.0,0.0,0.0,0.0,0.0,0.0,0.0,0.0,0.0,0.0,0.0,0.0,0.0,0.0,0.0,0.0,0.0,0.0,0.0,0.0,0.0,0.0,0.0,0.0,0.0,0.0,0.0,0.0,3.3438,3.7008,3.672,3.9519,4.0584,3.8319,3.9568,4.0874,4.173,4.3646,4.5289,4.6502,4.7905,4.8821,4.9184,5.0555,5.1367,5.1428,5.2848,5.3594,5.3592,5.4437,5.4836,5.4826,5.478,5.4882,5.5178,5.5186,5.5186,5.5194,5.5202,5.4729,5.3821,5.2055,5.1391,5.1323,5.0738,5.0894,5.1391,0.0,0.0,0.0,0.0,0.0,0.0,0.0,1.7517,1.9177,2.3496,2.7171,3.0673,3.4232,3.8502,4.1824,4.3512,4.3773,4.2737,4.0093,3.7546,3.4608,3.1168,3.3551,3.7702,4.3573,4.6367,4.9408,5.2788,5.5293,5.6549,5.6566,5.8226,5.8996,5.8957,5.81,5.7282,5.6464,5.5606,5.3744,5.092,4.4975,4.0487,3.6863,0.0,0.0,0.0,0.0,0.0,0.0,0.0,0.0,0.0,0.0,0.0,0.0,0.0,0.0,0.0,0.0,0.0,0.0,0.0,0.0,0.0,0.0,0.0,0.0,0.0,0.0,0.0,0.0,0.0,0.0,0.0,0.0,0.0,3.2242,3.6526,3.9597,3.8883,4.2465,4.4392,4.2738,4.4064,4.5332,4.6122,4.7097,4.8319,4.9979,5.0913,5.1791,5.2695,5.3513,5.4005,5.4097,5.4922,5.5382,5.5444,5.623,5.6563,5.6566,5.6511,5.6952,5.7741,5.7751,5.7722,5.7741,5.7814,5.7322,5.64,5.4645,5.3943,5.3943,5.3904,5.3943,5.3975,0.0,0.0,0.0,0.0,0.0,0.0,0.0,1.751,1.9581,2.5091,2.8386,3.2064,3.6822,4.1225,4.4306,4.545,4.6718,4.6105,4.2829,4.0789,3.844,3.5545,3.9149,4.2876,4.6364,4.9644,5.2355,5.4495,5.6471,5.7432,5.7407,5.8499,5.8996,5.8996,5.8763,5.8178,5.7321,5.6503,5.5333,5.3758,5.0221,4.602,4.1617,0.0,0.0,0.0,0.0,0.0,0.0,0.0,0.0,0.0,0.0,0.0,0.0,0.0,0.0,0.0,0.0,0.0,0.0,0.0,0.0,0.0,0.0,0.0,0.0,0.0,0.0,0.0,0.0,0.0,0.0,0.0,3.3981,3.7006,3.6561,4.0507,4.3802,4.49,4.6632,4.7557,4.7094,4.7468,4.7807,4.8035,4.94,5.0498,5.0985,5.2434,5.3391,5.3617,5.4487,5.5195,5.5812,5.6692,5.7417,5.8058,5.8219,5.8295,5.8306,5.8247,5.8343,5.8576,5.8636,5.8597,5.8587,5.8637,5.8529,5.8091,5.5747,5.4833,5.4762,5.411,5.4624,5.5716,0.0,0.0,0.0,0.0,0.0,0.0,0.0,1.751,2.002,2.6708,2.9342,3.3028,3.9342,4.296,4.5573,4.7221,4.7315,4.6111,4.3336,4.0867,3.9966,4.0945,0.0,4.7027,5.0663,5.3068,5.5143,5.6822,5.818,5.8827,5.8802,5.9698,6.0088,6.0088,5.9698,5.9269,5.8724,5.7516,5.6689,5.6017,5.3805,4.9831,4.5032,4.3487,4.0159,3.6122,3.4934,3.4164,3.3314,3.0585,0.0,0.0,0.0,0.0,0.0,0.0,0.0,0.0,0.0,0.0,0.0,0.0,0.0,0.0,0.0,0.0,0.0,0.0,0.0,0.0,0.0,0.0,0.0,0.0,3.8122,4.1218,4.2005,4.4331,4.6722,4.8879,4.9268,4.964,5.0347,5.0421,5.0416,5.0421,5.1664,5.2595,5.3025,5.3994,5.4716,5.5077,5.5897,5.6591,5.7031,5.7908,5.8591,5.9045,5.9005,5.9007,5.8943,5.8931,5.9075,5.94,5.9425,5.9425,5.9361,5.941,5.9266,0.0,0.0,0.0,0.0,0.0,5.6547,5.7379,0.0,0.0,0.0,0.0,0.0,0.0,0.0,1.7613,2.0476,2.8124,2.9997,3.3604,4.1459,4.3948,4.6053,4.8586,4.658,4.436,4.2513,3.9735,4.0675,4.6234,4.7571,5.0429,5.5228,5.6089,5.7349,5.9098,5.9896,6.03,6.0321,6.1295,6.1685,6.1568,6.0906,6.0477,6.0204,5.8646,5.7944,5.7711,5.6113,5.2511,4.786,4.539,4.2532,3.9589,3.7886,3.7315,3.7016,3.496,0.0,0.0,0.0,0.0,0.0,0.0,0.0,0.0,0.0,0.0,0.0,0.0,0.0,0.0,0.0,0.0,0.0,0.0,0.0,0.0,0.0,0.0,0.0,0.0,4.2421,4.5849,4.7601,4.7983,4.8923,5.1152,5.0902,5.1148,5.271,5.2944,5.2944,5.2866,5.3842,5.4736,5.5416,5.5618,0.0,0.0,0.0,5.8007,5.8091,5.8864,5.9264,5.9251,5.929,5.9249,5.9167,5.9167,5.9555,6.0235,6.0226,6.0187,6.0158,6.0226,5.9774,5.9075,5.8982,5.8927,5.8892,5.883,5.8799,5.8839,0.0,0.0,0.0,0.0,0.0,0.0,0.0,1.8108,2.1175,2.828,3.0006,3.3604,4.1434,4.4462,4.6721,4.8716,4.7123,4.5018,4.2552,4.3088,4.4937,4.8162,5.0508,5.3122,5.6181,5.6425,5.7336,5.9038,5.9871,6.0291,6.0321,6.1919,6.227,6.1607,6.2153,6.1607,6.0282,5.9932,5.9377,5.8657,5.7624,5.5372,5.2442,5.0541,4.9003,4.763,4.5884,4.5312,4.4784,4.0898,3.918,3.8007,3.4354,3.1253,0.0,0.0,0.0,0.0,0.0,0.0,0.0,0.0,0.0,0.0,0.0,0.0,0.0,0.0,0.0,0.0,0.0,0.0,0.0,4.0985,4.5113,4.8552,5.0368,5.1258,5.162,5.1408,5.2507,5.3392,5.371,5.4369,5.4521,5.3818,5.5817,5.6874,5.6366,5.7617,5.8432,5.8592,5.8777,5.9144,5.9824,5.998,6.037,6.0954,0.0,0.0,6.0832,6.0841,6.0918,6.1089,6.105,6.108,6.1133,6.1065,6.0918,6.0593,5.9347,5.883,5.883,5.8736,5.9157,5.973,0.0,0.0,0.0,0.0,0.0,0.0,0.0,1.8258,2.1086,2.7171,2.8791,3.1676,3.778,4.0783,4.2724,4.3638,4.3687,4.3336,4.2467,4.4852,4.7838,5.125,5.3473,5.5648,5.7757,5.822,5.9059,6.0317,6.0737,6.0954,6.0984,6.1841,6.2036,6.1607,6.2075,6.1763,6.0906,6.0477,6.0039,5.9562,5.8685,5.7585,5.6173,5.3572,5.2076,5.1128,4.9418,4.8816,4.8376,4.5348,4.4062,4.3078,3.9122,3.6715,3.4452,0.0,0.0,0.0,0.0,0.0,0.0,0.0,0.0,0.0,0.0,0.0,0.0,0.0,0.0,3.2809,3.5849,0.0,4.1431,4.4923,4.8054,5.0533,5.1849,5.3182,5.3825,5.3419,5.4525,5.5468,5.5898,5.6719,5.7031,5.6637,5.7731,5.8276,5.7879,5.8655,5.9109,5.9098,5.9474,5.9871,6.0253,6.0672,6.1056,6.1408,6.1408,6.1366,6.1291,6.1291,6.1291,6.1291,6.1291,6.1539,6.1982,6.2377,6.2267,6.1768,6.0965,6.0399,5.9995,5.9891,6.0128,6.0479,0.0,0.0,0.0,0.0,0.0,0.0,0.0,1.8238,2.071,2.5772,2.7249,2.9512,3.3885,3.6707,3.8213,3.8014,4.0207,4.1771,4.2119,4.6186,5.0189,5.3822,5.5798,5.7529,5.9053,5.997,6.0783,6.1595,6.1603,6.1586,6.1607,6.1763,6.1841,6.1831,6.1841,6.1841,6.1792,6.0906,6.0555,6.0477,5.9581,5.926,5.8929,5.5987,5.4251,5.3136,5.142,5.0399,4.9692,4.8619,4.7734,4.6537,4.3347,4.1874,3.9974,3.3044,3.196,0.0,0.0,0.0,0.0,0.0,0.0,0.0,0.0,2.9859,3.0939,3.3402,3.4722,3.6565,4.0266,4.2385,4.4798,4.8684,5.0641,5.2005,5.3046,5.456,5.5624,5.5778,5.6404,5.7185,5.8045,5.886,5.9319,5.9173,5.9425,5.9546,5.9363,5.9502,5.9599,5.9576,6.0213,6.0487,6.0417,6.1134,6.1434,6.1391,6.1394,6.1352,6.1281,6.1275,6.1259,6.1225,6.1281,6.163,6.2271,6.3163,6.3106,6.2471,6.2626,6.2277,6.1619,6.1157,6.1118,6.1252,0.0,0.0,0.0,0.0,0.0,0.0,0.0,0.0,2.0467,2.4888,2.6335,2.8605,3.2984,3.5836,3.7109,3.6339,4.0633,4.2786,4.1355,4.8066,5.2653,5.3877,5.6322,5.8078,5.9005,5.9903,6.08,6.1607,6.1595,6.1586,6.1607,6.2387,6.2728,6.2658,6.2728,6.2728,6.2619,6.1792,6.1451,6.1373,6.0516,6.0165,6.0049,5.888,5.7399,5.5762,5.4071,5.1518,4.9157,5.052,4.8437,4.5476,4.6468,4.4692,4.149,3.7492,3.4341,3.1132,2.6481,2.6699,2.8762,3.0733,3.2425,3.4602,0.0,3.8782,3.8905,4.068,4.2369,4.3903,4.5212,4.6909,4.873,5.0795,5.1941,5.313,5.4762,5.5857,5.6702,5.745,5.7656,5.8055,5.8875,5.9748,5.9937,5.9183,6.0555,6.1062,6.0293,6.0949,6.1322,6.1305,6.1354,6.1312,6.1253,6.1369,6.1394,6.1314,6.1314,6.1225,6.1137,6.1137,6.1079,6.1041,6.1155,6.1194,6.1235,6.2162,6.2433,6.2313,6.3102,6.3376,6.3147,6.1582,6.1425,6.2078,0.0,0.0,0.0,0.0,0.0,0.0,0.0,0.0,0.0,2.2846,2.443,2.6022,2.7851,3.0,3.1547,3.2179,3.7425,4.0837,4.1082,4.8398,5.3078,5.3869,5.6413,5.818,5.8983,5.9918,6.0776,6.1586,6.1612,6.1603,6.1607,6.1958,6.2416,6.2834,6.2328,6.2367,6.2795,6.1938,6.187,6.227,6.1412,6.1334,6.1607,6.0282,5.8987,5.7498,5.4281,5.1615,0.0,4.9824,4.8398,4.6827,4.849,4.6977,4.3746,3.9279,3.6897,3.5321,3.3451,3.2338,3.2367,3.4961,3.6532,3.7946,3.9733,4.0701,4.1824,4.4059,4.5507,4.6816,4.8224,4.9479,5.0718,5.1943,5.3312,5.4645,5.5896,5.6348,5.7026,5.8415,5.8571,5.8928,5.9763,6.0622,6.0963,6.0627,6.1251,6.1478,6.112,6.14,6.1568,6.1549,6.1468,6.1421,6.1408,6.1408,6.1366,6.1291,6.1291,6.1242,6.1155,6.1155,6.1426,6.187,6.1978,6.225,6.2758,6.361,6.3632,6.3147,6.3998,6.3994,6.3428,6.2716,6.2656,6.2898,0.0,0.0,0.0,0.0,0.0,0.0,0.0,0.0,0.0,0.0,2.2946,2.4212,2.4918,2.597,2.7398,2.9312,3.4186,0.0,0.0,4.773,5.2312,5.3821,5.638,5.8084,5.864,5.9573,6.0432,6.1253,6.1276,6.1378,6.1607,6.1607,6.2075,6.2844,6.1938,6.2016,6.2805,6.1899,6.1909,6.2513,6.1841,6.1958,6.2309,6.0867,5.9338,5.7488,5.3883,5.1055,4.8899,4.8024,4.6755,4.5818,4.7736,4.6694,4.3935,3.9435,3.7085,3.6073,3.6706,3.6038,3.5815,3.8665,4.0578,4.1829,4.2071,4.3155,4.4628,4.6505,4.7611,4.8691,5.0196,5.1162,5.2109,5.324,5.4679,5.596,5.6816,5.7299,5.8058,5.93,5.9638,6.0035,6.0684,6.1257,6.1634,6.168,6.1634,6.158,6.1573,6.1568,6.1539,6.1468,6.1642,6.1758,6.1769,6.1769,6.1701,6.1671,6.1423,6.1259,6.1191,6.1137,6.1735,6.2814,6.2581,6.2969,6.386,6.4695,6.46,6.4095,6.4927,6.4767,6.4155,6.4177,6.4,6.3738,0.0,0.0,0.0,0.0,0.0,0.0,0.0,0.0,0.0,0.0,0.0,0.0,0.0,2.6178,2.6739,2.9285,3.2009,0.0,0.0,4.6054,5.049,5.3754,5.6393,5.7829,5.7821,5.8702,5.9521,6.0356,6.041,6.0832,6.1607,6.1607,6.2016,6.2774,6.1948,6.2055,6.2736,6.1948,6.1607,6.1646,6.1607,6.1607,6.1529,6.0633,5.8217,5.51,5.3268,0.0,4.6215,4.5382,4.2882,4.0578,4.3084,4.2671,4.0744,3.8032,3.364,3.0203,3.2666,3.5078,3.7763,4.1207,4.4656,4.7367,4.8154,4.8413,4.8553,4.8677,4.94,5.0304,5.1171,5.207,5.3201,5.4931,5.5981,5.6831,5.7635,5.9228,6.0275,6.0286,6.1019,6.1526,6.1564,6.1588,6.1588,6.1603,6.1603,6.1586,6.15,6.1507,6.1472,6.1396,6.2224,6.2663,6.2663,6.2663,6.2648,6.2564,6.1718,6.1281,6.1212,6.1079,6.1986,6.3632,6.2643,6.2695,6.3604,6.4458,6.4805,6.4839,6.5732,6.6024,6.6003,6.5958,6.5365,6.4551,0.0,0.0,0.0,0.0,0.0,0.0,0.0,0.0,0.0,0.0,0.0,0.0,0.0,0.0,0.0,0.0,3.1033,3.4246,3.8319,4.3979,4.8415,5.1274,5.4404,5.662,5.7765,5.8084,5.8623,5.9459,5.9521,5.9935,6.075,6.075,6.149,6.2834,6.1928,6.2045,6.2795,6.1918,6.1889,6.2387,6.1841,6.1958,6.2192,5.9581,5.6823,5.3744,0.0,0.0,4.3656,4.3365,4.1758,4.0281,4.288,4.1724,3.8611,3.48,3.3666,3.4068,3.6067,3.9316,4.2743,4.5065,4.6969,4.8319,4.8616,4.9172,4.964,4.9649,4.9427,4.9483,5.0389,5.1242,5.2404,5.4147,5.6089,5.7874,5.9318,5.9489,5.9662,6.0222,6.0564,6.0759,6.0741,6.1266,6.1595,6.1603,6.2075,6.2133,6.1528,6.2029,6.2303,6.2251,6.256,6.2973,6.3556,6.2944,6.2618,6.2603,6.2267,6.1772,6.1175,6.2258,6.307,6.3671,6.332,6.3587,6.4381,6.4672,6.4805,6.496,6.5793,6.608,6.6036,6.6013,6.5765,6.5474,0.0,0.0,0.0,0.0,0.0,0.0,0.0,0.0,0.0,0.0,0.0,0.0,0.0,0.0,0.0,0.0,0.0,3.2337,3.6133,0.0,4.4699,4.7255,5.0321,5.25,5.3643,5.3955,5.469,5.5801,5.6751,5.7673,5.8481,5.9425,6.0438,6.149,6.0887,6.112,6.1919,6.1334,6.1071,6.0993,6.0438,6.001,5.9347,5.6511,5.3635,0.0,0.0,4.2721,4.0894,4.0296,3.9569,3.9146,4.053,3.9179,3.6599,3.4039,3.4714,3.682,3.9461,4.2675,4.5745,4.7834,4.898,4.9637,4.9679,5.0147,5.0647,5.0971,4.9607,4.8828,5.0303,5.0761,5.1297,5.2429,5.4997,5.7367,5.8805,5.878,5.91,6.0594,6.075,6.0741,6.076,6.1286,6.1616,6.1586,6.2367,6.2569,6.1985,6.2743,6.3171,6.3143,6.3439,6.3852,6.4435,6.3565,6.2773,6.2121,6.2078,6.1852,6.1544,6.2625,6.3454,6.4054,6.399,6.4409,6.5203,6.5225,6.5247,6.5324,6.5865,6.6058,6.608,6.6058,6.5967,6.5933,0.0,0.0,0.0,0.0,0.0,0.0,0.0,0.0,0.0,0.0,0.0,0.0,0.0,0.0,0.0,0.0,0.0,0.0,3.4219,0.0,0.0,4.2173,4.4675,4.6084,4.6201,4.6982,4.8187,4.9892,5.2389,5.4001,5.4927,5.739,5.8568,5.8607,5.8598,5.9065,5.9815,5.9815,5.888,5.736,5.7321,5.5879,5.3502,5.1686,0.0,0.0,4.3083,4.0515,3.8159,3.6599,3.6716,3.7363,3.6551,3.5727,3.5139,3.5864,3.6783,3.8447,4.2594,4.4993,4.6964,4.952,5.0743,5.131,5.1406,5.1389,5.1595,5.2305,4.9804,4.8197,5.0559,5.0438,5.0048,5.02,5.3123,5.5723,5.6634,5.7478,5.8905,6.1295,6.1607,6.1607,6.1607,6.1607,6.1607,6.1646,6.2396,6.2869,6.2885,6.3625,6.4037,6.3961,6.4769,6.5211,6.5203,6.4342,6.3045,6.1297,6.1286,6.164,6.2316,6.233,6.3191,6.4686,6.4691,6.5128,6.5897,6.5972,6.6005,6.6013,6.6013,6.608,6.6165,6.6123,6.6058,6.599,0.0,0.0,0.0,0.0,0.0,0.0,0.0,0.0,0.0,0.0,0.0,0.0,0.0,0.0,0.0,0.0,0.0,0.0,3.168,3.4257,3.7143,4.0402,4.2373,4.4285,4.6218,4.5841,4.6142,4.7211,4.8499,4.958,5.0452,5.1702,5.2658,5.3251,5.3224,5.3332,5.3517,5.3526,5.3302,5.2883,0.0,5.1568,5.0657,0.0,0.0,0.0,3.9736,3.7761,3.6657,3.6875,3.838,4.0184,4.0577,4.0513,4.0266,3.9809,4.163,4.4175,4.5913,4.8148,5.0299,5.1654,5.1698,5.1379,5.1396,5.1406,5.0928,4.9253,4.7176,4.5643,4.5679,4.7081,4.9068,5.1635,5.5444,5.863,6.0091,6.0504,6.0857,6.144,6.1588,6.1588,6.1507,6.1588,6.188,6.2503,6.3281,6.3714,6.378,6.4492,6.4877,6.4862,6.5056,6.5211,6.5203,6.3679,6.231,6.1155,6.1794,6.2182,6.2354,6.3566,6.4347,6.4725,6.5307,6.5705,6.5897,6.5972,6.602,6.5982,6.599,6.6036,6.6058,6.6036,6.6013,6.599,0.0,0.0,0.0,0.0,0.0,0.0,0.0,0.0,0.0,0.0,0.0,0.0,0.0,0.0,0.0,0.0,0.0,0.0,0.0,3.125,3.3163,3.4757,3.6428,3.8185,4.0029,3.9976,4.0516,4.1729,4.3322,4.4363,4.4889,4.6863,4.8015,4.8491,4.8807,4.9177,4.9518,4.9528,4.9109,0.0,0.0,0.0,0.0,0.0,0.0,3.9286,3.6985,3.6816,3.8085,4.0411,4.2178,4.3479,4.4306,4.4331,4.4051,4.4355,4.6029,4.8109,4.934,5.103,5.261,5.3147,5.2602,5.1679,5.0508,4.9946,4.9059,4.6892,4.4468,4.2783,4.3099,4.5285,4.7662,4.9567,5.4117,5.796,5.9708,5.991,6.0312,6.1351,6.1549,6.1549,6.1507,6.1899,6.2503,6.3361,6.3776,6.4169,6.4597,6.5348,6.5755,6.574,6.5755,6.5406,6.4621,6.3219,6.2025,6.1155,6.2008,6.2356,6.2313,6.4007,6.4771,6.4715,6.5538,6.5897,6.5897,6.5947,6.5972,6.5996,6.6005,6.6013,6.6058,6.608,6.608,6.6058,0.0,0.0,0.0,0.0,0.0,0.0,0.0,0.0,0.0,0.0,0.0,0.0,0.0,0.0,0.0,0.0,0.0,0.0,0.0,0.0,0.0,0.0,2.9765,3.0937,3.1914,3.2695,3.3788,3.5307,3.7753,3.8939,3.9029,4.2117,4.3576,4.3724,4.444,4.5161,4.5852,4.5861,4.5006,0.0,0.0,0.0,0.0,0.0,0.0,3.5552,3.4937,3.6913,4.053,4.4787,4.6521,4.7054,4.8054,4.7844,4.7525,4.9021,4.9964,5.0867,5.2526,5.3487,5.4021,5.4125,5.3437,5.2021,4.94,4.8049,4.6733,4.4567,4.164,3.9887,4.13,4.3762,4.587,4.669,5.1547,5.5939,5.7999,5.8242,5.9026,6.1256,6.1549,6.1637,6.1684,6.2406,6.3283,6.4218,6.4204,6.4558,6.5414,6.6125,6.6493,6.6406,6.626,6.5444,6.3906,6.2831,6.2004,6.1366,6.2065,6.2452,6.2618,6.4122,6.4787,6.482,6.5551,6.5897,6.5897,6.5897,6.5947,6.5996,6.5996,6.6029,6.6102,6.6144,6.6144,6.6123,0.0,0.0,0.0,0.0,0.0,0.0,0.0,0.0,0.0,0.0,0.0,0.0,0.0,0.0,0.0,0.0,0.0,0.0,0.0,0.0,0.0,0.0,2.8925,2.9433,3.0997,3.1235,3.1439,3.1718,3.358,3.4527,3.4535,3.5811,3.6722,3.7381,3.7591,3.7716,3.783,3.7879,3.7724,3.7372,3.6658,0.0,0.0,0.0,0.0,0.0,3.4488,3.6912,4.0489,4.4826,4.8157,5.0764,5.2302,5.2684,5.2606,5.2941,5.3128,5.344,5.4534,5.4416,5.4167,5.4881,5.3864,5.201,4.9419,4.7567,4.5138,4.0582,3.8635,3.7624,3.7201,3.978,4.3642,4.8625,5.2668,5.6556,6.0403,6.0924,6.1081,6.1456,6.1578,6.1861,6.2507,6.2785,6.3517,6.5075,6.5161,6.5516,6.6309,6.6503,6.6538,6.6493,6.511,6.4186,6.3834,6.2228,6.1673,6.2162,6.2317,6.307,6.4354,6.4663,6.5134,6.5667,6.582,0.0,6.5897,6.5897,6.5897,6.5923,6.5972,6.6005,6.6036,6.6102,6.6144,6.6165,0.0,0.0,0.0,0.0,0.0,0.0,0.0,0.0,0.0,0.0,1.9657,2.0417,0.0,0.0,0.0,0.0,0.0,0.0,0.0,0.0,0.0,0.0,0.0,0.0,2.8735,2.8789,2.9001,2.9446,0.0,3.0958,3.1387,3.2231,3.3062,3.3842,3.4315,3.4535,3.4497,3.4535,3.4535,3.4466,3.3628,3.3323,0.0,0.0,0.0,0.0,3.3711,3.6519,4.0291,4.3264,4.774,5.2434,5.4593,5.5233,5.5264,5.5248,5.5255,5.534,5.5806,5.5645,5.5467,5.5859,5.4633,5.2177,4.7801,4.5445,4.2593,3.6989,3.5549,3.5282,3.5327,3.8843,4.3017,4.6839,5.1815,5.6244,5.9201,6.0378,6.1091,6.144,6.1549,6.1899,6.2725,6.3224,6.4062,6.5309,6.5823,6.6229,6.6581,6.6567,6.6524,6.6508,6.4823,6.4077,6.4477,6.2289,6.1849,6.3091,6.3091,6.3688,6.4817,6.5241,6.5596,6.5897,6.5897,6.5897,6.5897,6.5897,6.5897,6.5923,6.5958,6.599,6.6013,6.6144,6.6185,6.6185,0.0,0.0,0.0,0.0,0.0,0.0,0.0,1.6801,1.8163,1.9773,2.0431,2.0671,2.0472,2.0974,0.0,0.0,0.0,0.0,0.0,0.0,0.0,0.0,0.0,0.0,0.0,0.0,0.0,2.7359,2.7808,0.0,0.0,0.0,0.0,0.0,3.1909,3.2208,3.2227,3.2409,3.2364,0.0,0.0,3.1442,0.0,0.0,0.0,0.0,0.0,3.5545,3.9127,4.135,4.5987,5.1201,5.3772,5.5106,5.5701,5.5691,5.5691,5.5815,5.6363,5.6556,5.66,5.6593,5.5235,5.2344,4.6343,4.3446,4.0359,3.4367,3.297,3.3175,3.4237,3.7909,4.1696,4.4543,4.964,5.4345,5.7382,5.8952,6.0204,6.1344,6.1715,6.2182,6.3019,6.3847,6.4725,6.5611,6.6279,6.6645,6.6607,6.6553,6.6508,6.6508,6.5002,6.4488,6.5097,6.2698,6.2334,6.398,6.3806,6.4211,6.5087,6.5704,6.5982,6.5897,6.5897,6.5897,6.5897,6.5897,6.5897,6.5923,6.5967,6.6013,6.6036,6.6205,6.6284,6.6244,0.0,0.0,0.0,0.0,0.0,0.0,0.0,1.7247,1.8774,1.9869,2.1387,2.2105,2.1367,2.0749,0.0,0.0,0.0,0.0,0.0,0.0,0.0,0.0,0.0,0.0,0.0,0.0,0.0,2.4646,2.6261,0.0,0.0,0.0,0.0,0.0,0.0,2.8685,2.8734,2.9508,0.0,0.0,0.0,0.0,0.0,0.0,0.0,0.0,0.0,3.3473,3.5781,3.9841,4.2708,4.4961,4.7592,5.0542,5.3039,5.3035,5.3046,5.3557,5.5967,5.6598,5.6588,5.6509,5.5254,5.2406,4.6298,4.2978,3.9511,3.347,3.1604,3.1535,3.3219,3.4558,3.7528,4.3957,4.6144,4.9532,5.6797,5.7946,5.8888,6.1227,6.226,6.3117,6.3915,6.4782,6.565,6.6524,6.662,6.662,6.6606,6.6538,6.6508,6.6508,6.5576,6.5103,6.5097,6.3313,6.3222,6.487,6.4154,6.4541,6.5897,6.6019,6.6029,6.5897,6.5897,6.5897,0.0,6.5897,6.5897,6.5923,6.5967,6.6036,6.6102,6.6264,6.6303,6.6303,0.0,0.0,0.0,0.0,0.0,0.0,0.0,1.6793,1.8338,2.0462,2.1346,2.1911,2.2113,2.1426,2.0792,0.0,0.0,0.0,0.0,0.0,0.0,0.0,0.0,0.0,0.0,0.0,2.471,2.3525,2.474,0.0,0.0,0.0,0.0,0.0,0.0,2.8228,2.8242,2.8626,0.0,0.0,0.0,0.0,0.0,0.0,0.0,0.0,0.0,0.0,3.5035,3.7263,4.0551,4.3512,4.251,4.4543,4.7888,5.1015,5.1921,5.2596,5.5734,5.6601,5.6588,5.6558,5.4089,5.0343,4.5333,4.1354,3.7336,3.2338,3.1031,3.1161,3.2372,3.4176,3.6872,4.1158,4.4315,4.8014,5.3208,5.5723,5.7767,5.9767,6.1247,6.2659,6.3974,6.4403,6.5172,6.6528,6.662,6.6581,6.6538,6.6524,6.6508,6.6508,6.5662,6.5164,6.5097,6.3356,6.3339,6.5006,6.4173,6.4599,6.6058,6.608,6.6052,6.5897,6.5897,6.5897,0.0,6.5897,6.5923,6.5972,6.5967,6.6058,6.6165,6.6322,6.634,6.6322,0.0,0.0,0.0,0.0,0.0,0.0,1.5475,1.6423,1.7907,2.0497,2.1103,2.1526,2.2136,2.17,2.1063,2.0293,0.0,0.0,0.0,0.0,0.0,0.0,0.0,0.0,0.0,0.0,2.3373,2.2545,2.3459,2.4355,0.0,0.0,2.6092,2.7446,0.0,0.0,0.0,0.0,0.0,0.0,0.0,0.0,0.0,0.0,0.0,0.0,0.0,0.0,0.0,0.0,0.0,4.0994,3.858,3.9676,4.2714,4.7364,4.9486,5.0976,5.4177,5.5815,5.6549,5.6294,5.3123,4.8899,4.4363,4.0153,3.602,3.1688,3.0808,3.109,3.1951,3.3828,3.6211,3.9291,4.2566,4.6183,5.0438,5.3312,5.5708,5.7633,5.9386,6.1218,6.3166,6.4286,6.5356,6.6516,6.6607,6.6581,6.6508,6.6275,6.612,6.612,6.5763,6.5286,6.4709,6.3726,6.3806,6.4986,6.4462,6.489,6.6144,6.6165,6.608,6.5909,6.5909,6.5947,0.0,6.5923,6.5947,6.602,6.6036,6.6123,6.6225,6.6358,6.6376,6.6358,0.0,0.0,0.0,0.0,0.0,0.0,0.0,1.6355,1.7696,1.9681,2.0728,2.1314,2.1318,2.1318,2.0975,2.0164,0.0,0.0,0.0,0.0,0.0,0.0,0.0,0.0,0.0,0.0,0.0,2.152,2.2477,2.3385,2.4335,2.4368,2.4869,2.5742,0.0,0.0,0.0,0.0,0.0,0.0,0.0,0.0,0.0,0.0,0.0,0.0,0.0,0.0,0.0,0.0,0.0,0.0,0.0,3.664,3.8029,4.1483,4.4922,4.8202,5.0754,5.3963,5.6393,5.5538,5.2689,4.8751,4.3582,3.9763,3.6072,3.1706,3.0853,3.1132,3.1953,3.2811,3.4843,3.9098,4.0542,4.3266,4.9274,5.0901,5.237,5.4944,5.6736,5.8763,6.1373,6.4704,6.6657,6.6581,6.6594,6.6553,6.6508,6.5693,6.5226,6.5226,6.5963,6.5562,6.3817,6.458,6.4987,6.4986,6.5079,6.5506,6.6303,6.632,6.6187,6.6013,6.6013,6.5982,0.0,6.5972,6.5996,6.602,6.6162,6.6264,6.6322,6.6373,6.6406,6.6406,0.0,0.0,0.0,0.0,0.0,0.0,0.0,1.6319,1.7634,1.9574,2.0668,2.1248,2.1244,2.1221,2.0895,2.0039,0.0,0.0,0.0,0.0,0.0,0.0,0.0,0.0,0.0,0.0,0.0,0.0,0.0,2.2084,2.2466,2.2512,2.3025,2.3903,2.394,2.3904,0.0,0.0,0.0,0.0,0.0,0.0,2.6983,0.0,0.0,0.0,0.0,0.0,0.0,0.0,0.0,0.0,0.0,0.0,0.0,3.6981,4.0037,4.4023,4.777,4.9165,4.9657,4.9957,4.6557,4.2541,4.0291,3.6671,3.3199,3.1207,3.082,3.0933,3.1209,3.2452,3.4441,3.7577,3.9764,4.2605,4.6917,5.0756,5.3618,5.5038,5.9295,6.2444,6.3244,6.5358,6.6663,6.6633,6.6607,6.6581,6.6508,6.6237,6.6081,6.6081,6.5148,6.436,6.3817,6.3999,6.4154,6.4188,6.4826,6.5523,6.6281,6.6299,6.6225,6.6123,6.608,6.6036,6.5982,6.5982,6.6005,6.6058,6.6102,6.6225,6.6373,6.6389,6.6406,6.6406,0.0,0.0,0.0,0.0,0.0,0.0,0.0,1.5978,1.7072,1.8962,1.975,2.0301,2.0625,2.0663,2.045,1.9887,0.0,0.0,0.0,0.0,0.0,0.0,0.0,0.0,0.0,0.0,0.0,0.0,0.0,0.0,0.0,0.0,2.2182,2.3109,2.3111,2.3084,0.0,0.0,0.0,0.0,0.0,0.0,2.5582,0.0,0.0,0.0,0.0,0.0,0.0,0.0,0.0,0.0,0.0,0.0,0.0,0.0,3.6129,3.9217,4.3515,4.5463,4.6264,4.6144,4.2975,3.9384,3.7533,3.4257,3.1367,3.0507,3.0302,3.0403,3.0804,3.2248,3.4164,3.6437,3.8984,4.1982,4.5753,4.9864,5.3273,5.5428,6.0153,6.3193,6.3166,6.5289,6.6683,6.6594,6.6581,6.6439,6.6042,6.6003,6.5887,6.5576,6.4721,6.3973,6.3313,6.3902,6.4056,6.3817,6.5037,6.5868,6.6389,6.6389,6.6338,6.6264,6.6185,6.6102,0.0,6.6005,6.6052,6.6102,6.6144,6.6264,6.6406,6.6422,6.6422,6.6439,0.0,0.0,0.0,0.0,0.0,0.0,0.0,0.0,0.0,0.0,1.8411,1.8825,1.9676,1.9763,1.9763,0.0,0.0,0.0,0.0,0.0,0.0,0.0,0.0,0.0,0.0,0.0,0.0,2.0979,2.0375,2.0977,2.2705,0.0,0.0,2.301,2.2955,2.2929,0.0,0.0,0.0,0.0,2.4048,2.3934,0.0,0.0,0.0,0.0,0.0,0.0,0.0,0.0,0.0,0.0,0.0,0.0,0.0,0.0,0.0,0.0,0.0,4.2304,4.5035,4.3544,4.1194,3.8419,3.5156,3.2499,0.0,2.9593,2.9458,2.9753,3.0572,3.2168,3.3939,3.5613,3.8164,4.1394,4.5597,4.8738,5.2064,5.6199,5.9685,6.1759,6.1616,6.4714,6.6683,6.6594,6.6581,6.6205,6.5265,6.5265,6.4916,6.4022,6.4682,6.4244,6.2616,6.4131,6.4558,6.3895,6.5613,6.6422,6.6508,6.6508,6.6445,6.6322,6.6322,6.6204,6.602,6.599,6.6036,6.6123,6.6225,6.632,6.6406,6.6493,6.6508,6.6508,0.0,0.0,0.0,0.0,0.0,0.0,0.0,0.0,0.0,0.0,0.0,1.9332,1.9559,1.9582,0.0,0.0,0.0,0.0,0.0,0.0,0.0,0.0,0.0,0.0,0.0,0.0,0.0,2.0014,2.0564,2.1162,2.1803,2.162,0.0,0.0,0.0,0.0,0.0,0.0,0.0,0.0,2.3817,2.4284,0.0,0.0,0.0,0.0,2.7617,2.8316,0.0,0.0,0.0,0.0,0.0,0.0,0.0,0.0,3.1873,3.2612,3.3662,0.0,3.6639,3.7563,3.589,3.3593,0.0,3.0716,2.9558,2.8707,2.9035,2.9562,2.9784,3.1769,3.374,3.4842,3.7766,4.1182,4.4813,5.0889,5.5873,5.8194,6.1524,6.3077,6.1712,6.4731,6.675,6.6669,6.6633,6.6218,6.5309,6.5863,6.5537,6.4061,6.4061,6.3895,6.3507,6.3881,6.4307,6.4826,6.5885,6.6422,6.6508,6.6508,6.6439,6.6373,6.6376,6.6264,6.6058,6.6013,6.608,6.6165,6.6185,6.632,6.6454,6.6422,6.6422,6.6406,0.0,0.0,0.0,0.0,0.0,0.0,0.0,0.0,0.0,0.0,0.0,0.0,0.0,0.0,0.0,0.0,0.0,0.0,0.0,0.0,0.0,0.0,0.0,0.0,0.0,0.0,0.0,0.0,0.0,2.1635,0.0,0.0,0.0,0.0,0.0,0.0,0.0,0.0,0.0,0.0,2.2722,0.0,0.0,0.0,0.0,0.0,2.6912,2.7968,0.0,2.9844,3.0858,3.1394,0.0,0.0,0.0,0.0,3.0259,3.0997,3.1376,3.2414,3.3515,3.4057,3.3162,3.1719,3.0033,2.9263,2.8641,2.7792,2.8311,2.9035,2.944,3.2283,3.4459,3.4132,3.8359,4.2964,4.6814,5.1605,5.5689,5.8201,6.0477,6.2116,6.2734,6.4856,6.6321,6.6618,6.6244,6.5622,6.4751,6.5474,6.4955,6.2857,6.386,6.4255,6.3851,6.38,6.4227,6.517,6.6018,6.6439,6.6508,6.6508,6.6477,6.6411,6.6394,6.6284,6.6058,6.6013,6.608,6.6185,6.6185,6.632,6.6508,6.6439,6.6422,6.6406,0.0,0.0,0.0,0.0,0.0,0.0,0.0,0.0,0.0,0.0,0.0,0.0,0.0,0.0,0.0,0.0,0.0,0.0,0.0,0.0,0.0,0.0,0.0,0.0,0.0,0.0,0.0,0.0,0.0,0.0,0.0,0.0,2.2597,0.0,0.0,0.0,0.0,0.0,0.0,2.0683,2.1546,0.0,0.0,0.0,0.0,0.0,0.0,0.0,0.0,2.9121,2.9901,3.0328,2.9413,0.0,0.0,0.0,0.0,0.0,3.0369,3.1853,3.3006,3.2265,3.1992,3.1289,2.902,2.8332,2.7983,2.7234,2.7678,2.859,2.9862,3.305,3.5159,3.414,3.9669,4.57,5.0261,5.2514,5.4762,5.7662,5.9117,6.0906,6.3561,6.4817,6.5727,6.6373,6.5609,6.4727,6.3842,6.4566,6.3906,6.1458,6.375,6.4629,6.3938,6.3984,6.4472,6.5397,6.6144,6.6508,6.6508,6.6508,6.6461,6.6376,6.6376,0.0,6.6013,6.6013,6.6102,6.6244,6.6244,6.632,6.6508,6.6493,6.6422,6.6389,0.0,0.0,0.0,0.0,0.0,0.0,0.0,0.0,0.0,0.0,0.0,0.0,0.0,0.0,0.0,0.0,0.0,0.0,0.0,0.0,0.0,0.0,0.0,0.0,0.0,0.0,0.0,0.0,0.0,0.0,2.3831,2.3889,2.3134,0.0,0.0,0.0,0.0,0.0,0.0,2.0683,2.1546,0.0,0.0,0.0,0.0,0.0,0.0,0.0,0.0,2.8225,2.8572,2.8564,2.7657,0.0,0.0,0.0,0.0,0.0,2.9374,3.0942,3.2274,3.2139,3.1562,3.0702,2.963,2.8785,2.8173,2.8023,2.8073,2.9065,3.2156,3.3258,3.4341,3.6284,4.1855,4.7929,5.3705,5.6582,5.8324,5.8827,6.1637,6.311,6.2102,6.4131,6.5511,6.5578,6.4765,6.3884,6.2951,6.3726,6.3337,6.146,6.3143,6.4076,6.3987,6.4644,6.539,6.6212,6.6415,6.6508,6.6508,6.6508,6.6461,6.6376,0.0,6.6284,6.608,6.608,6.6165,6.6303,6.6303,6.6394,6.6493,6.6376,6.6358,6.6376,0.0,0.0,0.0,0.0,0.0,0.0,0.0,0.0,0.0,0.0,0.0,0.0,0.0,0.0,0.0,0.0,0.0,0.0,0.0,0.0,0.0,0.0,0.0,0.0,0.0,0.0,0.0,0.0,0.0,2.3525,2.4553,2.3837,2.3125,2.238,0.0,0.0,0.0,0.0,1.9899,1.9977,0.0,0.0,0.0,0.0,0.0,0.0,0.0,0.0,0.0,0.0,2.7903,2.8212,2.7796,0.0,0.0,0.0,0.0,0.0,2.7899,2.9305,3.0969,3.2396,3.3519,3.4036,3.3243,3.2717,3.1841,2.999,2.9946,3.0962,3.3502,3.55,3.8525,4.3948,4.6826,4.9836,5.4023,5.5609,5.6875,5.8246,5.9802,6.1192,6.218,6.3382,6.4246,6.4683,6.3881,6.3184,6.2718,6.3065,6.2716,6.1434,6.3534,6.4428,6.4001,6.5284,6.6111,6.6439,6.6493,6.6508,6.6508,6.6508,6.6461,6.6376,0.0,6.6303,6.6102,6.6102,6.6165,6.6303,6.6303,6.6376,6.6422,6.6358,6.6303,6.6303,0.0,0.0,0.0,0.0,0.0,0.0,0.0,0.0,0.0,0.0,0.0,0.0,0.0,0.0,0.0,0.0,0.0,0.0,0.0,0.0,0.0,0.0,0.0,0.0,0.0,0.0,2.0581,2.2368,2.3407,2.4486,2.5531,2.3779,2.2877,0.0,0.0,0.0,0.0,1.9302,1.9424,1.9658,0.0,0.0,0.0,0.0,0.0,0.0,0.0,0.0,0.0,0.0,0.0,0.0,0.0,0.0,0.0,2.664,2.6689,2.678,2.6752,2.8163,3.0249,3.2654,3.4503,3.587,3.6438,3.6075,3.5042,3.3034,3.3271,3.4209,3.5485,3.8416,4.2766,4.9333,5.06,5.1773,5.4764,5.5377,5.6363,5.8753,5.9012,6.0132,6.2921,6.3015,6.3146,6.3748,6.2974,6.2483,6.2407,6.2405,6.2172,6.1758,6.3884,6.4779,6.4338,6.5829,6.6581,6.6508,6.6508,6.6508,6.6508,6.6508,6.6461,6.6376,6.6376,6.6303,6.6123,6.6123,6.6185,6.6322,6.6322,6.6358,6.6373,6.634,6.6264,6.6165,0.0,0.0,0.0,0.0,0.0,0.0,0.0,0.0,0.0,0.0,0.0,0.0,0.0,0.0,0.0,0.0,0.0,0.0,0.0,0.0,0.0,0.0,0.0,0.0,0.0,1.9977,2.1417,2.3213,2.4279,2.5432,2.6524,2.3999,2.2433,2.1723,0.0,0.0,0.0,0.0,1.9723,2.0431,2.048,0.0,0.0,0.0,0.0,0.0,0.0,0.0,0.0,0.0,0.0,0.0,0.0,0.0,2.6746,2.586,2.6188,2.6753,2.6651,2.8493,3.0878,3.2723,3.224,3.2513,3.7237,3.6485,3.5398,3.7498,3.8656,3.926,3.9318,4.1505,4.4308,4.7288,5.0425,5.3969,5.8155,5.9446,6.0622,6.2423,6.2647,6.302,6.4014,6.3374,6.2912,6.2902,6.2091,6.155,6.1512,6.1472,6.1874,6.269,6.3663,6.4531,6.5294,6.6166,6.6581,6.6508,6.6508,6.6508,6.6508,6.6508,6.6461,6.6376,6.6376,6.6322,6.6185,6.6185,6.6284,6.6376,6.6376,6.6358,6.6322,6.6303,6.6205,6.6123,0.0,0.0,0.0,0.0,0.0,0.0,0.0,0.0,0.0,0.0,0.0,0.0,0.0,0.0,0.0,0.0,0.0,0.0,0.0,0.0,0.0,0.0,0.0,1.9687,2.0535,2.1601,2.2831,2.4166,2.5348,2.614,2.6583,2.3474,0.0,0.0,0.0,0.0,0.0,0.0,1.9102,1.9029,2.0087,2.0519,0.0,0.0,0.0,0.0,0.0,0.0,0.0,0.0,2.4572,2.5079,2.6085,2.6623,2.6823,2.6476,2.6544,2.6605,2.6013,2.8145,3.0801,3.2019,3.2757,3.452,3.975,4.0569,4.0042,3.9435,4.0831,4.2142,4.2144,4.6424,4.9945,4.987,5.3693,5.7252,5.8867,6.0305,6.146,6.21,6.2161,6.2265,6.2555,6.2297,6.2084,6.2065,6.1723,6.1495,6.1472,6.1434,6.1823,6.2768,6.3663,6.4531,6.5384,6.6205,6.6594,6.6538,6.6524,6.6508,6.6508,6.6439,6.6445,6.6376,6.6358,6.6303,6.6185,6.6185,6.6284,6.6415,6.634,6.6303,6.6205,6.6185,6.6144,6.6102,0.0,0.0,0.0,0.0,0.0,0.0,0.0,0.0,0.0,0.0,0.0,0.0,0.0,0.0,0.0,0.0,0.0,0.0,0.0,0.0,0.0,0.0,0.0,1.992,2.1425,2.2535,2.3785,2.5152,2.6022,2.6496,2.6535,0.0,0.0,0.0,0.0,0.0,0.0,0.0,1.8676,1.8527,1.9926,2.0509,0.0,0.0,0.0,0.0,0.0,0.0,0.0,0.0,2.4107,2.4623,2.5958,2.678,2.7161,2.6631,2.7171,2.7727,2.6814,2.8483,3.0907,3.257,3.4209,3.6767,4.1997,4.3217,4.3105,4.2715,4.3584,4.4635,4.5468,4.9439,5.2407,5.1818,5.5861,5.9081,5.9098,6.0613,6.1811,6.2089,6.1804,6.1705,6.1993,6.1781,6.1607,6.1607,6.1549,6.1518,6.1484,6.1732,6.2277,6.3196,6.4064,6.4944,6.5784,6.6334,6.6607,6.6581,6.6538,6.6508,6.6508,6.6422,6.6389,6.6415,6.6322,6.6284,6.6185,6.6185,6.6284,6.6358,6.634,6.6303,6.6205,6.6144,6.6123,6.6123,0.0,0.0,0.0,0.0,0.0,0.0,0.0,0.0,0.0,0.0,0.0,0.0,0.0,0.0,0.0,0.0,0.0,0.0,0.0,0.0,0.0,0.0,0.0,2.0383,2.1387,2.2604,2.4173,2.61,2.6288,2.6473,2.6544,2.3899,0.0,0.0,0.0,0.0,0.0,0.0,0.0,1.9348,2.0182,2.049,2.0497,0.0,0.0,0.0,0.0,0.0,0.0,0.0,2.3564,2.4424,2.5215,2.6689,2.7743,2.5994,2.7892,3.0345,2.9352,2.9781,3.1313,3.4726,3.6366,3.8507,4.3713,4.3626,4.3681,4.7957,4.7411,4.6933,4.9534,5.0049,5.0603,5.2348,5.6276,5.9104,5.9098,6.06,6.2022,6.2864,6.2187,6.1939,6.282,6.2093,6.1607,6.1607,6.1549,6.1518,6.1484,6.234,6.3196,6.4052,6.4944,6.5823,6.6673,6.6618,6.6581,6.6581,6.6553,6.6508,6.6508,6.6422,6.6373,6.6415,6.6322,6.6284,6.6185,6.6185,6.6264,6.6303,6.6358,6.6358,6.6303,6.6205,6.6185,6.6185,0.0,0.0,0.0,0.0,0.0,0.0,0.0,0.0,0.0,0.0,0.0,0.0,0.0,0.0,0.0,0.0,0.0,0.0,0.0,0.0,0.0,0.0,0.0,0.0,0.0,0.0,2.5026,2.6327,2.644,2.6182,0.0,0.0,0.0,1.9764,0.0,0.0,0.0,0.0,1.9222,1.849,1.9924,2.0146,1.9662,0.0,0.0,0.0,0.0,0.0,0.0,0.0,0.0,0.0,2.4328,2.5769,2.6953,2.5815,2.6606,2.7632,2.6687,2.9297,3.2359,3.2682,3.6784,4.1396,4.4184,4.5423,4.7025,5.0717,5.0063,4.9286,5.065,5.2394,5.3572,5.354,5.668,5.9295,5.9922,6.0998,6.1793,6.205,6.1804,6.1705,6.1954,6.1742,6.1607,6.1607,6.1559,6.1539,6.1484,6.174,6.2285,6.3157,6.4048,6.4888,6.5777,6.6346,6.6581,6.6581,6.6553,6.6508,6.6508,6.6428,6.6394,6.6376,6.6284,6.6205,6.6185,6.6264,6.6225,6.6205,6.6264,6.6264,6.6205,6.6144,6.6144,6.6185,0.0,0.0,0.0,0.0,0.0,0.0,0.0,0.0,0.0,0.0,1.5349,1.6142,0.0,0.0,0.0,0.0,0.0,0.0,0.0,0.0,0.0,0.0,0.0,0.0,0.0,2.2712,2.4155,0.0,0.0,0.0,0.0,0.0,0.0,1.9545,0.0,1.8544,1.7903,1.9379,1.9409,1.86,1.9963,2.0185,1.9776,0.0,0.0,0.0,0.0,0.0,0.0,0.0,0.0,0.0,2.3959,2.5391,2.6808,2.697,2.7318,2.7991,2.9382,3.1583,3.3928,3.5701,3.973,4.4059,4.7228,4.88,5.023,5.2629,5.2292,5.1834,5.2684,5.4087,5.5225,5.5418,5.7479,5.939,6.0273,6.1157,6.1715,6.1699,6.1648,6.1588,6.1603,6.1586,6.1607,6.1607,6.1607,6.1588,6.1484,6.184,6.2424,6.3274,6.4176,6.5016,6.5894,6.6385,6.6581,6.6581,6.6553,6.6508,6.6508,6.6428,6.6376,6.6376,6.6264,6.6185,6.6224,6.6284,6.6284,6.6185,6.6244,6.6205,6.6185,6.6144,6.6165,6.6185,0.0,0.0,1.6259,1.6054,0.0,0.0,0.0,0.0,0.0,0.0,1.4948,1.5614,0.0,0.0,0.0,0.0,0.0,0.0,0.0,0.0,0.0,0.0,0.0,0.0,0.0,0.0,0.0,0.0,0.0,0.0,0.0,0.0,2.0927,1.8709,0.0,1.8633,1.8011,1.8915,1.9273,1.9286,2.0143,2.0451,2.0363,2.0386,0.0,0.0,0.0,0.0,0.0,0.0,0.0,0.0,2.3836,2.5221,2.6884,2.847,2.8984,3.0072,3.4664,3.521,3.5881,4.1562,4.4172,4.6676,5.1674,5.2819,5.3045,5.3844,5.4021,5.4273,5.5147,5.5319,5.5879,5.7641,5.8597,5.9448,6.039,6.1196,6.1715,6.1705,6.1648,6.1588,6.1603,6.1586,6.1607,6.1607,6.1607,6.1588,6.1484,6.2318,6.3146,6.3974,6.481,6.5699,6.6556,6.6579,6.6581,6.6581,6.6553,6.6508,6.6508,6.6428,6.6376,6.6358,6.6264,6.6185,6.6185,6.6284,6.6225,6.6185,6.6284,6.6264,6.6185,6.6185,6.6185,6.6185,0.0,0.0,1.6872,1.6071,0.0,0.0,0.0,0.0,0.0,0.0,0.0,0.0,0.0,0.0,0.0,0.0,0.0,0.0,0.0,0.0,0.0,0.0,0.0,0.0,0.0,0.0,0.0,0.0,0.0,0.0,0.0,0.0,0.0,1.9568,0.0,1.9858,1.976,2.0028,1.9783,1.9283,2.0165,2.0083,1.9542,2.0171,2.0399,0.0,0.0,0.0,0.0,0.0,0.0,0.0,2.3191,2.437,2.573,2.6063,2.7064,2.8599,3.0915,3.3767,3.707,4.1054,4.5991,5.0524,5.3123,5.3717,5.3947,5.4752,5.4903,5.5204,5.6049,5.6205,5.6797,5.8526,5.8983,5.9637,6.1209,6.1584,6.1715,6.1715,6.1705,6.1648,6.1595,6.1612,6.1586,6.1607,6.1607,6.1588,6.1484,6.1734,6.225,6.304,6.3915,6.4803,6.566,6.6307,6.6581,6.6581,6.6553,6.6508,6.6508,6.6428,6.634,6.6264,6.6205,6.6185,6.6185,6.6244,6.6205,6.6185,6.6144,6.6165,6.6185,6.6144,6.6144,6.6185,0.0,0.0,0.0,0.0,0.0,0.0,0.0,0.0,0.0,0.0,0.0,0.0,0.0,0.0,0.0,0.0,0.0,0.0,0.0,0.0,0.0,0.0,0.0,0.0,0.0,0.0,0.0,0.0,0.0,0.0,0.0,0.0,0.0,1.9843,0.0,2.0161,2.0265,2.0314,2.0117,1.983,2.0305,2.0231,1.9877,2.0235,2.0383,2.036,2.0301,0.0,0.0,0.0,0.0,0.0,0.0,0.0,2.5532,2.6274,2.6491,2.7572,3.2447,3.484,3.754,4.402,4.8738,5.2185,5.3665,5.4303,5.4732,5.5153,5.5226,5.5488,5.6329,5.6842,5.7551,5.8883,5.9446,6.0178,6.1523,6.1701,6.172,6.172,6.1705,6.1654,6.1595,6.1619,6.1595,6.1607,6.1607,6.1549,6.1507,6.1549,6.2172,6.3375,6.3847,6.453,6.5387,6.619,6.6387,6.5998,6.632,6.6493,6.6445,6.6411,6.6322,6.6185,6.6185,6.6185,6.6185,6.6185,6.6185,6.6185,6.6144,6.6165,6.6185,6.6144,6.6165,6.6185,0.0,0.0,0.0,0.0,0.0,0.0,0.0,0.0,0.0,0.0,0.0,0.0,0.0,0.0,0.0,0.0,0.0,0.0,0.0,0.0,0.0,0.0,0.0,0.0,0.0,0.0,0.0,0.0,0.0,0.0,0.0,0.0,0.0,1.9881,0.0,0.0,2.0211,2.0242,2.0321,2.0383,2.0439,2.0491,2.0478,2.0415,2.0365,2.0301,2.0311,2.0304,2.0419,2.1328,0.0,0.0,0.0,0.0,2.5418,2.6743,2.6282,2.695,3.4497,3.6714,3.8999,4.7827,5.1385,5.294,5.3821,5.4654,5.5318,5.5318,5.527,5.5494,5.638,5.7205,5.8075,5.8967,5.9837,6.0682,6.1562,6.1709,6.1686,6.172,6.171,6.1654,6.1595,6.1619,6.1595,6.1607,6.1607,6.1559,6.1489,6.1559,6.2299,6.3826,6.3896,6.4374,6.5387,6.6073,6.6088,6.5531,6.6189,6.6461,6.6376,6.6376,6.6322,6.6185,6.6185,6.6185,6.6185,6.6185,6.6185,6.6185,6.6185,6.6185,6.6185,6.6165,6.6185,6.6185,0.0,0.0,0.0,0.0,0.0,0.0,0.0,0.0,0.0,0.0,1.7042,1.7089,0.0,0.0,0.0,0.0,0.0,0.0,1.7726,0.0,0.0,1.8622,1.8734,0.0,0.0,0.0,0.0,0.0,0.0,0.0,0.0,0.0,0.0,1.9751,0.0,0.0,2.0108,2.0178,2.0212,2.0248,2.0377,2.0404,2.0404,2.0386,0.0,0.0,2.0318,2.0289,2.0435,2.1305,2.2122,0.0,0.0,0.0,2.4292,2.4394,2.5232,2.7026,3.1119,3.764,4.4496,4.9625,5.229,5.3697,5.3938,5.4654,5.5318,5.5318,5.5279,5.5548,5.6445,5.7265,5.8089,5.8944,5.9846,6.0718,6.1596,6.1717,6.1701,6.1681,6.1715,6.1666,6.1602,6.1595,6.1619,6.1607,6.1607,6.1559,6.1489,6.1559,6.2026,6.293,6.3039,6.3828,6.5387,6.5512,6.5867,6.6426,6.6431,6.6428,6.6376,6.634,6.6284,6.6185,6.6185,6.6185,6.6185,6.6185,6.6185,6.6185,6.6123,6.6144,6.6185,6.6123,6.6144,6.6185,0.0,0.0,0.0,0.0,0.0,0.0,0.0,0.0,0.0,0.0,0.0,1.7519,0.0,0.0,0.0,1.7448,1.7589,1.7794,1.8001,1.8266,1.8463,1.86,1.8676,1.8751,0.0,0.0,0.0,0.0,0.0,0.0,0.0,2.0655,2.0658,0.0,0.0,0.0,0.0,2.037,2.0242,2.0328,2.0365,2.097,2.1762,0.0,0.0,0.0,0.0,0.0,2.045,2.1803,2.2197,2.2158,2.2667,0.0,0.0,0.0,2.3645,2.6225,3.1996,3.8885,4.5341,4.9392,5.1714,5.3224,5.3855,5.4654,5.5318,5.5318,5.5708,5.6294,5.7113,5.7972,5.8792,5.969,6.0549,6.1104,6.1006,6.1406,6.1509,6.1017,6.1408,6.1671,6.1602,6.1595,6.1619,6.1607,6.1607,6.1559,6.1489,6.1559,6.1987,6.2774,6.2883,6.3478,6.4647,6.5161,6.5777,6.6514,6.6461,6.6394,6.634,6.6322,6.6284,6.6185,6.6185,6.6185,6.6185,6.6185,6.6185,6.6185,6.6165,6.6165,6.6185,6.6165,6.6165,6.6185,0.0,0.0,0.0,0.0,0.0,0.0,0.0,0.0,0.0,0.0,0.0,0.0,0.0,0.0,0.0,0.0,1.7704,1.7949,1.8232,1.8368,1.8483,1.8596,1.8584,1.8747,1.9017,0.0,0.0,0.0,0.0,0.0,2.199,2.2164,2.2682,0.0,2.2374,0.0,0.0,0.0,0.0,0.0,2.0946,2.1816,0.0,0.0,0.0,0.0,0.0,0.0,2.1304,2.2179,2.2055,2.1594,2.2247,2.2457,0.0,0.0,0.0,2.6044,3.2833,3.8454,4.3487,4.8021,5.0353,5.194,5.3342,5.4537,5.524,5.5005,5.5825,5.684,5.766,5.8519,5.9378,6.0276,6.0939,6.1139,6.0496,6.0976,6.1118,6.0471,6.1174,6.1671,6.1602,6.1595,6.158,6.1578,6.1607,6.1568,6.151,6.1559,6.187,6.2474,6.2767,6.3283,6.4101,6.5161,6.5998,6.6485,6.6445,6.6394,6.6322,6.6322,6.6303,6.6264,6.6205,6.6244,6.6205,6.6185,6.6185,6.6185,6.6185,6.6185,6.6185,6.6185,6.6185,6.6185,0.0,0.0,0.0,0.0,0.0,0.0,0.0,0.0,0.0,0.0,0.0,0.0,0.0,0.0,1.7794,1.7509,1.7749,1.7992,1.8205,1.8388,1.8502,1.8522,1.8565,0.0,1.9659,0.0,0.0,0.0,0.0,0.0,2.2483,2.2738,2.4262,2.6742,2.4638,2.3236,2.2498,0.0,0.0,0.0,2.2397,2.2811,2.3075,0.0,0.0,0.0,0.0,2.3257,2.3664,2.209,2.1543,2.1504,2.1543,2.1581,2.1573,0.0,0.0,0.0,3.1712,3.5071,3.8894,4.5664,4.8163,4.9653,5.2172,5.406,5.5083,5.4225,5.5435,5.684,5.766,5.8519,5.9378,6.0276,6.0432,6.0436,6.0418,6.0429,6.0454,6.0393,6.1174,6.1671,6.1602,6.1595,6.1588,6.1603,6.1578,6.1616,6.1595,6.1616,6.1607,6.1646,6.2465,6.3283,6.4101,6.5784,6.6594,6.6489,6.6485,6.6461,6.6376,6.6376,6.6376,6.6376,6.6322,6.6303,6.6303,6.6244,6.6185,6.6185,6.6185,6.6185,6.6185,6.6185,6.6185,6.6185,0.0,0.0,0.0,0.0,0.0,0.0,0.0,0.0,0.0,0.0,0.0,0.0,0.0,1.8031,1.7816,1.7772,1.7971,1.8184,1.8368,1.8502,1.8772,1.9266,1.8827,1.8972,1.9734,0.0,0.0,0.0,0.0,2.0966,2.2715,2.2923,2.4534,2.7151,2.5291,2.4105,2.3429,2.2058,0.0,2.0918,2.2878,2.4353,2.5356,0.0,2.6583,2.875,2.5026,2.3874,2.4079,2.3975,2.2466,2.0757,2.1325,2.1141,2.0919,2.197,2.4264,2.7308,3.1083,3.4453,3.7893,4.2071,4.5493,4.8249,4.9848,5.2406,5.4523,5.4771,5.5786,5.684,5.766,5.805,5.8558,5.9417,6.0041,6.0202,5.9631,6.0546,6.1012,6.0457,6.1182,6.1671,6.1654,6.1654,6.1648,6.1588,6.1603,6.1586,6.1578,6.1616,6.1588,6.1557,6.1861,6.2737,6.4101,6.5823,6.6645,6.6569,6.65,6.6477,6.6389,6.6389,6.6389,6.6373,6.6355,6.6338,6.6358,6.6303,6.6284,6.6284,6.6244,6.6185,6.6185,6.6185,6.6185,6.6185,0.0,0.0,0.0,0.0,0.0,1.7747,0.0,0.0,0.0,0.0,0.0,0.0,0.0,0.0,1.8753,1.8543,1.8405,1.8388,1.8545,1.8619,1.8992,1.9734,1.929,1.9381,2.022,0.0,0.0,0.0,0.0,0.0,0.0,2.2923,2.4554,2.7177,2.5778,2.5004,0.0,0.0,2.197,2.1806,2.4648,2.6057,2.6431,2.6702,2.8233,2.9821,2.6923,2.5846,2.5927,2.6467,2.4918,2.2708,2.2474,2.1636,2.1066,0.0,2.46,2.6766,2.9659,3.2568,3.5542,3.8724,4.1936,4.504,4.7762,5.036,5.2757,5.4494,5.5548,5.6406,5.7231,5.7387,5.7855,5.93,5.9768,5.9768,5.9187,6.0346,6.0937,6.0076,6.0998,6.1715,6.1699,6.1699,6.1693,6.1648,6.1627,6.1612,6.1642,6.1625,6.1724,6.1957,6.2309,6.302,6.4111,6.5844,6.6513,6.6153,6.6411,6.6485,6.6422,6.6422,6.6422,6.6422,6.6422,6.6428,6.6376,6.6322,6.6303,6.6284,6.6244,6.6185,6.6185,6.6185,6.6185,6.6185,0.0,1.8517,1.7794,1.7586,1.8119,1.8352,0.0,0.0,0.0,0.0,0.0,0.0,0.0,0.0,0.0,1.9881,1.9027,1.8567,1.8697,1.8715,1.9071,1.9854,1.985,2.0205,2.1049,0.0,0.0,0.0,0.0,0.0,0.0,0.0,2.4358,2.7022,2.6126,2.6012,2.6288,2.4651,2.3995,2.4263,2.7845,2.7846,2.6204,3.0528,3.1103,2.9644,2.9637,2.9489,2.9369,2.9433,2.8686,2.7242,2.4885,0.0,0.0,0.0,0.0,0.0,0.0,0.0,0.0,3.5775,3.7669,4.0048,4.5884,4.8047,4.9747,5.3166,5.4567,5.5499,5.6406,5.6567,5.7426,5.9924,5.9612,5.9056,5.9117,5.9832,6.0117,5.9258,6.0689,6.1715,6.1699,6.1699,6.1699,6.1699,6.1609,6.1602,6.1699,6.1627,6.1993,6.2851,6.3709,6.4177,6.4177,6.5826,6.6213,6.5297,6.6192,6.6581,6.6508,6.6508,6.6508,6.6508,6.6508,6.6461,6.6376,6.6322,6.6284,6.6185,6.6185,6.6185,6.6185,6.6185,6.6185,6.6185,2.0358,1.9441,1.8687,1.8545,1.8219,1.8061,0.0,0.0,0.0,0.0,0.0,0.0,0.0,0.0,0.0,1.9893,1.918,1.8735,1.8843,1.8843,1.9183,1.9929,2.0003,2.0091,0.0,0.0,0.0,0.0,0.0,0.0,0.0,0.0,0.0,0.0,2.5302,2.5324,2.5996,2.4461,2.3487,2.3534,2.88,3.0285,2.9757,3.407,3.5779,3.5834,3.5124,3.2878,3.0604,3.3102,2.9601,2.4152,2.3481,0.0,0.0,0.0,0.0,0.0,2.6931,0.0,0.0,0.0,0.0,0.0,4.0556,4.5,4.9055,5.0048,5.2874,5.526,5.5538,5.6133,5.7035,5.8324,5.8324,5.8363,5.9017,5.9862,6.0543,6.0937,6.1391,6.1715,6.1715,6.1715,6.1715,6.1715,6.1114,6.103,6.166,6.1651,6.1703,6.1954,6.2756,6.3175,6.3175,6.4939,6.566,6.5372,6.6205,6.6569,6.6555,6.6538,6.6508,6.6508,6.6508,6.6477,6.6389,6.6376,6.6358,6.634,6.6264,6.6185,6.6185,6.6185,6.6185,6.6185,2.0833,1.9946,1.919,1.8981,1.8585,1.8574,0.0,0.0,0.0,0.0,0.0,0.0,0.0,0.0,0.0,0.0,1.9685,1.9,1.9053,1.8966,1.9291,2.0081,2.046,2.0422,0.0,0.0,0.0,0.0,0.0,0.0,0.0,0.0,0.0,0.0,2.4617,2.4837,2.533,2.485,2.4448,2.464,3.0012,3.1787,3.1676,3.599,3.7522,3.7428,3.7941,3.6276,3.4348,3.7402,3.3184,2.6645,2.658,2.5721,0.0,0.0,0.0,0.0,0.0,0.0,0.0,3.0402,0.0,0.0,3.8874,4.2899,4.68,4.9328,5.211,5.4234,5.4635,5.5416,5.6163,5.6636,5.7026,5.7573,5.8431,5.9304,6.0064,6.0546,6.0926,6.1291,6.1681,6.172,6.1564,6.1174,6.07,6.0612,6.114,6.1471,6.1651,6.1603,6.2414,6.2843,6.2843,6.4614,6.5494,6.5465,6.624,6.6594,6.6581,6.6538,6.6508,6.6508,6.6508,6.6493,6.6422,6.6428,6.6394,6.634,6.6264,6.6185,6.6185,6.6185,6.6185,6.6185,0.0,2.0184,1.9517,1.9224,1.9155,0.0,0.0,0.0,0.0,0.0,0.0,0.0,0.0,0.0,0.0,0.0,2.0209,1.9251,1.9298,1.9226,0.0,0.0,0.0,0.0,0.0,0.0,0.0,0.0,0.0,0.0,0.0,0.0,0.0,0.0,2.4178,2.4476,2.4584,2.5587,2.6307,2.7124,3.1415,3.2803,3.2809,3.7288,3.8058,3.706,3.9526,3.9614,3.8874,4.089,3.7607,3.2485,3.1816,2.9178,2.625,2.5662,2.6196,0.0,0.0,0.0,0.0,0.0,3.1095,0.0,3.8663,4.0921,4.3381,4.8762,5.0881,5.198,5.2835,5.3649,5.4228,5.4318,5.526,5.6352,5.7601,5.8475,5.9003,5.9099,5.9871,6.0661,6.1369,6.1486,6.1174,6.0315,6.0276,6.0266,6.0269,6.1062,6.1563,6.1603,6.2368,6.2765,6.2765,6.4482,6.5371,6.5346,6.6195,6.6618,6.6581,6.6538,6.6508,6.6508,6.6508,6.6508,6.6508,6.6422,6.6355,6.6303,6.6264,6.6185,6.6185,6.6185,6.6185,6.6185,2.2056,2.1101,2.0396,2.0188,0.0,0.0,0.0,0.0,0.0,0.0,0.0,0.0,0.0,0.0,0.0,0.0,0.0,1.936,0.0,0.0,0.0,0.0,0.0,0.0,0.0,0.0,0.0,0.0,0.0,0.0,0.0,0.0,0.0,0.0,2.4368,2.4476,2.4671,2.5695,2.7721,3.0434,3.2823,3.4268,3.5499,4.0593,4.2338,4.2323,4.4199,4.2502,3.9194,3.7661,3.7148,3.6394,3.2213,3.1258,3.0894,2.6727,2.7055,0.0,0.0,0.0,0.0,2.8461,3.0208,0.0,3.3382,3.65,3.9505,4.0688,4.3856,4.6463,4.6632,4.739,4.8187,4.8889,5.0928,5.3665,5.7289,5.7945,5.8315,5.9023,5.9868,6.0193,5.9651,6.0237,6.0276,5.9417,5.9339,5.9363,5.9332,6.0191,6.0925,6.1564,6.1744,6.1861,6.1846,6.3592,6.4443,6.4384,6.5912,6.6618,6.6581,6.6538,6.6508,6.6508,6.6508,6.6508,6.6508,6.6422,6.6373,6.6358,6.6303,6.6264,6.6185,6.6185,6.6185,6.6185,2.1268,2.064,2.035,2.0638,0.0,0.0,0.0,0.0,0.0,0.0,0.0,0.0,0.0,0.0,0.0,0.0,0.0,0.0,0.0,0.0,0.0,0.0,0.0,0.0,0.0,0.0,0.0,0.0,0.0,0.0,0.0,0.0,0.0,0.0,0.0,2.5442,2.699,2.6833,2.8222,3.0804,3.3632,3.6675,3.9878,4.3452,4.5365,4.6263,4.7143,4.5779,4.3311,4.159,3.9863,3.8058,3.5878,3.4315,3.2661,2.9622,2.9356,2.9435,2.6792,2.6738,2.7395,2.737,2.8982,0.0,0.0,3.4921,3.7597,3.9293,4.1754,4.3739,4.4157,4.4949,4.5696,4.6142,4.8767,5.1196,5.2478,5.5283,5.753,5.8358,5.8856,5.9143,5.9104,5.9495,5.9378,5.8519,5.8441,5.8627,5.9059,5.9918,6.0761,6.1586,6.1612,6.1807,6.2227,6.3553,6.4411,6.4822,6.6059,6.6641,6.6581,6.6567,6.6524,6.6508,6.6508,6.6508,6.6508,6.6439,6.6406,6.6411,6.634,6.6284,6.6264,6.6205,6.6185,6.6185,2.0172,2.0055,2.0276,2.0802,0.0,0.0,0.0,0.0,0.0,0.0,0.0,0.0,0.0,0.0,0.0,0.0,0.0,0.0,0.0,0.0,0.0,0.0,0.0,2.2917,0.0,0.0,0.0,0.0,0.0,0.0,0.0,0.0,0.0,0.0,0.0,0.0,2.8688,2.842,2.9477,3.1678,3.4979,3.8723,4.2524,4.4569,4.6541,4.8249,4.8646,4.8347,4.7567,4.6307,4.2935,3.9176,3.8864,3.6683,3.3913,3.1876,3.1346,3.08,2.7845,2.6994,2.697,2.6962,2.8122,2.9842,0.0,0.0,0.0,3.8606,4.0041,4.1015,4.1721,4.2578,4.3201,4.3389,4.6215,4.7942,4.6694,5.1206,5.4978,5.5933,5.6983,5.7699,5.7855,5.7855,5.7777,5.7582,5.7113,5.7417,5.8799,5.9684,6.052,6.1305,6.1517,6.1954,6.2656,6.367,6.4535,6.5277,6.6243,6.6673,6.6645,6.6594,6.6553,6.6524,6.6508,6.6508,6.6508,6.6508,6.6493,6.6406,6.6358,6.6322,6.6303,6.6205,6.6185,6.6185,1.9993,2.0519,2.0873,2.0907,0.0,0.0,0.0,0.0,0.0,0.0,0.0,0.0,0.0,0.0,0.0,0.0,0.0,0.0,2.5808,0.0,0.0,0.0,2.5355,2.482,2.5298,0.0,0.0,0.0,0.0,0.0,0.0,0.0,0.0,0.0,2.7844,2.8032,2.6465,3.0205,3.3713,3.6862,3.823,3.8733,3.8988,4.1625,4.4184,4.6621,4.8202,4.873,4.8275,4.5936,4.3713,4.1178,3.6699,3.6484,3.669,3.0468,3.1259,3.3238,2.9062,2.7969,2.7923,2.7868,2.8565,2.9386,2.9666,0.0,3.2463,3.286,0.0,3.5446,3.5592,0.0,0.0,3.7954,4.0354,4.2315,4.291,4.5586,4.8066,4.9644,5.3937,5.5864,5.3635,5.3444,5.4342,5.6567,5.4576,5.4654,5.7773,5.8754,5.9623,6.0426,6.1214,6.1642,6.1759,6.3397,6.4262,6.4357,6.594,6.6693,6.6702,6.6607,6.6606,6.6592,6.6524,6.6508,6.6508,6.6508,6.6508,6.6493,6.6411,6.634,6.6303,6.6205,6.6185,6.6185,1.9485,2.0028,2.063,2.111,0.0,0.0,0.0,0.0,0.0,0.0,0.0,0.0,2.7485,2.8508,2.9398,2.9893,2.9984,2.9566,2.8457,2.8199,0.0,0.0,2.5542,2.454,2.3879,2.3581,2.2361,0.0,2.1343,0.0,0.0,0.0,0.0,0.0,2.8854,3.0226,3.1148,3.4055,3.5913,3.7052,3.9562,4.0185,4.0063,4.4827,4.7669,4.9269,5.0024,4.9981,4.9387,4.8343,4.5508,4.2376,4.2236,3.9809,3.665,3.4725,3.3646,3.248,2.9641,2.9232,2.938,2.8334,2.9442,3.0518,2.955,3.0268,3.1274,3.1739,0.0,0.0,0.0,0.0,0.0,0.0,3.7136,3.86,3.7981,4.1012,4.4273,4.7024,4.9725,5.1545,5.1917,5.3334,5.4665,5.5747,5.529,5.5804,5.7718,5.8631,5.945,6.0252,6.1166,6.1603,6.1603,6.3311,6.4216,6.4232,6.5948,6.6741,6.6691,6.6633,6.6594,6.6594,6.6538,6.6524,6.6538,6.6524,6.6508,6.6493,6.6411,6.6376,6.634,6.6264,6.6185,6.6185,1.9166,1.9865,2.0679,2.1329,0.0,0.0,0.0,0.0,0.0,0.0,0.0,2.7556,2.8259,2.983,3.1298,3.2409,3.3219,3.3333,3.2577,3.1287,3.0242,2.956,2.6822,2.5196,2.4904,2.4001,2.2769,0.0,0.0,0.0,0.0,0.0,0.0,0.0,2.9396,3.1732,3.448,3.68,3.8135,3.8937,4.1552,4.309,4.4211,4.8281,5.0801,5.2064,5.1859,5.1336,5.0693,4.9804,4.6668,4.3422,4.526,4.1943,3.7516,3.8015,3.6384,3.3861,3.1177,3.0923,3.0948,2.8939,2.9846,3.0884,2.9588,2.9967,3.0771,3.1333,3.1718,0.0,0.0,0.0,3.3315,0.0,0.0,3.5688,3.4408,3.6972,4.0157,4.3459,4.5233,4.7185,4.9748,5.1706,5.3117,5.3859,5.4683,5.5737,5.7065,5.8381,5.9363,5.9966,6.1027,6.1612,6.1603,6.3343,6.4201,6.4216,6.5948,6.675,6.6691,6.6657,6.6633,6.6633,6.6567,6.6553,6.6606,6.6538,6.6508,6.6477,6.6411,6.6376,6.6358,6.6225,6.6185,6.6185,1.9314,2.0478,2.1442,2.1477,2.2919,0.0,0.0,0.0,2.4534,2.3878,2.7445,3.0084,3.0112,3.533,3.8831,3.8908,4.1223,4.1623,3.9084,3.6555,3.5902,3.7531,3.0471,2.7955,3.1134,2.6211,2.3169,2.226,0.0,0.0,0.0,0.0,0.0,0.0,2.9578,3.1977,3.3669,3.722,4.1106,4.4848,4.5148,4.791,5.1693,5.0451,5.1593,5.3702,5.2947,5.2641,5.2124,4.8787,4.6445,0.0,0.0,4.1131,4.0467,3.7972,3.8895,3.959,3.4482,3.316,3.2608,2.9986,2.9427,2.9458,2.9317,2.9984,3.0604,3.053,3.131,3.2004,3.195,0.0,0.0,0.0,0.0,0.0,0.0,3.3457,3.4569,3.7265,4.0537,4.3593,4.6211,4.6522,4.7656,5.0172,5.1127,5.2695,5.5234,5.7725,5.9117,5.9139,6.075,6.1588,6.1603,6.3335,6.4201,6.4216,6.5892,6.6711,6.6702,6.6691,6.6708,6.6708,6.6633,6.6594,6.6606,6.6606,6.6524,6.6406,6.6394,6.6358,6.6303,6.6244,6.6185,6.6185,2.1146,2.1935,2.2223,2.0988,2.2209,2.3529,2.405,2.4976,2.6367,2.8508,3.0633,3.2799,3.5119,3.7228,3.8926,4.0044,4.0945,4.1075,4.0254,3.7771,3.6614,3.723,3.151,2.8807,2.9879,2.6986,2.4714,2.3233,2.4001,0.0,0.0,0.0,0.0,0.0,3.03,3.3278,3.5587,4.0798,4.3836,4.535,4.7338,4.9782,5.2288,5.2418,5.3039,5.3799,5.3,5.3084,0.0,5.0898,4.8984,4.7422,4.6523,4.3906,4.1054,4.0717,3.9613,3.8111,0.0,0.0,3.5904,3.2773,3.2787,3.3111,3.1418,3.1206,3.1381,3.1342,3.1613,3.1689,3.1125,0.0,0.0,0.0,0.0,0.0,0.0,3.2085,3.2778,3.3673,3.7393,4.0658,4.2656,4.5975,4.8395,4.9287,5.1706,5.3773,5.5218,5.7226,5.8543,5.9061,6.0773,6.1933,6.2506,6.3623,6.4474,6.5051,6.6174,6.6702,6.6683,6.6691,6.668,6.6691,6.6645,6.662,6.6607,6.662,6.6538,6.6477,6.6411,6.6376,6.634,6.6264,6.6185,6.6185,2.2158,2.251,2.2513,2.1581,2.2591,2.3802,2.4538,2.5747,2.7593,3.0605,3.2338,3.4507,3.7706,3.9187,4.0514,4.1932,4.2912,4.3041,4.2187,4.0277,3.9049,3.8789,3.4439,3.2242,3.281,2.9858,2.7746,2.6555,2.5806,2.5463,2.5476,2.5146,2.5462,2.6384,2.9764,3.3477,3.7413,4.1988,4.5298,4.7754,5.0334,5.2121,5.3339,5.4298,5.4344,5.3838,0.0,5.3516,5.3747,5.1992,5.0508,4.9375,4.9375,4.6601,4.3476,4.3693,4.2153,4.0128,3.8875,3.9155,0.0,3.5491,3.562,3.5941,3.3384,3.2745,3.2813,3.3122,3.2232,3.168,3.2732,0.0,0.0,0.0,0.0,0.0,0.0,3.1188,3.165,3.1954,3.4827,3.7555,3.9564,4.3076,4.5961,4.7835,5.0562,5.2936,5.4732,5.6753,5.8241,5.9084,6.0788,6.1988,6.253,6.3637,6.4474,6.5051,6.6165,6.6683,6.6712,6.6691,6.6691,6.6712,6.663,6.6606,6.6581,6.6594,6.6553,6.6477,6.6411,6.6376,6.634,6.6264,6.6185,6.6185,2.2424,2.2379,2.2503,2.3219,2.3999,2.4584,2.4828,2.6488,2.8422,3.0407,3.2981,3.5637,3.84,4.1609,4.393,4.4816,4.7117,4.7489,4.5064,4.4113,4.3297,4.2539,3.9168,3.8024,3.9606,3.4574,3.1873,3.1692,2.8307,2.6611,2.6557,2.5612,2.5628,2.6505,2.8172,3.2622,3.8918,4.0825,4.5592,5.2067,5.4048,5.487,5.4932,5.5993,5.5366,5.391,5.4037,5.4062,5.381,5.2068,5.0976,5.0312,5.0234,4.9062,4.7539,4.6544,4.6248,4.5451,4.2088,4.1712,4.1442,3.8055,3.7802,0.0,0.0,3.4642,3.4884,3.5718,3.3286,3.2227,3.616,3.3494,0.0,0.0,0.0,0.0,3.0466,3.0529,3.0909,3.1845,3.28,3.4363,3.6886,3.7975,4.0621,4.5685,4.7654,5.0165,5.3756,5.62,5.7967,5.9062,6.0764,6.1681,6.1759,6.3325,6.4201,6.4294,6.5865,6.6673,6.6712,6.6712,6.6712,6.6712,6.6712,6.668,6.6581,6.6581,6.6514,6.6406,6.6394,6.6358,6.6303,6.6205,6.6185,6.6185,2.4282,2.4691,2.5122,2.5317,2.497,2.4941,2.5721,2.8474,3.1851,3.5599,3.8363,4.1492,4.5415,4.6678,4.7345,4.7572,4.8253,4.836,4.7717,4.6302,4.5967,4.6972,4.25,4.0461,4.1496,3.644,3.3158,3.1787,2.9582,2.8202,2.7528,2.661,2.6968,2.8326,2.8823,3.2742,3.9047,4.0965,4.6116,5.3237,5.5023,5.507,5.4179,5.5796,5.5403,5.4068,5.4711,5.4952,5.4683,5.2967,5.2225,5.1836,5.0574,4.9877,4.9218,4.764,4.6694,4.5842,4.4253,4.348,4.2636,4.0432,4.0043,3.9807,0.0,0.0,0.0,3.8402,3.7804,3.657,3.4438,3.2677,3.0759,2.821,2.7226,2.7249,2.8487,2.8698,2.9264,3.087,3.2396,3.3613,3.4324,3.7453,4.0301,4.229,4.4636,4.8045,5.2776,5.3022,5.4911,5.8984,6.0151,6.1349,6.2657,6.3104,6.3943,6.5176,6.558,6.6108,6.6712,6.6712,6.6712,6.6712,6.6712,6.668,6.6581,6.6581,6.6528,6.6477,6.6411,6.6322,6.6205,6.6185,6.6185,6.6185,2.5603,2.5904,2.6332,2.673,2.7594,2.8308,2.8502,3.0228,3.3122,3.7539,4.0444,4.3469,4.7073,4.8515,4.9528,5.0295,5.0382,4.994,4.8833,4.8574,4.8197,4.7612,4.5552,4.461,4.5098,4.0733,3.7413,3.5249,3.2356,2.991,2.7911,2.7055,2.7113,2.8,2.9148,3.2788,3.8354,4.3574,4.833,5.2655,5.5141,5.5644,0.0,5.6453,5.6223,5.5224,5.6092,5.5937,5.5078,5.3711,5.3008,5.2538,5.1581,5.0803,4.9919,4.8506,4.7459,4.6554,4.5655,4.5032,4.4296,4.2937,4.283,4.2643,4.1025,4.059,4.072,0.0,3.9946,3.8733,0.0,3.472,3.0643,2.6839,2.5197,2.4942,2.6635,2.7533,2.8371,2.9435,3.1096,3.2149,3.2205,3.6138,3.9199,4.0447,4.2247,4.5065,4.9089,5.0625,5.3061,5.6751,5.918,6.0854,6.1863,6.2623,6.3656,6.4932,6.5324,6.5922,6.6693,6.6693,6.6683,6.6712,6.6683,6.6652,6.6581,6.6581,6.6542,6.6493,6.6411,6.6322,6.6185,6.6185,6.6185,6.6263,2.6615,2.6607,2.695,2.7891,3.0893,3.3083,3.2762,3.2954,3.4615,3.8701,4.1548,4.418,4.6666,4.8989,5.1,5.266,5.2785,5.183,4.9625,5.0806,5.0225,4.7186,4.8279,4.8977,4.8977,4.5663,4.2624,3.9901,3.5733,3.188,2.8334,2.7365,2.6966,2.7219,2.9301,3.3003,3.8155,4.7001,5.1022,5.177,5.4943,5.6278,5.6495,5.7429,5.7258,5.6637,5.7575,5.6777,5.5169,5.4414,5.3514,5.2694,5.2713,5.1613,5.0181,4.9257,4.8415,4.7635,4.6775,4.6388,4.6074,4.5327,4.558,4.5393,4.3141,4.2563,4.2744,4.3543,4.1287,4.0152,4.351,3.7423,3.0543,2.635,2.4663,2.4478,2.6193,2.77,2.8693,2.8745,3.0272,0.0,3.075,3.4236,3.7225,3.8984,3.9819,4.1652,4.4883,4.866,5.1835,5.4259,5.8159,6.0273,6.039,6.2016,6.3286,6.4219,6.495,6.5823,6.6711,6.6711,6.6693,6.6712,6.6693,6.6663,6.6581,6.6581,6.6581,6.6477,6.6411,6.6322,6.6185,6.6185,6.6185,6.6301,2.7561,2.808,2.8835,2.9763,3.2806,3.6041,3.8744,4.0416,4.2159,4.4422,4.7017,4.9378,5.1234,5.1934,5.2656,5.3676,5.376,5.3583,5.3117,5.2692,5.2184,5.1595,5.0463,4.9868,4.9887,4.7147,4.4129,4.0855,3.7858,3.4328,0.0,2.8618,2.8574,2.9898,2.9621,3.4212,4.246,4.768,5.1586,5.4322,5.5655,5.6291,5.6492,5.7449,5.7278,5.6636,5.7567,5.6766,5.5283,5.5112,5.402,5.2687,5.271,5.2019,5.1014,5.0116,4.9751,4.9451,4.8522,4.772,4.7151,4.6969,4.6465,4.5869,4.5336,4.5209,4.5247,4.536,4.4937,4.3671,4.0931,0.0,3.0739,2.7168,2.8047,2.9794,3.1593,3.1999,3.2192,3.2279,3.3826,3.3782,3.0983,3.2052,3.3634,3.5371,3.5632,3.8727,4.5624,4.6716,4.9853,0.0,5.8183,5.9682,0.0,0.0,6.268,6.4179,6.4346,6.5262,6.6775,6.6741,6.6683,6.6702,6.6683,6.6641,6.6581,6.6581,6.6538,6.6411,6.6394,6.6322,6.6185,6.6185,6.6185,6.6301,2.9187,2.9206,3.0142,3.3295,3.598,3.9072,4.3015,4.5832,4.7345,4.6822,4.828,4.988,5.1152,5.255,5.3734,5.4596,5.4684,5.4687,5.4674,5.4284,5.3859,5.3394,5.2578,5.1913,5.1478,4.9785,4.6566,4.1788,3.958,0.0,0.0,0.0,2.9227,3.0149,3.3664,3.802,4.3053,4.8667,5.2041,5.374,5.598,5.6679,5.6583,5.8448,5.8066,5.6718,5.8069,5.7426,5.5981,5.5957,5.4825,5.3377,5.337,5.2479,5.1242,5.035,5.0113,4.9887,4.8983,4.8457,4.8132,4.8093,4.7717,4.7369,4.7334,4.7275,4.712,4.6615,4.6539,4.5025,3.9859,3.5119,0.0,2.9108,2.8288,2.8827,3.1449,3.2501,3.3081,3.3142,3.3519,3.3128,3.1491,3.0108,3.0788,3.4328,3.5029,3.7884,4.3877,4.5449,4.8554,0.0,0.0,0.0,5.9717,0.0,6.2566,6.4236,6.4208,6.5127,6.6798,6.6767,6.6711,6.6711,6.6693,6.6663,6.6645,6.6607,6.6524,6.6376,6.6376,6.6322,6.6185,6.6185,6.6185,6.6301,3.1736,3.1443,3.2477,3.7277,3.9746,4.2354,4.6185,4.9562,5.0912,4.8787,4.9318,5.0253,5.1123,5.3046,5.4608,5.5464,5.5543,5.557,5.5549,5.5371,5.4957,5.4298,5.4091,5.3592,5.2733,5.2025,4.9,4.3525,4.1406,3.7219,0.0,0.0,3.0397,3.1297,3.7696,4.1745,4.4098,0.0,5.2288,5.3402,5.633,5.7164,5.6909,5.9237,5.8749,5.7031,5.8378,5.7894,5.6606,5.6606,5.5435,5.399,5.399,5.2819,5.1265,5.0585,5.0388,5.0222,4.9523,4.9235,4.9067,4.9021,4.885,4.8669,4.8632,4.8565,4.8334,4.7636,4.7222,4.5276,3.9699,3.6229,0.0,0.0,3.004,2.961,3.2076,3.3738,3.461,3.4254,3.3655,3.3102,3.2765,3.0326,3.0425,3.4542,3.5164,3.7318,4.177,0.0,0.0,0.0,0.0,5.8275,5.825,0.0,6.2764,6.4281,6.4409,6.5289,6.6817,6.6791,6.6767,6.672,6.6711,6.6673,6.6657,6.662,6.6493,6.6394,6.6394,6.6322,6.6205,6.6205,6.6205,6.634,3.6021,3.6433,3.7513,4.1186,4.3895,4.6254,4.8263,5.0867,5.2492,5.2248,5.2965,5.3867,5.4726,5.5037,5.5489,5.6308,5.6391,5.6386,5.6393,5.5659,5.5165,5.5098,5.4377,5.3572,5.2724,5.2617,5.0777,4.7116,4.3762,4.0252,0.0,0.0,3.3451,3.6479,3.8704,0.0,0.0,4.977,5.2316,5.6029,5.7157,5.7585,5.768,5.8796,5.8591,5.7731,5.7945,5.7387,5.6606,5.6606,5.5435,5.399,5.399,5.2819,5.1385,5.1288,5.1274,5.1258,5.1167,5.0567,4.9965,4.9985,4.934,4.8694,4.8613,4.861,4.8549,4.8472,4.7252,4.4845,4.04,4.0556,3.9996,0.0,3.7579,3.9193,3.8717,3.9444,3.9444,3.7975,3.7734,3.7113,3.557,3.521,3.5249,3.5648,3.4357,3.5764,4.0859,0.0,0.0,5.0018,5.3658,5.5588,5.5575,6.0429,6.3354,6.4301,6.5022,6.5875,6.6795,6.6744,6.672,6.6775,6.6732,6.668,6.6581,6.6553,6.6477,6.6389,6.6394,6.634,6.6303,6.6303,6.6264,6.634,3.9929,4.0259,4.1518,4.5521,4.705,4.8681,5.1496,5.3236,5.4453,5.4956,5.4879,5.5111,5.595,5.602,5.6163,5.6478,5.6485,5.6485,5.6496,5.6159,5.5971,5.5964,5.5672,5.5109,5.4271,5.4254,5.2344,4.8395,4.4874,4.116,3.7257,0.0,0.0,0.0,0.0,4.7295,4.9962,5.2602,5.4984,5.7094,5.8009,5.8412,5.8637,6.0089,5.9451,5.7886,5.8402,5.7738,5.6579,5.6563,5.5743,5.4771,5.4771,5.3569,5.2175,5.2184,5.1792,5.1414,5.1418,5.1137,5.0889,5.0862,5.0569,5.0236,5.0235,5.0199,5.0013,4.9547,4.7687,4.5312,4.2604,4.0526,3.9176,3.8976,3.8296,3.8394,4.0045,4.0537,4.0703,4.061,3.9267,3.8296,3.8089,3.6713,3.6059,3.655,3.6425,3.7467,4.0032,0.0,0.0,4.994,0.0,5.7512,5.753,6.1172,6.3428,6.4297,6.5139,6.5953,6.6784,6.6736,6.6711,6.6741,6.6702,6.6669,6.662,6.6567,6.6493,6.6411,6.6394,6.634,6.6225,6.6303,6.6264,6.634,4.4265,4.4441,4.5586,4.964,5.0334,5.1248,5.3984,5.4882,5.5612,5.648,5.6259,5.6341,5.7161,5.7278,5.7265,5.7237,5.701,5.6847,5.6814,5.6605,5.6449,5.648,5.6503,5.6101,5.5309,5.5302,5.3553,5.0038,4.6796,4.355,4.0306,0.0,0.0,0.0,4.769,5.0204,5.1579,5.4917,5.6807,5.7648,5.8831,5.9342,5.9529,6.0808,6.0156,5.8624,5.8953,5.8168,5.6965,5.6909,5.6363,5.563,5.5396,5.4281,5.3081,5.308,5.2656,5.2142,5.2169,5.2163,5.2112,5.1859,5.1771,5.1629,5.1367,5.1256,5.0918,4.9887,4.8226,4.6359,4.4421,4.1334,3.9513,4.0774,0.0,3.8026,4.0134,4.0637,4.092,4.1319,3.983,3.9099,3.9932,3.84,3.7506,3.7848,3.9357,4.0507,4.1092,0.0,0.0,0.0,0.0,0.0,5.8336,6.168,6.3699,6.4297,6.5379,6.6193,6.6811,6.6728,6.6693,6.6702,6.6669,6.6645,6.6607,6.6567,6.6493,6.6394,6.6394,6.6322,6.6264,6.6303,6.6438,6.6727,4.9323,4.938,4.9905,5.3355,5.3945,5.4257,5.5143,5.5274,5.5594,5.6393,5.7258,5.8091,5.8967,5.9072,5.9045,5.8996,5.8178,5.7653,5.7592,5.6845,5.6388,5.6388,5.6441,5.6088,5.521,5.527,5.4437,5.2656,5.0078,4.8358,4.7413,0.0,4.5339,4.8592,4.8669,5.1084,5.5119,5.5986,5.6884,5.7866,5.959,6.0262,6.0284,6.039,6.0381,6.0253,5.9397,5.8523,5.7796,5.7773,5.7231,5.645,5.5591,5.4677,5.3984,5.3984,5.3976,5.3969,5.3971,5.3951,5.3756,5.2897,5.2694,5.2439,5.153,5.132,5.0836,4.9139,4.8794,4.7952,4.5351,4.4142,4.2948,4.1168,0.0,4.0466,3.9619,4.0215,4.0432,3.9723,3.9682,4.0027,4.0889,4.102,4.0662,3.9723,4.2805,4.4733,0.0,0.0,0.0,5.1063,5.3,0.0,5.651,6.1677,6.4284,6.4336,6.5975,6.679,6.6811,6.6728,6.6683,6.6708,6.6633,6.6607,6.6606,6.6524,6.6439,6.6389,6.6394,6.6358,6.6303,6.6358,6.6864,6.7637,5.2534,5.3045,5.3593,5.4687,5.5341,5.5786,5.6074,5.6608,5.7297,5.8102,5.8944,5.9832,6.0642,5.9715,5.8996,5.8948,5.8665,5.8509,5.8487,5.767,5.7225,5.7284,5.6736,5.6332,5.6081,5.6118,5.5595,5.4476,5.1867,0.0,0.0,4.7279,4.8343,5.0628,5.2325,5.4159,5.6018,5.6923,5.8111,5.9503,6.0114,6.069,6.1208,6.1248,6.087,6.0204,5.9385,5.8559,5.7726,5.7094,5.6753,5.6567,5.6255,5.5599,5.4906,5.4906,5.4484,5.3981,5.3984,5.3981,5.393,5.3643,5.3127,5.2616,5.2333,5.1798,5.1037,4.9913,4.9201,4.8205,4.621,4.5104,4.4109,4.2942,4.2704,0.0,4.2286,4.249,4.2782,4.3122,4.3216,4.3607,4.4455,4.4565,4.3973,4.2478,4.3276,4.3073,0.0,0.0,0.0,0.0,5.5229,0.0,6.0035,6.2885,6.4602,6.5194,6.6277,6.6766,6.6728,6.6702,6.6702,6.6708,6.6633,6.6607,6.6606,6.6524,6.6461,6.6394,6.6394,6.6322,6.6264,6.6303,6.6826,6.7617,5.487,5.5143,5.5414,5.572,5.6157,5.6471,5.6457,5.719,5.7922,5.8412,5.9523,6.0438,6.095,6.0328,5.9888,5.9853,5.9542,5.9335,5.9309,5.8506,5.7908,5.7659,5.7138,5.6745,5.648,5.6497,0.0,5.5313,5.3334,5.155,4.9997,5.05,5.1492,5.2957,5.4787,5.6121,5.7018,5.8226,5.9326,6.0364,6.075,6.1193,6.1639,6.1658,6.1303,6.0698,5.9841,5.8983,5.8126,5.7219,5.6776,5.6558,5.6558,5.6211,5.5786,5.5786,5.5411,5.4995,5.4998,5.4961,5.4917,5.4591,5.3998,5.3295,5.2394,5.1786,5.1152,5.0328,4.9664,4.8798,4.7081,4.6011,4.5089,4.4241,4.3778,4.3545,4.35,4.3558,4.3653,4.3839,4.4199,4.4734,4.5612,4.6027,4.6013,4.5538,4.5442,4.4851,0.0,0.0,5.0809,5.3068,5.6658,5.9701,6.2148,6.3586,6.4721,6.5624,6.6421,6.6791,6.672,6.6722,6.6702,6.6708,6.6633,6.6607,6.6606,6.6873,6.6749,6.645,6.6743,6.6611,6.6225,6.6283,6.6884,6.7812,5.6374,5.5893,5.5613,5.6347,5.648,5.6503,5.6464,5.7215,5.777,5.7787,5.9254,6.0293,6.0268,6.0928,6.1405,6.1405,6.0628,6.0172,6.0095,5.9357,5.8545,5.7729,5.7692,5.7321,5.6503,5.6478,5.6118,5.5391,5.4494,5.4072,5.4089,5.4101,5.456,5.5439,5.6241,5.7127,5.8091,5.9729,6.0432,6.0561,6.1381,6.1716,6.1672,6.1609,6.1595,6.149,6.0555,5.9698,5.8841,5.7931,5.7141,5.6581,5.6581,5.6631,5.6684,5.6606,5.6606,5.6614,5.66,5.6601,5.6406,5.5577,5.514,5.4317,5.2042,5.144,5.1176,5.0428,5.0188,4.9622,4.806,4.7025,4.6098,4.5234,4.4331,4.3761,4.3683,4.3722,4.3514,4.2747,4.3428,0.0,4.5099,4.5903,4.6976,4.8405,4.8538,0.0,0.0,0.0,5.0286,5.6202,5.7346,5.9528,6.2967,6.386,6.476,6.5702,6.6447,6.6783,6.6783,6.6732,6.6702,6.6708,6.6633,6.6607,6.6645,6.7456,6.7309,6.6561,6.7325,6.7076,6.638,6.6397,6.7076,6.8123,5.6602,5.6354,5.6262,5.6402,5.6416,5.6622,5.7225,5.807,5.8838,5.9503,6.0488,6.1122,6.1041,6.119,6.1314,6.1242,6.112,6.1003,6.0987,6.0259,5.9706,5.9502,5.8285,5.7564,5.741,5.6745,5.6347,5.6218,5.5382,5.5005,5.497,5.4993,5.5468,5.6326,5.7135,5.8367,5.9797,6.0204,6.0783,6.1413,6.1616,6.1679,6.1623,6.1627,6.1549,6.1312,5.9854,5.9163,5.8696,5.726,5.7095,5.7499,5.7499,5.7512,5.7411,5.6797,5.6614,5.6585,5.6595,5.66,5.6562,5.6327,5.5575,5.4502,5.3014,5.2034,5.134,5.1164,5.0622,5.0035,4.9583,4.8794,4.7888,4.7011,4.6709,4.6332,4.5655,4.613,4.6495,4.6293,4.7028,4.7635,4.784,4.8064,4.7819,0.0,0.0,4.7392,4.8924,4.9858,5.2203,5.6261,5.7905,6.0364,6.3865,6.4172,6.5033,6.6522,6.6666,6.6767,6.6783,6.6732,6.6702,6.6708,6.6633,6.662,6.6646,6.7471,6.7674,6.7503,6.7575,6.7464,6.7271,6.729,6.7871,6.8781,5.7726,5.7315,5.7057,5.7,5.6651,5.662,5.743,5.8285,5.9167,6.0021,6.0875,6.1366,6.1322,6.1291,6.1281,6.1229,6.1208,6.1264,6.1191,6.0854,6.0422,6.008,5.9205,5.8402,5.7692,5.7614,5.7416,5.7095,5.6263,5.584,5.5879,5.6263,5.671,5.7186,5.8436,5.9522,6.0448,6.0838,6.1264,6.1697,6.1716,6.167,6.1615,6.1556,6.1528,6.1226,5.9577,5.8927,5.8665,5.7,5.7034,5.7719,5.7329,5.746,5.764,5.6787,5.6567,5.6618,5.6582,5.6597,5.6601,5.6601,5.5739,5.4713,5.4083,5.3451,5.2823,5.2287,5.1716,5.121,5.0773,4.998,4.9107,4.8244,4.744,4.7033,4.7333,4.715,4.7234,4.8008,4.885,4.9567,4.9961,5.0347,5.0186,4.9245,4.9256,0.0,4.9901,5.2294,5.471,5.6922,5.8702,6.1112,6.4236,6.5039,6.5907,6.6784,6.6736,6.672,6.6767,6.6722,6.6691,6.6708,6.6633,6.6581,6.6698,6.7889,6.8171,6.7845,6.8541,6.8605,6.8199,6.7888,6.8431,6.9439,5.9022,5.8295,5.7692,5.7663,5.692,5.6589,5.756,5.8337,5.9138,6.0158,6.091,6.1352,6.1322,6.1275,6.1264,6.1173,6.1173,6.1155,6.1118,6.1155,6.0898,6.0195,6.0119,5.9413,5.7998,5.8647,5.8646,5.7961,5.7198,5.6854,5.6886,5.7635,5.8055,5.827,5.9724,6.0468,6.0621,6.1406,6.1718,6.1717,6.1707,6.1666,6.1607,6.152,6.1479,6.1214,5.9529,5.888,5.8643,5.6962,5.7078,5.7814,5.6956,5.729,5.7824,5.6971,5.6631,5.6602,5.6606,5.6591,5.6601,5.6601,5.5859,5.5156,5.5151,5.5026,5.4626,5.3572,5.312,5.2617,5.1758,5.1008,5.009,4.8837,4.7572,4.7167,4.8265,0.0,4.7455,4.9016,4.9965,5.0793,5.1577,5.2316,5.2819,5.3014,5.3069,5.2812,5.2207,5.5035,5.7141,5.8087,5.974,6.1849,6.447,6.6028,6.6791,6.6811,6.6728,6.6702,6.6711,6.6702,6.6708,6.6708,6.6633,6.6659,6.6932,6.8448,6.8744,6.8302,6.9739,6.986,6.9123,6.8541,6.9007,6.9998,5.9124,5.8265,5.7597,5.7636,5.6848,5.6756,5.8348,5.8668,5.9274,6.0895,6.1213,6.1314,6.1314,6.1264,6.1173,6.1137,6.1118,6.1118,6.1118,6.1155,6.1152,6.0997,6.0351,5.991,5.971,5.9176,5.886,5.8743,5.8597,5.8579,5.8607,5.8757,5.9228,6.0007,6.0295,6.0811,6.1518,6.1633,6.1704,6.169,6.1654,6.1612,6.1607,6.1518,6.1484,6.1277,5.9542,5.888,5.8643,5.6962,5.7488,5.8666,5.7788,5.8126,5.8648,5.7829,5.7076,5.6514,5.6563,5.6582,5.6597,5.6601,5.6484,5.6328,5.6328,5.5585,5.4843,5.4648,5.4179,5.3516,5.2656,5.238,5.1313,4.8291,4.8747,4.8821,4.696,0.0,4.9874,5.0889,5.1757,5.2436,5.2802,5.2953,5.3455,5.4381,5.3626,5.3844,5.5613,5.6907,5.8325,5.9924,6.0978,6.2744,6.5387,6.6349,6.6783,6.6811,6.6711,6.6693,6.6711,6.6702,6.6708,6.6708,6.6633,6.701,6.7775,6.872,6.9414,6.9927,7.0188,7.0192,7.0001,6.9959,7.0054,7.0365,6.0417,5.9254,5.8285,5.826,5.7521,5.731,5.8506,5.9087,5.9824,6.1103,6.1275,6.1275,6.1264,6.1264,6.1191,6.1041,6.1041,6.1041,6.1041,6.1118,6.1155,6.1191,6.0859,6.0693,6.0784,5.9529,5.9149,5.9588,5.9121,5.8937,5.9007,5.9464,5.9935,6.0405,6.09,6.1303,6.1694,6.1694,6.169,6.1676,6.1641,6.1595,6.1539,6.1484,6.1421,6.1186,5.9452,5.8843,5.8674,5.7497,5.7634,5.8228,5.7818,5.8,5.8172,5.7354,5.7154,5.7104,5.6723,5.6926,5.7207,5.6708,5.6599,5.6601,5.6595,5.6209,5.582,5.5818,5.5234,5.4531,5.3984,5.3631,5.2878,5.1301,5.0902,5.0707,5.0477,5.0633,5.1176,5.2186,5.2975,5.3569,5.4044,5.421,5.4484,5.5044,5.504,5.5421,5.6509,5.8085,5.9646,6.1062,6.2393,6.3906,6.5541,6.6393,6.6767,6.6744,6.6693,6.6712,6.6712,6.6669,6.6633,6.6659,6.6607,6.7061,6.7917,6.8744,6.957,7.0354,7.0843,7.1003,7.095,7.1003,7.0982,7.1059,6.1499,6.0229,5.9154,5.9075,5.8333,5.8017,5.8767,5.9503,6.0295,6.1131,6.1259,6.1275,6.1208,6.1281,6.1208,6.1022,6.1002,6.1002,6.1002,6.1041,6.1118,6.1173,6.1173,6.1242,6.1337,6.0099,5.9801,6.046,5.9787,5.9527,5.9599,6.0253,6.0603,6.0715,6.1381,6.1671,6.1715,6.1715,6.1715,6.1671,6.1595,6.1539,6.1479,6.1408,6.1366,6.1136,5.9643,5.9088,5.8998,5.7992,5.7819,5.7907,5.7498,5.7719,5.7892,5.7034,5.7538,5.8158,5.7148,5.7504,5.8011,5.7348,5.7176,5.7184,5.72,5.7057,5.6912,5.6909,5.6207,5.5467,5.5078,5.4607,5.4091,5.3487,0.0,5.2323,5.3263,5.2599,5.2401,5.3487,5.4033,5.4662,5.5606,5.5896,5.6013,5.5989,5.6848,5.7356,5.7196,5.9244,6.1076,6.2574,6.3707,6.4795,6.5808,6.6455,6.6759,6.6711,6.6683,6.6702,6.6708,6.6633,6.6607,6.6606,6.6606,6.7189,6.8147,6.8808,6.9671,7.0649,7.1309,7.1603,7.1568,7.1581,7.1598,7.1581,6.1419,6.0653,5.9987,5.9917,5.9133,5.8789,5.968,5.9878,6.0226,6.1164,6.1297,6.1297,6.1297,6.1297,6.1208,6.1022,6.1002,6.1002,6.1002,6.1002,6.1041,6.1079,6.1155,6.1191,6.1208,6.1136,6.1143,6.1221,6.1211,6.1266,6.1328,6.1367,6.1461,6.1526,6.1588,6.1648,6.1699,6.1699,6.1699,6.1693,6.1539,6.1479,6.1472,6.1366,6.1352,6.125,6.0318,6.0034,5.984,5.8165,5.8137,5.8537,5.7011,5.7614,5.8724,5.7875,5.8788,5.9747,5.8158,5.8363,5.8987,5.8909,5.8921,5.8928,5.8987,5.8363,5.7793,5.7811,5.7101,5.6231,5.5429,5.5234,5.4412,5.1999,0.0,0.0,5.1796,5.2887,5.4128,5.5013,5.5166,5.596,5.7851,5.8086,5.8085,5.8077,5.9131,5.9517,5.9031,6.0649,6.273,6.5234,6.4648,6.5068,6.6705,6.6783,6.6767,6.6711,6.6683,6.6702,6.6708,6.6633,6.6607,6.6606,6.6606,6.7525,6.8995,6.8995,6.9972,7.1413,7.149,7.1529,7.149,7.1581,7.1598,7.1598,6.1345,6.0631,6.0018,5.9946,5.9658,5.9508,5.9839,6.0324,6.0788,6.1208,6.1281,6.1281,6.1264,6.1247,6.1155,6.1,6.0959,6.0938,6.0938,6.098,6.1021,6.1118,6.1137,6.1155,6.1191,6.1225,6.1275,6.1313,6.1352,6.1381,6.1421,6.1472,6.1518,6.1586,6.1603,6.1627,6.1648,6.1648,6.1648,6.1641,6.1586,6.1518,6.1447,6.1352,6.1291,6.1181,6.0321,6.008,6.0046,5.9413,5.9075,5.8892,5.881,5.887,5.8939,5.8585,5.9373,6.0169,5.958,5.9631,5.9797,5.9261,5.9117,5.912,5.9143,5.8866,5.864,5.8655,5.7991,5.7291,5.6907,5.6442,5.5781,5.4801,0.0,5.5386,5.4726,5.5193,5.6009,5.7026,5.6992,5.7578,5.9215,5.902,5.8787,5.8788,5.9258,5.9646,5.9917,6.156,6.3476,6.5531,6.5297,6.5668,6.6767,6.6814,6.6767,6.6683,6.6702,6.6669,6.6645,6.6607,6.6567,6.6538,6.6538,6.7301,6.8552,6.8924,7.0054,7.1474,7.155,7.155,7.1493,7.1564,7.1614,7.1669,6.1281,6.0816,6.0356,6.0265,6.0247,6.0247,6.0268,6.0713,6.1099,6.1173,6.1247,6.1264,6.1208,6.1247,6.1175,6.0997,6.0955,6.0933,6.0911,6.0938,6.1021,6.1118,6.1118,6.1137,6.1155,6.1173,6.1225,6.1283,6.1283,6.1327,6.1408,6.1472,6.1557,6.1607,6.1595,6.1612,6.1588,6.1588,6.1588,6.158,6.1559,6.1495,6.1369,6.1337,6.1259,6.1169,6.0599,6.0437,6.0429,6.0229,5.9789,5.9322,5.967,5.9627,5.9464,5.9698,6.0222,6.0737,6.0754,6.0769,6.0639,6.0076,5.9929,5.9933,5.9924,5.9685,5.949,5.9495,5.884,5.8261,5.8222,5.7757,5.7374,5.7378,5.7226,5.7187,5.7343,5.7254,5.7469,5.8436,5.8254,5.8577,5.9983,5.9514,5.9202,5.9475,5.9798,6.0466,6.1562,6.3006,6.4482,6.595,6.598,6.6388,6.7196,6.7204,6.7032,6.6702,6.6953,6.6918,6.6607,6.662,6.6708,6.6897,6.7014,6.7736,6.8885,6.9278,7.0252,7.1455,7.1513,7.1513,7.1532,7.1547,7.1614,7.1684,6.1191,6.1191,6.1155,6.1022,6.1002,6.0982,6.0997,6.0997,6.1059,6.1173,6.1191,6.1208,6.1297,6.1297,6.1229,6.1018,6.0997,6.0976,6.0911,6.0941,6.1022,6.1118,6.1118,6.1118,6.1118,6.1155,6.1191,6.1191,6.1275,6.1327,6.1396,6.1472,6.1518,6.1607,6.1595,6.1603,6.1603,6.1603,6.1603,6.1595,6.1445,6.1421,6.1381,6.133,6.1297,6.1314,6.1306,6.1283,6.1167,6.0395,6.0099,5.9982,5.9167,5.9565,6.0477,6.1256,6.1549,6.1607,6.1607,6.1586,6.1619,6.1671,6.171,6.1705,6.1715,6.1017,6.0393,6.0427,5.9714,5.9117,5.91,5.9104,5.9104,5.9104,5.8652,5.8504,5.9012,5.8621,5.8499,5.9026,5.8631,5.8866,6.0271,5.9646,5.949,6.0349,6.1213,6.2443,6.4218,6.5141,6.5985,6.6865,6.6848,6.7208,6.8109,6.8109,6.7647,6.6708,6.7525,6.745,6.6606,6.6606,6.7058,6.7829,6.8101,6.9018,7.0287,7.0233,7.068,7.1417,7.1319,7.1397,7.149,7.149,7.1581,7.1699,6.1155,6.1137,6.1137,6.106,6.1022,6.1002,6.0982,6.098,6.1018,6.1041,6.1041,6.1099,6.1155,6.1099,6.1021,6.0997,6.0911,6.0888,6.0911,6.0976,6.1,6.1022,6.106,6.1118,6.1118,6.1137,6.1155,6.1191,6.1208,6.1291,6.1394,6.1434,6.1484,6.1539,6.151,6.152,6.151,6.1528,6.1518,6.1518,6.1421,6.1408,6.1381,6.1322,6.1306,6.1306,6.1322,6.1337,6.1327,6.1109,6.1031,6.0953,6.0722,6.0864,6.1122,6.1401,6.15,6.1549,6.1607,6.1616,6.1586,6.1619,6.1634,6.1648,6.1648,6.1465,6.1314,6.1264,6.06,6.0021,6.0026,5.9519,5.909,5.9084,5.8973,5.8788,5.8562,5.8709,5.9095,5.9646,5.9768,6.0432,6.2071,6.1447,6.1291,6.2149,6.1915,6.2716,6.5078,6.5227,6.5759,6.6887,6.6829,6.7234,6.8109,6.7485,6.7296,6.7525,6.7151,6.6854,6.6606,6.716,6.7573,6.7868,6.8917,6.96,7.0016,7.0678,7.1087,7.1319,7.1337,7.1416,7.1513,7.1511,7.1542,7.1622,6.1118,6.106,6.1041,6.106,6.1021,6.0941,6.092,6.0916,6.0916,6.0962,6.0962,6.0982,6.1041,6.0982,6.0941,6.0955,6.0866,6.0843,6.0911,6.0955,6.0997,6.1,6.108,6.1118,6.1118,6.1427,6.1485,6.1155,6.1539,6.1569,6.1352,6.1369,6.1433,6.1489,6.1518,6.1479,6.1489,6.1495,6.1484,6.1472,6.1369,6.1313,6.1322,6.1291,6.1275,6.1275,6.1322,6.1352,6.1352,6.1366,6.1419,6.1419,6.1408,6.1383,6.1408,6.1495,6.1518,6.1518,6.1549,6.1559,6.1559,6.1568,6.1564,6.1588,6.1595,6.1641,6.1648,6.1602,6.1212,6.0861,6.0867,6.0444,6.0087,6.0087,6.0087,5.9976,5.967,5.9898,6.0255,6.0617,6.1208,6.1954,6.2891,6.3438,6.375,6.3828,6.3164,6.3568,6.55,6.5726,6.6106,6.6823,6.7162,6.7734,6.8561,6.7695,6.7501,6.7903,6.771,6.7397,6.7082,6.7689,6.8257,6.8839,7.0044,7.0516,7.0523,7.1144,7.1378,7.1337,7.1396,7.1475,7.1493,7.1511,7.1542,7.1622,6.1118,6.1041,6.0982,6.1018,6.0955,6.0888,6.0843,6.0781,6.0827,6.0877,6.0899,6.092,6.0982,6.0982,6.0941,6.0911,6.0804,6.0804,6.0911,6.0971,6.0993,6.0976,6.1041,6.1099,6.1079,6.1969,6.2008,6.1234,6.206,6.2128,6.1399,6.1394,6.1421,6.1479,6.1495,6.1495,6.1479,6.1484,6.1472,6.146,6.1283,6.1181,6.122,6.1208,6.1191,6.1208,6.1361,6.1352,6.1322,6.1366,6.1419,6.1419,6.1419,6.1408,6.1396,6.1472,6.1484,6.1484,6.1518,6.1489,6.1489,6.1489,6.1559,6.1603,6.1588,6.1588,6.1588,6.1588,6.1612,6.1612,6.1588,6.1595,6.1595,6.1595,6.1609,6.1609,6.1595,6.1726,6.181,6.1855,6.2803,6.3394,6.3243,6.5312,6.6249,6.5234,6.4648,6.4765,6.5663,6.6405,6.6784,6.6805,6.7624,6.8429,6.9167,6.8398,6.8043,6.8138,6.8734,6.8613,6.7946,6.8241,6.9095,7.0354,7.1225,7.1547,7.1494,7.1571,7.1494,7.1415,7.1475,7.1474,7.149,7.149,7.1542,7.1606,6.1118,6.1041,6.1002,6.0982,6.0938,6.0911,6.0888,6.0804,6.0804,6.0827,6.0827,6.085,6.0894,6.0872,6.0827,6.0804,6.0757,6.0757,6.0911,6.0911,6.0911,6.0933,6.0997,6.1021,6.1022,6.195,6.2317,6.2124,6.2336,6.2352,6.2244,6.1594,6.1356,6.1421,6.1408,6.1408,6.1421,6.1421,6.1433,6.1433,6.1259,6.1242,6.1252,6.1134,6.1173,6.1281,6.1314,6.1306,6.1322,6.1366,6.1419,6.1419,6.1419,6.1381,6.1394,6.1434,6.1408,6.1408,6.1484,6.1495,6.1495,6.1495,6.1507,6.1528,6.1578,6.1586,6.1586,6.1586,6.1595,6.1603,6.1612,6.1612,6.1612,6.1612,6.1612,6.1612,6.1612,6.2196,6.2758,6.2987,6.3605,6.4262,6.4899,6.5451,6.5691,6.5507,6.5155,6.539,6.6483,6.6706,6.6811,6.6805,6.7594,6.8124,6.8271,6.8043,6.8579,6.9928,6.8695,6.8341,6.8839,6.9539,7.0005,7.0354,7.1209,7.1547,7.1494,7.1494,7.1475,7.1415,7.1435,7.1455,7.149,7.149,7.1525,7.1614,6.1041,6.1041,6.1,6.1,6.0916,6.0888,6.0911,6.0888,6.0866,6.0866,6.0866,6.0866,6.0866,6.0781,6.0757,6.0781,6.0734,6.0734,6.0911,6.0888,6.0904,6.0866,6.0933,6.0976,6.0959,6.2277,6.2607,6.1776,6.2607,6.2644,6.1884,6.1485,6.1352,6.1408,6.1408,6.1421,6.1396,6.1394,6.1419,6.1405,6.1225,6.1191,6.1242,6.1098,6.1137,6.1208,6.1281,6.1314,6.1291,6.1361,6.1337,6.1352,6.1352,6.1366,6.1381,6.1383,6.1383,6.1421,6.1447,6.146,6.146,6.146,6.146,6.1484,6.1539,6.1539,6.1539,6.1549,6.1559,6.1529,6.1529,6.1586,6.1595,6.1586,6.1946,6.2219,6.221,6.296,6.36,6.3741,6.4404,6.5145,6.6057,6.5751,6.5679,6.6148,6.5608,6.573,6.6745,6.6811,6.6798,6.6791,6.7586,6.7989,6.7959,6.8331,6.9175,7.0445,6.908,6.8855,6.9694,7.0549,7.0937,7.0937,7.1403,7.1547,7.1494,7.155,7.1513,7.1455,7.1474,7.1511,7.1564,7.1564,7.1581,7.1659,6.0982,6.098,6.0976,6.0976,6.0911,6.0804,6.0888,6.0911,6.0911,6.0888,6.0888,6.0866,6.0781,6.0863,6.0916,6.1012,6.108,6.1195,6.1334,6.1174,6.1089,6.1012,6.1004,6.0949,6.0888,6.2656,6.2818,6.1292,6.2897,6.2915,6.1423,6.1352,6.1337,6.1366,6.1366,6.1394,6.1383,6.1394,6.1366,6.1352,6.1208,6.1173,6.1191,6.106,6.1041,6.1137,6.1247,6.1281,6.1297,6.1297,6.1291,6.1306,6.1322,6.1337,6.1381,6.1408,6.1408,6.1381,6.1421,6.1383,6.1383,6.1383,6.1383,6.1408,6.1468,6.1495,6.1484,6.1518,6.1489,6.1489,6.1489,6.1685,6.182,6.1802,6.2552,6.3107,6.3078,6.3838,6.4402,6.4402,6.516,6.5987,6.6697,6.6127,6.6017,6.6744,6.6135,6.6024,6.6772,6.6791,6.6861,6.7017,6.7647,6.7959,6.7915,6.8735,6.9512,7.0183,6.9593,6.9733,7.0549,7.1287,7.1598,7.1598,7.1598,7.1547,7.1494,7.1547,7.1568,7.1494,7.1547,7.1598,7.1598,7.1598,7.1598,7.1814,6.0997,6.0955,6.0911,6.0911,6.0911,6.0888,6.0804,6.0866,6.0888,6.0804,6.0804,6.0781,6.071,6.1237,6.1684,6.1928,6.2477,6.29,6.3136,6.239,6.1935,6.1935,6.1204,6.0843,6.092,6.256,6.2998,6.2143,6.3187,6.3245,6.2314,6.163,6.1291,6.1322,6.1366,6.1366,6.1337,6.1366,6.1352,6.1322,6.122,6.1242,6.1281,6.1137,6.1079,6.1118,6.1137,6.1155,6.1208,6.1281,6.1297,6.1314,6.1306,6.1322,6.1337,6.1366,6.1419,6.1419,6.1381,6.1381,6.1381,6.1381,6.1381,6.1394,6.1396,6.1408,6.1408,6.1484,6.1484,6.1495,6.1489,6.2123,6.2629,6.2619,6.339,6.3935,6.3881,6.4632,6.5239,6.5239,6.6,6.6576,6.6711,6.6603,6.6611,6.6783,6.6705,6.6681,6.6772,6.6736,6.7071,6.7914,6.793,6.7926,6.7915,6.8708,6.9172,6.9289,6.9865,7.0588,7.1442,7.1559,7.1598,7.1598,7.1598,7.1547,7.1494,7.155,7.155,7.1494,7.155,7.1603,7.1598,7.1598,7.1598,7.2064,6.0933,6.0911,6.0827,6.0827,6.0804,6.0781,6.0866,6.0866,6.0866,6.0911,6.0866,6.0781,6.0757,6.1428,6.2094,6.2642,6.299,6.3245,6.3438,6.3022,6.2551,6.2127,6.1743,6.132,6.0858,6.2059,6.232,6.1537,6.2934,6.3013,6.1772,6.1402,6.1242,6.1291,6.1322,6.1337,6.1283,6.1337,6.1322,6.1252,6.1203,6.1225,6.1208,6.1137,6.1137,6.1155,6.1118,6.1137,6.1155,6.1173,6.1208,6.1264,6.1275,6.1306,6.1322,6.1337,6.1352,6.1337,6.1361,6.1322,6.1352,6.1352,6.1366,6.1381,6.1394,6.1408,6.1408,6.1447,6.146,6.1576,6.2094,6.2507,6.2947,6.3464,6.4265,6.481,6.4777,6.5567,6.6124,6.6124,6.6485,6.6702,6.6683,6.6702,6.6711,6.6741,6.6759,6.6728,6.6736,6.6711,6.7121,6.8028,6.752,6.7669,6.8553,6.8914,6.9337,6.9756,7.0626,7.1209,7.1598,7.1598,7.1598,7.1598,7.1598,7.1547,7.1494,7.1568,7.1568,7.1494,7.1586,7.1581,7.1598,7.1598,7.1986,7.2785]},{"header":{"parameterUnit":"m.s-1","parameterCategory":1,"la1":30.6,"la2":28.766,"lo1":-90.7593,"lo2":-88.6598,"dy":0.0162,"dx":0.0183,"nx":116,"ny":114,"refTime":"2024-02-17T18:00:00:Z","depth":0,"parameterNumber":3,"parameterNumberName":"V-component_of_WINDS"},"data":[0.0,0.0,0.0,0.0,0.0,0.0,0.0,0.0,0.0,0.0,0.0,0.0,0.0,0.0,0.0,0.0,0.0,0.0,0.0,0.0,0.0,0.0,0.0,0.0,0.0,0.0,0.0,0.0,0.0,0.0,0.0,0.0,0.0,0.0,0.0,0.0,0.0,0.0,0.0,0.0,0.0,0.0,0.0,0.0,0.0,0.0,0.0,0.0,0.0,0.0,0.0,0.0,0.0,0.0,0.0,0.0,0.0,0.0,0.0,0.0,0.0,0.0,0.0,0.0,0.0,0.0,0.0,0.0,0.0,0.0,0.0,0.0,0.0,0.0,0.0,0.0,0.0,0.0,0.0,0.0,0.0,0.0,0.0,0.0,0.0,0.0,0.0,0.0,0.0,0.0,0.0,0.0,0.0,0.0,0.0,0.0,0.0,0.0,0.0,0.0,0.0,0.0,0.0,0.0,0.0,0.0,0.0,0.0,0.0,0.0,0.0,0.0,0.0,0.0,0.0,0.0,0.0,0.0,0.0,0.0,0.0,0.0,0.0,0.0,0.0,0.0,0.0,0.0,0.0,0.0,0.0,0.0,0.0,0.0,0.0,0.0,0.0,0.0,0.0,0.0,0.0,0.0,0.0,0.0,0.0,0.0,0.0,0.0,0.0,0.0,0.0,0.0,0.0,0.0,0.0,0.0,0.0,0.0,0.0,0.0,0.0,0.0,0.0,0.0,0.0,0.0,0.0,0.0,0.0,0.0,0.0,0.0,0.0,0.0,0.0,0.0,0.0,0.0,0.0,0.0,0.0,0.0,0.0,0.0,0.0,0.0,0.0,0.0,0.0,0.0,0.0,0.0,0.0,0.0,0.0,0.0,0.0,0.0,0.0,0.0,0.0,0.0,0.0,0.0,0.0,0.0,0.0,0.0,0.0,0.0,0.0,0.0,0.0,0.0,0.0,0.0,0.0,0.0,0.0,0.0,0.0,0.0,0.0,0.0,0.0,0.0,0.0,0.0,0.0,0.0,0.0,0.0,0.0,0.0,0.0,0.0,0.0,0.0,0.0,0.0,0.0,0.0,0.0,0.0,0.0,0.0,0.0,0.0,0.0,0.0,0.0,0.0,0.0,0.0,0.0,0.0,0.0,0.0,0.0,0.0,0.0,0.0,0.0,0.0,0.0,0.0,0.0,0.0,0.0,0.0,0.0,0.0,0.0,0.0,0.0,0.0,0.0,0.0,0.0,0.0,0.0,0.0,0.0,0.0,0.0,0.0,0.0,0.0,0.0,0.0,0.0,0.0,0.0,0.0,0.0,0.0,0.0,0.0,0.0,0.0,0.0,0.0,0.0,0.0,0.0,0.0,0.0,0.0,0.0,0.0,0.0,0.0,0.0,0.0,0.0,0.0,0.0,0.0,0.0,0.0,0.0,0.0,0.0,0.0,0.0,0.0,0.0,0.0,0.0,0.0,0.0,0.0,0.0,0.0,0.0,0.0,0.0,0.0,0.0,0.0,0.0,0.0,0.0,0.0,0.0,0.0,0.0,0.0,0.0,0.0,0.0,0.0,0.0,0.0,0.0,0.0,0.0,0.0,0.0,0.0,0.0,0.0,0.0,0.0,0.0,0.0,0.0,0.0,0.0,0.0,0.0,0.0,0.0,0.0,0.0,0.0,0.0,0.0,0.0,0.0,0.0,0.0,0.0,0.0,0.0,0.0,0.0,0.0,0.0,0.0,0.0,0.0,0.0,0.0,0.0,0.0,0.0,0.0,0.0,0.0,0.0,0.0,0.0,0.0,0.0,0.0,0.0,0.0,0.0,0.0,0.0,0.0,0.0,0.0,0.0,0.0,0.0,0.0,0.0,0.0,0.0,0.0,0.0,0.0,0.0,0.0,0.0,0.0,0.0,0.0,0.0,0.0,0.0,0.0,0.0,0.0,0.0,0.0,0.0,0.0,0.0,0.0,0.0,0.0,0.0,0.0,0.0,0.0,0.0,0.0,0.0,0.0,0.0,0.0,0.0,0.0,0.0,0.0,0.0,0.0,0.0,0.0,0.0,0.0,0.0,0.0,0.0,0.0,0.0,0.0,0.0,0.0,0.0,0.0,0.0,0.0,0.0,0.0,0.0,0.0,0.0,0.0,0.0,0.0,0.0,0.0,0.0,0.0,0.0,0.0,0.0,0.0,0.0,0.0,0.0,0.0,0.0,0.0,0.0,0.0,0.0,0.0,0.0,0.0,0.0,0.0,0.0,0.0,0.0,0.0,0.0,0.0,0.0,0.0,0.0,0.0,0.0,0.0,0.0,0.0,0.0,0.0,0.0,0.0,0.0,0.0,0.0,0.0,0.0,0.0,0.0,0.0,0.0,0.0,0.0,0.0,0.0,0.0,0.0,0.0,0.0,0.0,0.0,0.0,0.0,0.0,0.0,0.0,0.0,0.0,0.0,0.0,0.0,0.0,0.0,0.0,0.0,0.0,0.0,0.0,0.0,0.0,0.0,0.0,0.0,0.0,0.0,0.0,0.0,0.0,0.0,0.0,0.0,0.0,0.0,0.0,0.0,0.0,0.0,0.0,0.0,0.0,0.0,0.0,0.0,0.0,0.0,0.0,0.0,0.0,0.0,0.0,0.0,0.0,0.0,0.0,0.0,0.0,0.0,0.0,0.0,0.0,0.0,0.0,0.0,0.0,0.0,0.0,0.0,0.0,0.0,0.0,0.0,0.0,0.0,0.0,0.0,0.0,0.0,0.0,0.0,0.0,0.0,0.0,0.0,0.0,0.0,0.0,0.0,0.0,0.0,0.0,0.0,0.0,0.0,0.0,0.0,0.0,0.0,0.0,0.0,0.0,0.0,0.0,0.0,0.0,0.0,0.0,0.0,0.0,0.0,0.0,0.0,0.0,0.0,0.0,0.0,0.0,0.0,0.0,0.0,0.0,0.0,0.0,0.0,0.0,0.0,0.0,0.0,0.0,0.0,0.0,0.0,0.0,0.0,0.0,0.0,0.0,0.0,0.0,0.0,0.0,0.0,0.0,0.0,0.0,0.0,0.0,0.0,0.0,0.0,0.0,0.0,0.0,0.0,0.0,0.0,0.0,0.0,0.0,0.0,0.0,0.0,0.0,0.0,0.0,0.0,0.0,0.0,0.0,0.0,0.0,0.0,0.0,0.0,0.0,0.0,0.0,0.0,0.0,0.0,0.0,0.0,0.0,0.0,0.0,0.0,0.0,0.0,0.0,0.0,0.0,0.0,0.0,0.0,0.0,0.0,0.0,0.0,0.0,0.0,0.0,0.0,0.0,0.0,0.0,0.0,0.0,0.0,0.0,0.0,0.0,0.0,0.0,0.0,0.0,0.0,0.0,0.0,0.0,0.0,0.0,0.0,0.0,0.0,0.0,0.0,0.0,0.0,0.0,0.0,0.0,0.0,0.0,0.0,0.0,0.0,0.0,0.0,0.0,0.0,0.0,0.0,0.0,0.0,0.0,0.0,0.0,0.0,0.0,0.0,0.0,0.0,0.0,0.0,0.0,0.0,0.0,0.0,0.0,0.0,0.0,0.0,0.0,0.0,0.0,0.0,0.0,0.0,0.0,0.0,0.0,0.0,0.0,0.0,0.0,0.0,0.0,0.0,0.0,0.0,0.0,0.0,0.0,0.0,0.0,0.0,0.0,0.0,0.0,0.0,0.0,0.0,0.0,0.0,0.0,0.0,0.0,0.0,0.0,0.0,0.0,0.0,0.0,0.0,0.0,0.0,0.0,0.0,0.0,0.0,0.0,0.0,0.0,0.0,0.0,0.0,0.0,0.0,0.0,0.0,0.0,0.0,0.0,0.0,0.0,0.0,0.0,0.0,0.0,0.0,0.0,0.0,0.0,0.0,0.0,0.0,0.0,0.0,0.0,0.0,0.0,0.0,0.0,0.0,0.0,0.0,0.0,0.0,0.0,0.0,0.0,0.0,0.0,0.0,0.0,0.0,0.0,0.0,0.0,0.0,0.0,0.0,0.0,0.0,0.0,0.0,0.0,0.0,0.0,0.0,0.0,0.0,0.0,0.0,0.0,0.0,0.0,0.0,0.0,0.0,0.0,0.0,0.0,0.0,0.0,0.0,0.0,0.0,0.0,0.0,0.0,0.0,0.0,0.0,0.0,0.0,0.0,0.0,0.0,0.0,0.0,0.0,0.0,0.0,0.0,0.0,0.0,0.0,0.0,0.0,0.0,0.0,0.0,0.0,0.0,0.0,0.0,0.0,0.0,0.0,0.0,0.0,0.0,0.0,0.0,0.0,0.0,0.0,0.0,0.0,0.0,0.0,0.0,0.0,0.0,0.0,0.0,0.0,0.0,0.0,0.0,0.0,0.0,0.0,0.0,0.0,0.0,0.0,0.0,0.0,0.0,0.0,0.0,0.0,0.0,0.0,0.0,0.0,0.0,0.0,0.0,0.0,0.0,0.0,0.0,0.0,0.0,0.0,0.0,0.0,0.0,0.0,0.0,0.0,0.0,0.0,0.0,0.0,0.0,0.0,0.0,0.0,0.0,0.0,0.0,0.0,0.0,0.0,0.0,0.0,0.0,0.0,0.0,0.0,0.0,0.0,0.0,0.0,0.0,0.0,0.0,0.0,0.0,0.0,0.0,0.0,0.0,0.0,0.0,0.0,0.0,0.0,0.0,0.0,0.0,0.0,0.0,0.0,0.0,0.0,0.0,0.0,0.0,0.0,0.0,0.0,0.0,0.0,0.0,0.0,0.0,0.0,0.0,0.0,0.0,0.0,0.0,0.0,0.0,0.0,0.0,0.0,0.0,0.0,0.0,0.0,0.0,0.0,0.0,0.0,0.0,0.0,0.0,0.0,0.0,0.0,0.0,0.0,0.0,0.0,0.0,0.0,0.0,0.0,0.0,0.0,0.0,0.0,0.0,0.0,0.0,0.0,0.0,0.0,0.0,0.0,0.0,0.0,0.0,0.0,0.0,0.0,0.0,0.0,0.0,0.0,0.0,0.0,0.0,0.0,0.0,0.0,0.0,0.0,0.0,0.0,0.0,0.0,0.0,0.0,0.0,0.0,0.0,0.0,0.0,0.0,0.0,0.0,0.0,0.0,0.0,0.0,0.0,0.0,0.0,0.0,0.0,0.0,0.0,0.0,0.0,0.0,0.0,0.0,0.0,0.0,0.0,0.0,0.0,0.0,0.0,0.0,0.0,0.0,0.0,0.0,0.0,0.0,0.0,0.0,0.0,0.0,0.0,0.0,0.0,0.0,0.0,0.0,0.0,0.0,0.0,0.0,0.0,0.0,0.0,0.0,0.0,0.0,0.0,0.0,0.0,0.0,0.0,0.0,0.0,0.0,0.0,0.0,0.0,0.0,0.0,0.0,0.0,0.0,0.0,0.0,0.0,0.0,0.0,0.0,0.0,0.0,0.0,0.0,0.0,0.0,0.0,0.0,0.0,0.0,0.0,0.0,0.0,0.0,0.0,0.0,0.0,0.0,0.0,0.0,0.0,0.0,0.0,0.0,0.0,0.0,0.0,0.0,0.0,0.0,0.0,0.0,0.0,0.0,0.0,0.0,0.0,0.0,0.0,0.0,0.0,0.0,0.0,0.0,0.0,0.0,0.0,0.0,0.0,0.0,0.0,0.0,0.0,0.0,0.0,0.0,0.0,0.0,0.0,0.0,0.0,0.0,0.0,0.0,0.0,0.0,0.0,0.0,0.0,0.0,0.0,0.0,0.0,0.0,0.0,0.0,0.0,0.0,0.0,0.0,0.0,0.0,0.0,0.0,0.0,0.0,0.0,0.0,0.0,0.0,0.0,0.0,0.0,0.0,0.0,0.0,0.0,0.0,0.0,0.0,0.0,0.0,0.0,0.0,0.0,0.0,0.0,0.0,0.0,0.0,0.0,0.0,0.0,0.0,0.0,0.0,0.0,0.0,0.0,0.0,0.0,0.0,0.0,0.0,0.0,0.0,0.0,0.0,0.0,0.0,0.0,0.0,0.0,0.0,0.0,0.0,0.0,0.0,0.0,0.0,0.0,0.0,0.0,0.0,0.0,0.0,0.0,0.0,0.0,0.0,0.0,0.0,0.0,0.0,0.0,0.0,0.0,0.0,0.0,-0.1545,-0.1405,0.0,0.0,0.0,0.0,0.0,0.0,0.0,0.0,0.0,0.0,0.0,0.0,0.0,0.0,0.0,0.0,0.0,0.0,0.0,0.0,0.0,0.0,0.0,0.0,0.0,0.0,0.0,0.0,0.0,0.0,0.0,0.0,0.0,0.0,-0.1543,-0.156,-0.154,-0.1575,-0.1373,-0.1297,-0.1317,-0.0739,-0.0744,-0.1206,0.0,0.0,0.0,0.0,0.0,0.0,0.0,0.0,0.0,0.0,0.0,0.0,0.0,0.0,0.0,0.0,0.0,0.0,0.0,0.0,0.0,0.0,0.0,0.0,0.0,0.0,0.0,0.0,0.0,0.0,0.0,0.0,0.0,0.0,0.0,0.0,0.0,0.0,0.0,0.0,0.0,0.0,0.0,0.0,0.0,0.0,0.0,0.0,0.0,0.0,0.0,0.0,0.0,0.0,0.0,0.0,0.0,0.0,0.0,0.0,0.0,0.0,0.0,0.0,0.0,0.0,0.0,0.0,0.0,0.0,-0.1426,-0.1072,0.0,0.0,0.0,0.0,0.0,0.0,0.0,0.0,0.0,0.0,0.0,0.0,0.0,0.0,0.0,0.0,0.0,0.0,0.0,0.0,0.0,0.0,0.0,-0.275,-0.2622,-0.2492,-0.2348,-0.2322,-0.2415,-0.2322,-0.2204,-0.2026,-0.2105,-0.1919,-0.1543,-0.1616,-0.1612,-0.1478,-0.1382,-0.1133,-0.0749,0.0077,0.0071,-0.0645,-0.0916,0.0,0.0,0.0,0.0,0.0,0.0,0.0,0.0,0.0,0.0,0.0,0.0,0.0,0.0,0.0,0.0,0.0,0.0,0.0,0.0,0.0,0.0,0.0,0.0,0.0,0.0,0.0,0.0,0.0,0.0,0.0,0.0,0.0,0.0,0.0,0.0,0.0,0.0,0.0,0.0,0.0,0.0,0.0,0.0,0.0,0.0,0.0,0.0,0.0,0.0,0.0,0.0,0.0,0.0,0.0,0.0,0.0,0.0,0.0,0.0,0.0,0.0,0.0,-0.2879,-0.2477,-0.2338,-0.1865,-0.1417,-0.1097,-0.0919,-0.0222,0.0741,0.1483,0.0,0.0,0.0,0.0,0.0,0.0,0.0,0.0,0.0,0.0,0.0,0.0,0.0,0.0,0.0,0.0,0.0,0.0,0.0,0.0,0.0,-0.2744,-0.2562,-0.2417,-0.2237,-0.2118,-0.2162,-0.2127,-0.2158,-0.2167,-0.1959,-0.1902,-0.1998,-0.1692,-0.1589,-0.1721,-0.1622,-0.094,0.0248,0.1186,0.1506,0.1198,0.0293,0.0,0.0,0.0,0.0,0.0,0.0,0.0,0.0,0.0,0.0,0.0,0.0,0.0,0.0,0.0,0.0,0.0,0.0,0.0,0.0,0.0,0.0,0.0,0.0,0.0,0.0,0.0,0.0,0.0,0.0,0.0,0.0,0.0,0.0,0.0,0.0,0.0,0.0,0.0,0.0,0.0,0.0,0.0,-0.4395,-0.4299,0.0,0.0,0.0,0.0,0.0,0.0,0.0,0.0,0.0,0.0,0.0,0.0,0.0,-0.4665,-0.4277,-0.3947,-0.3718,-0.3641,-0.2835,-0.2485,-0.243,-0.1761,-0.0884,0.0,0.0971,0.0,0.2726,0.1826,0.0,0.0,0.0,0.0,0.0,0.0,0.0,0.0,0.0,0.0,0.0,0.0,0.0,0.0,0.0,0.0,0.0,0.0,0.0,0.0,0.0,-0.2964,-0.2769,-0.2599,-0.2313,-0.2149,-0.2201,-0.2155,-0.2115,-0.2063,-0.2055,-0.1947,-0.1821,-0.1741,-0.1722,-0.1704,-0.0834,-0.0179,0.0286,0.1554,0.1953,0.1644,0.1213,0.0755,0.0352,0.0194,0.0,0.0,0.0,0.0,0.0,0.0,0.0,0.0,0.0,0.0,0.0,0.0,0.0,0.0,0.0,0.0,0.0,0.0,0.0,0.0,0.0,0.0,0.0,0.0,0.0,0.0,0.0,0.0,0.0,0.0,0.0,0.0,0.0,0.0,0.0,0.0,0.0,0.0,0.0,-0.4192,-0.4074,-0.3903,-0.388,-0.3821,0.0,0.0,0.0,0.0,0.0,0.0,0.0,0.0,0.0,-0.4899,-0.4706,-0.4494,-0.4285,-0.3636,-0.3433,-0.3509,-0.2677,-0.2045,-0.1457,-0.0833,-0.0104,0.0625,0.1666,0.2332,0.2599,0.187,0.159,0.1585,0.0,0.0,0.0,0.0,-0.0276,-0.0139,0.0,0.0,0.0,0.0,0.0,0.0,0.0,0.0,0.0,0.0,0.0,0.0,-0.3333,-0.3197,-0.3007,-0.2663,-0.2355,-0.2148,-0.2106,-0.205,-0.2035,-0.1954,-0.208,-0.1985,-0.1608,-0.1574,-0.1442,-0.1175,-0.0094,0.0597,0.0848,0.1942,0.2393,0.2067,0.2066,0.1674,0.0972,0.1034,0.097,0.0,0.0,0.0,0.0,0.0,0.0,0.0,0.0,0.0,0.0,0.0,0.0,0.0,0.0,0.0,0.0,0.0,0.0,0.0,0.0,0.0,0.0,0.0,0.0,0.0,0.0,0.0,0.0,0.0,0.0,0.0,0.0,0.0,0.0,0.0,0.0,0.0,0.0,-0.4144,-0.3936,-0.3639,-0.3655,-0.3625,0.0,0.0,0.0,0.0,0.0,0.0,-0.4974,-0.4938,-0.4888,-0.4821,-0.4498,-0.4338,-0.4284,-0.3469,-0.3058,-0.3011,-0.2007,-0.1183,-0.0437,0.0438,0.0986,0.1425,0.2189,0.2406,0.2281,0.1954,0.1761,0.1732,0.159,0.1279,0.1025,0.0481,0.008,-0.0,0.0,0.0,0.0,0.0,0.0,0.0,0.0,0.0,0.0,0.0,0.0,-0.3679,-0.3439,-0.3372,-0.3159,-0.2583,-0.2342,-0.2054,-0.1668,-0.1822,-0.1885,-0.1815,-0.1957,-0.1931,-0.1673,-0.1009,-0.0507,-0.0092,0.0507,0.1295,0.2349,0.2959,0.2979,0.2748,0.2976,0.2592,0.1547,0.2091,0.2048,0.1586,0.0,0.0,0.0,0.0,0.0,0.0,0.0,0.0,0.0,0.0,0.0,0.0,0.0,0.0,0.0,0.0,0.0,0.0,0.0,0.0,0.0,0.0,0.0,0.0,0.0,0.0,0.0,0.0,0.0,0.0,0.0,0.0,0.0,0.0,0.0,0.0,0.0,0.0,0.0,-0.3691,-0.3479,0.0,0.0,0.0,0.0,-0.4563,-0.4409,-0.4523,-0.4869,-0.4765,-0.4563,-0.4261,-0.4336,-0.4325,-0.4229,-0.3636,-0.2745,-0.1674,-0.0454,0.0115,0.0117,0.1877,0.2698,0.2581,0.293,0.2813,0.2331,0.2138,0.2019,0.1951,0.1619,0.1459,0.1395,0.1109,0.0932,0.0832,0.0,0.0,0.0,0.0,0.0,0.0,0.0,0.0,-0.3786,-0.3894,-0.3886,-0.3778,-0.3545,-0.328,-0.2965,-0.2585,-0.218,-0.1879,-0.1779,-0.1766,-0.1803,-0.18,-0.1918,-0.1823,-0.1477,-0.0848,0.0476,0.2525,0.2087,0.2266,0.301,0.3146,0.3153,0.2917,0.3151,0.2976,0.2421,0.2688,0.25,0.2104,0.1919,0.1642,0.0,0.0,0.0,0.0,0.0,0.0,0.0,0.0,0.0,0.0,0.0,0.0,0.0,0.0,0.0,0.0,0.0,0.0,0.0,0.0,0.0,0.0,0.0,0.0,0.0,0.0,0.0,0.0,0.0,0.0,0.0,0.0,0.0,0.0,0.0,0.0,0.0,-0.3626,-0.3534,0.0,-0.3271,-0.3849,-0.4169,-0.4188,-0.4657,-0.4798,-0.4451,-0.3662,-0.3378,-0.3758,-0.3368,-0.3002,-0.2576,-0.1778,-0.136,-0.1026,0.0348,0.1289,0.2003,0.271,0.3063,0.3063,0.318,0.3178,0.3056,0.2968,0.2448,0.1848,0.1902,0.1857,0.1624,0.1534,0.144,0.1658,0.0,0.0,0.0,0.0,0.0,0.0,0.0,0.0,-0.3899,-0.4207,-0.4053,-0.3882,-0.374,-0.3408,-0.2994,-0.2658,-0.2175,-0.1821,-0.1707,-0.1701,-0.1742,-0.1736,-0.1819,-0.1754,-0.14,-0.0662,0.0825,0.3056,0.2909,0.2962,0.3351,0.3507,0.3524,0.3279,0.3505,0.3365,0.3215,0.3291,0.2991,0.2553,0.2449,0.226,0.1948,0.0,0.0,0.0,0.0,0.0,0.0,0.0,0.0,0.0,0.0,0.0,0.0,0.0,0.0,0.0,0.0,0.0,0.0,0.0,0.0,0.0,0.0,0.0,0.0,0.0,0.0,0.0,0.0,0.0,0.0,0.0,0.0,0.0,0.0,-0.3958,-0.3645,-0.3374,-0.3197,-0.3105,-0.3016,-0.3549,-0.3846,-0.3926,-0.4395,-0.4461,-0.4068,-0.314,-0.2879,-0.3331,-0.265,-0.2018,-0.1347,-0.0577,-0.0,0.0351,0.1307,0.2274,0.3233,0.3351,0.3597,0.3858,0.3738,0.3738,0.3618,0.3497,0.2868,0.2232,0.2387,0.2356,0.2129,0.2104,0.2111,0.2356,0.0,0.0,0.0,0.0,0.0,0.0,0.0,-0.4004,-0.3902,-0.4408,-0.4243,-0.4038,-0.39,-0.3623,-0.3292,-0.2661,-0.2198,-0.1773,-0.14,-0.1557,-0.1662,-0.1633,-0.1685,-0.1564,-0.1331,-0.0202,0.0755,0.1613,0.2535,0.3211,0.3584,0.3944,0.4125,0.4123,0.4063,0.4006,0.3948,0.3888,0.364,0.3114,0.3046,0.2831,0.2578,0.0,0.0,0.0,0.0,0.0,0.0,0.0,0.0,0.0,0.0,0.0,0.0,0.0,0.0,0.0,0.0,0.0,0.0,0.0,0.0,0.0,0.0,0.0,0.0,0.0,0.0,0.0,0.0,0.0,0.0,0.0,0.0,0.0,-0.4388,-0.3758,-0.3203,-0.2804,-0.2504,-0.2326,-0.252,-0.2599,-0.2971,-0.3934,-0.35,-0.3379,-0.3714,-0.3226,-0.2941,-0.2877,-0.2103,-0.1414,-0.0708,-0.012,0.0967,0.2663,0.2578,0.2964,0.3584,0.3828,0.4232,0.4671,0.4545,0.4416,0.4164,0.3663,0.338,0.3079,0.2983,0.2945,0.2945,0.2943,0.2945,0.3065,0.0,0.0,0.0,0.0,0.0,0.0,0.0,-0.4204,-0.4073,-0.4594,-0.4306,-0.3937,-0.3546,-0.3426,-0.3098,-0.2283,-0.1938,-0.161,-0.1402,-0.1603,-0.1678,-0.1707,-0.1538,-0.1123,-0.0506,0.065,0.1714,0.2856,0.3207,0.3513,0.3888,0.3962,0.4125,0.4125,0.4109,0.4068,0.4008,0.3951,0.3869,0.3995,0.3622,0.3218,0.291,0.0,0.0,0.0,0.0,0.0,0.0,0.0,0.0,0.0,0.0,0.0,0.0,0.0,0.0,0.0,0.0,0.0,0.0,0.0,0.0,0.0,0.0,0.0,0.0,0.0,0.0,0.0,0.0,0.0,0.0,0.0,-0.4927,-0.4708,-0.4489,-0.399,-0.3543,-0.3534,-0.2852,-0.2388,-0.2262,-0.2592,-0.2819,-0.2938,-0.3021,-0.2978,-0.2672,-0.2633,-0.2214,-0.1287,-0.0713,0.0,0.0974,0.1732,0.2256,0.2789,0.3433,0.4076,0.4461,0.4712,0.4976,0.4996,0.4744,0.474,0.4868,0.4229,0.4093,0.419,0.3532,0.3114,0.299,0.3428,0.3939,0.4507,0.0,0.0,0.0,0.0,0.0,0.0,0.0,-0.4204,-0.4073,-0.4649,-0.4254,-0.3763,-0.3442,-0.3287,-0.2887,-0.2062,-0.1652,-0.1409,-0.1419,-0.1606,-0.1658,-0.1609,0.0,-0.0616,0.0221,0.139,0.2408,0.3227,0.3431,0.3727,0.4112,0.4174,0.4202,0.4202,0.4174,0.4145,0.4106,0.4022,0.4088,0.4163,0.388,0.3594,0.3346,0.3041,0.2456,0.1893,0.1373,0.1044,0.0654,0.02,0.0,0.0,0.0,0.0,0.0,0.0,0.0,0.0,0.0,0.0,0.0,0.0,0.0,0.0,0.0,0.0,0.0,0.0,0.0,0.0,0.0,0.0,0.0,0.0,-0.4596,-0.4332,-0.4322,-0.3781,-0.3267,-0.3204,-0.2582,-0.2167,-0.2088,-0.2201,-0.2311,-0.2201,-0.2369,-0.2526,-0.2547,-0.1768,-0.1074,-0.036,0.0366,0.1111,0.2116,0.2655,0.3071,0.3353,0.3997,0.4514,0.5286,0.5415,0.5558,0.585,0.5591,0.5591,0.5847,0.5328,0.5185,0.0,0.0,0.0,0.0,0.0,0.532,0.6031,0.0,0.0,0.0,0.0,0.0,0.0,0.0,-0.4107,-0.398,-0.4706,-0.4082,-0.3532,-0.3445,-0.317,-0.2716,-0.2121,-0.1423,-0.1162,-0.1485,-0.1561,-0.1509,-0.1211,-0.083,-0.011,0.0843,0.2204,0.288,0.3097,0.3532,0.3952,0.4218,0.4286,0.4313,0.4305,0.4259,0.4229,0.421,0.4101,0.4052,0.4036,0.3924,0.3902,0.3767,0.3273,0.2695,0.2161,0.182,0.1466,0.105,0.0229,0.0,0.0,0.0,0.0,0.0,0.0,0.0,0.0,0.0,0.0,0.0,0.0,0.0,0.0,0.0,0.0,0.0,0.0,0.0,0.0,0.0,0.0,0.0,0.0,-0.4085,-0.391,-0.406,-0.3145,-0.2457,-0.2457,-0.1889,-0.1563,-0.161,-0.1618,-0.1618,-0.1615,-0.1645,-0.1792,-0.242,-0.0849,0.0,0.0,0.0,0.2152,0.2917,0.3085,0.3625,0.4403,0.4406,0.4923,0.5827,0.5827,0.6259,0.6863,0.6596,0.6592,0.6854,0.6596,0.6414,0.6339,0.529,0.5026,0.5411,0.6054,0.6699,0.7355,0.0,0.0,0.0,0.0,0.0,0.0,0.0,-0.4222,-0.4068,-0.4479,-0.4017,-0.3532,-0.3261,-0.3109,-0.2653,-0.1808,-0.1543,-0.1375,-0.1486,-0.1787,-0.1471,-0.042,-0.011,0.0579,0.1839,0.2587,0.313,0.3482,0.3924,0.4084,0.4218,0.433,0.4354,0.4308,0.4346,0.4308,0.4215,0.4191,0.4282,0.4488,0.4156,0.3872,0.3782,0.3534,0.3104,0.2496,0.2204,0.1879,0.1368,0.0178,-0.0085,-0.0166,-0.12,-0.1501,0.0,0.0,0.0,0.0,0.0,0.0,0.0,0.0,0.0,0.0,0.0,0.0,0.0,0.0,0.0,0.0,0.0,0.0,0.0,-0.4308,-0.4245,-0.3928,-0.3191,-0.179,-0.1464,-0.2807,-0.1834,-0.0815,-0.0352,-0.083,-0.1071,-0.1057,-0.0609,-0.0248,-0.0369,-0.0126,0.0765,0.2174,0.2438,0.297,0.4052,0.4063,0.4619,0.5601,0.0,0.0,0.6797,0.7066,0.7075,0.696,0.6956,0.6689,0.656,0.6823,0.7075,0.7172,0.6369,0.6054,0.6054,0.6562,0.7002,0.7466,0.0,0.0,0.0,0.0,0.0,0.0,0.0,-0.409,-0.3908,-0.4243,-0.3663,-0.319,-0.289,-0.2494,-0.2052,-0.1715,-0.143,-0.1419,-0.1669,-0.1664,-0.1148,0.0112,0.0583,0.1336,0.2522,0.2669,0.3095,0.3689,0.3848,0.4129,0.4264,0.4324,0.4338,0.4308,0.4341,0.4319,0.4259,0.4229,0.433,0.4426,0.4104,0.4153,0.4174,0.3864,0.3413,0.2903,0.2698,0.2238,0.1478,0.0594,-0.0192,-0.0846,-0.1195,-0.1764,-0.2334,0.0,0.0,0.0,0.0,0.0,0.0,0.0,0.0,0.0,0.0,0.0,0.0,0.0,0.0,-0.3956,-0.3847,0.0,-0.4172,-0.3733,-0.3782,-0.3644,-0.3285,-0.1509,-0.0587,-0.1399,-0.0833,-0.0242,-0.0,0.0,0.0249,0.0618,0.063,0.0763,0.1137,0.1408,0.1935,0.3097,0.3377,0.3924,0.461,0.4775,0.5342,0.6183,0.6183,0.6585,0.7254,0.7254,0.7254,0.7254,0.7254,0.7148,0.7062,0.7383,0.7645,0.7858,0.7351,0.7149,0.7234,0.7752,0.8049,0.8365,0.0,0.0,0.0,0.0,0.0,0.0,0.0,-0.4002,-0.3792,-0.4082,-0.3406,-0.2842,-0.2592,-0.1924,-0.1501,-0.1577,-0.1492,-0.1459,-0.1563,-0.1512,-0.0767,0.0822,0.1583,0.2386,0.3224,0.2881,0.3053,0.3902,0.3768,0.4037,0.4308,0.4319,0.4324,0.4459,0.4324,0.4324,0.4456,0.4259,0.4234,0.4229,0.4166,0.4274,0.4508,0.4038,0.3675,0.3366,0.3258,0.2641,0.1844,0.1167,-0.0208,-0.1523,-0.104,-0.1828,-0.2883,-0.2311,-0.2656,0.0,0.0,0.0,0.0,0.0,0.0,0.0,0.0,-0.3931,-0.3799,-0.3584,-0.3726,-0.3762,-0.3169,-0.3615,-0.3821,-0.3191,-0.3208,-0.3295,-0.2896,-0.1071,0.0364,0.0608,0.0492,0.0499,0.038,0.0899,0.1424,0.2325,0.1816,0.1689,0.2462,0.2858,0.3254,0.3644,0.4079,0.4628,0.502,0.5348,0.5915,0.6723,0.6317,0.6719,0.766,0.7388,0.7522,0.7789,0.766,0.7704,0.7922,0.8035,0.8168,0.8502,0.8523,0.8476,0.8386,0.8867,0.9134,0.9291,0.0,0.0,0.0,0.0,0.0,0.0,0.0,0.0,-0.4025,-0.4165,-0.3467,-0.288,-0.2596,-0.2113,-0.1701,-0.1428,-0.1596,-0.1494,-0.0993,-0.1364,-0.0574,0.1764,0.3075,0.3807,0.3997,0.3402,0.3452,0.4308,0.3902,0.4037,0.4308,0.4362,0.4524,0.4931,0.4524,0.4524,0.4928,0.4456,0.4297,0.4292,0.4232,0.4207,0.4199,0.4117,0.4014,0.3899,0.3426,0.2925,0.2469,0.1654,-0.0106,-0.1687,-0.1217,-0.1756,-0.2447,-0.254,-0.2778,-0.3135,-0.3251,-0.3693,-0.417,-0.4456,-0.4197,-0.4095,0.0,-0.4333,-0.3918,-0.3827,-0.38,-0.3745,-0.3558,-0.3383,-0.3087,-0.2551,-0.3063,-0.2784,-0.0597,0.0487,0.1361,0.2383,0.2139,0.1901,0.1927,0.1434,0.17,0.2972,0.2909,0.2933,0.3424,0.3594,0.3885,0.4152,0.4559,0.5095,0.5763,0.5774,0.6317,0.7393,0.7393,0.7789,0.8456,0.8456,0.8584,0.8851,0.8323,0.8328,0.8879,0.8736,0.9052,0.9591,0.9853,0.9613,0.9297,0.9203,0.9454,0.9832,0.0,0.0,0.0,0.0,0.0,0.0,0.0,0.0,0.0,-0.3823,-0.3271,-0.2792,-0.2559,-0.2164,-0.186,-0.1757,-0.1634,-0.1337,-0.0986,-0.0106,0.0926,0.1999,0.2833,0.3431,0.3737,0.314,0.3185,0.4037,0.3633,0.3768,0.4308,0.4333,0.4501,0.4669,0.4632,0.4635,0.4667,0.4603,0.4462,0.4354,0.4294,0.4289,0.4308,0.4215,0.4254,0.4273,0.3796,0.327,0.0,0.1413,0.0211,-0.092,-0.1587,-0.2256,-0.2676,-0.2747,-0.3147,-0.3635,-0.4181,-0.4257,-0.4333,-0.468,-0.4405,-0.4072,-0.4264,-0.4009,-0.3751,-0.3758,-0.3781,-0.3582,-0.3055,-0.2268,-0.155,-0.102,-0.0931,-0.0596,0.0488,0.1476,0.2241,0.2678,0.2685,0.2573,0.2218,0.2249,0.2528,0.3045,0.3076,0.3222,0.3337,0.389,0.4305,0.4574,0.5108,0.5644,0.6183,0.6183,0.6585,0.7254,0.7254,0.7655,0.8323,0.8323,0.836,0.8283,0.7747,0.7781,0.8123,0.8233,0.866,0.9297,0.9422,0.9707,1.0046,0.9793,0.9924,1.0385,0.0,0.0,0.0,0.0,0.0,0.0,0.0,0.0,0.0,0.0,-0.3174,-0.2812,-0.2454,-0.2101,-0.1856,-0.1921,-0.1493,0.0,0.0,0.0625,0.1827,0.2232,0.2708,0.3044,0.3587,0.2992,0.3035,0.3746,0.3345,0.362,0.4308,0.4308,0.4341,0.4532,0.4603,0.4609,0.4529,0.46,0.4465,0.4234,0.4324,0.4333,0.4357,0.4256,0.4279,0.4398,0.3886,0.3458,0.2884,0.1467,0.051,-0.04,-0.1876,-0.2447,-0.2783,-0.2758,-0.3245,-0.3951,-0.4588,-0.4585,-0.4477,-0.4662,-0.4444,-0.412,-0.4051,-0.3776,-0.3512,-0.3558,-0.3434,-0.3085,-0.1972,-0.1005,-0.0227,0.0465,0.0954,0.1343,0.1488,0.2251,0.2789,0.2978,0.3256,0.3146,0.265,0.2942,0.323,0.3098,0.323,0.3497,0.3631,0.4305,0.4708,0.5108,0.58,0.6219,0.6492,0.6492,0.6757,0.7027,0.7134,0.7522,0.8056,0.8456,0.8402,0.7991,0.7961,0.8011,0.8124,0.8374,0.8792,0.9293,0.9269,0.9824,1.0448,1.0308,1.0423,1.0809,0.0,0.0,0.0,0.0,0.0,0.0,0.0,0.0,0.0,0.0,0.0,0.0,0.0,-0.1945,-0.1753,-0.1727,-0.1188,0.0,0.0,0.0201,0.1322,0.2817,0.3202,0.341,0.3537,0.3205,0.325,0.3692,0.343,0.3587,0.4308,0.4308,0.4609,0.494,0.4468,0.4612,0.4937,0.4468,0.4308,0.4311,0.4308,0.4308,0.4303,0.424,0.4071,0.3853,0.3725,0.0,0.2624,0.2081,0.0842,-0.0797,-0.1881,-0.233,-0.2492,-0.2659,-0.3165,-0.3708,-0.4156,-0.4385,-0.4303,-0.4059,-0.4103,-0.404,-0.4001,-0.3704,-0.3395,-0.3297,-0.3021,-0.2196,-0.0223,0.0114,0.0464,0.1798,0.1955,0.2233,0.2642,0.2845,0.3027,0.3555,0.3732,0.3763,0.3765,0.3362,0.3362,0.3768,0.3768,0.4037,0.4705,0.5111,0.5513,0.5912,0.6266,0.6586,0.6586,0.6586,0.6723,0.7128,0.7305,0.766,0.8195,0.9128,0.9402,0.8943,0.9502,0.993,0.9932,0.9777,0.983,1.0125,0.997,0.9867,1.0011,1.0299,1.0792,1.1382,0.0,0.0,0.0,0.0,0.0,0.0,0.0,0.0,0.0,0.0,0.0,0.0,0.0,0.0,0.0,0.0,-0.1151,-0.0897,-0.0251,0.0672,0.1479,0.2351,0.3089,0.3339,0.3154,0.3044,0.3201,0.3637,0.325,0.3535,0.4248,0.4248,0.43,0.4669,0.4738,0.4747,0.4667,0.4873,0.4735,0.4362,0.4324,0.4333,0.4349,0.4166,0.3849,0.364,0.0,0.0,0.2861,0.1704,0.0091,-0.1583,-0.206,-0.2461,-0.2785,-0.3351,-0.3687,-0.3957,-0.4349,-0.4479,-0.4398,-0.4339,-0.4109,-0.3909,-0.3613,-0.29,-0.2167,-0.1951,-0.1618,-0.0972,0.033,0.0894,0.1372,0.1891,0.2204,0.2527,0.259,0.3118,0.3518,0.3947,0.4102,0.4116,0.4381,0.415,0.3902,0.3768,0.4341,0.4617,0.4842,0.5427,0.5862,0.5994,0.6437,0.6619,0.668,0.6893,0.6996,0.7133,0.7645,0.8132,0.8462,0.9166,0.9285,0.8948,0.9463,0.9787,0.9765,0.9665,0.983,0.9853,0.9833,1.0023,1.0311,1.0455,1.1005,1.1545,0.0,0.0,0.0,0.0,0.0,0.0,0.0,0.0,0.0,0.0,0.0,0.0,0.0,0.0,0.0,0.0,0.0,-0.0635,0.0,0.0,0.1561,0.2166,0.2637,0.2866,0.2694,0.271,0.2866,0.3291,0.3098,0.3401,0.4218,0.4155,0.4226,0.43,0.4525,0.4542,0.433,0.4827,0.4672,0.4131,0.4226,0.4196,0.415,0.3828,0.3515,0.0,0.0,0.28,0.2591,0.1143,-0.0345,-0.1624,-0.2124,-0.2482,-0.2961,-0.3503,-0.3802,-0.3951,-0.4235,-0.4297,-0.4203,-0.408,-0.3962,-0.358,-0.293,-0.2189,-0.1326,-0.0778,-0.0433,-0.0,0.0988,0.144,0.1791,0.1831,0.2161,0.2505,0.2696,0.3209,0.3744,0.4237,0.4248,0.4381,0.4649,0.442,0.4174,0.4037,0.4635,0.5062,0.5014,0.5765,0.6222,0.6497,0.6668,0.6852,0.6915,0.6962,0.7013,0.7215,0.7897,0.8418,0.8923,0.9359,0.9625,0.9573,0.9992,1.0345,1.0327,1.0185,1.0042,1.0054,1.0138,1.0167,1.0023,1.0167,1.0743,1.1181,0.0,0.0,0.0,0.0,0.0,0.0,0.0,0.0,0.0,0.0,0.0,0.0,0.0,0.0,0.0,0.0,0.0,0.0,-0.0,0.0,0.0,0.2118,0.2146,0.2113,0.2118,0.2154,0.2315,0.2615,0.2746,0.3303,0.4082,0.4139,0.4095,0.4098,0.4226,0.426,0.4183,0.4183,0.4117,0.4011,0.4008,0.3907,0.3741,0.3388,0.0,0.0,0.2635,0.2389,0.1833,0.0399,-0.0481,-0.1223,-0.1916,-0.2577,-0.3074,-0.3295,-0.3542,-0.3787,-0.3914,-0.3837,-0.3696,-0.3571,-0.3437,-0.3138,-0.202,-0.1346,-0.0788,-0.0,0.0326,0.0736,0.1655,0.1761,0.1748,0.1863,0.2087,0.2555,0.3092,0.339,0.3732,0.4286,0.4308,0.4308,0.4308,0.4308,0.4308,0.4311,0.4774,0.5224,0.5502,0.5986,0.6589,0.7287,0.7093,0.6998,0.7429,0.7047,0.7044,0.7526,0.7932,0.8526,0.9313,0.9733,1.0291,1.0825,1.1261,1.1484,1.1619,1.1188,1.075,1.0455,1.0455,1.0023,0.9446,0.9735,1.0167,1.0599,0.0,0.0,0.0,0.0,0.0,0.0,0.0,0.0,0.0,0.0,0.0,0.0,0.0,0.0,0.0,0.0,0.0,0.0,-0.0,0.0224,0.0648,0.1499,0.2035,0.2127,0.1715,0.2302,0.2519,0.2268,0.233,0.2598,0.3086,0.3729,0.4029,0.3957,0.4306,0.4432,0.4564,0.4448,0.4312,0.4162,0.0,0.3945,0.3542,0.0,0.0,0.0,0.2343,0.1979,0.128,-0.008,-0.1173,-0.2018,-0.266,-0.3011,-0.3169,-0.3483,-0.3734,-0.3768,-0.3613,-0.3578,-0.3628,-0.3272,-0.2483,-0.1682,-0.1009,0.0112,0.1,0.0645,0.1029,0.1395,0.1495,0.1644,0.1821,0.2142,0.2663,0.3073,0.3544,0.3833,0.4389,0.497,0.4577,0.4577,0.5111,0.4577,0.4327,0.4371,0.498,0.5434,0.558,0.6352,0.6819,0.696,0.6981,0.6998,0.7429,0.7678,0.7927,0.8323,0.8547,0.8877,0.9319,0.9926,1.048,1.0831,1.1368,1.1586,1.1619,1.1188,1.09,1.0894,1.0599,1.0311,1.0167,1.0311,1.0455,1.0599,0.0,0.0,0.0,0.0,0.0,0.0,0.0,0.0,0.0,0.0,0.0,0.0,0.0,0.0,0.0,0.0,0.0,0.0,0.0,-0.0,0.0289,0.0758,0.1113,0.1167,0.0873,0.1396,0.1592,0.1548,0.1797,0.2131,0.2549,0.3483,0.3779,0.371,0.4163,0.4411,0.455,0.4442,0.4296,0.0,0.0,0.0,0.0,0.0,0.0,0.1973,0.1857,0.1205,0.0166,-0.1235,-0.2026,-0.2564,-0.3098,-0.3294,-0.337,-0.3491,-0.3623,-0.3575,-0.3342,-0.3233,-0.2987,-0.2437,-0.1263,-0.0225,0.011,0.1199,0.2035,0.1433,0.1456,0.1587,0.1505,0.1581,0.1769,0.2056,0.2599,0.3164,0.339,0.3927,0.435,0.5098,0.4574,0.4574,0.5111,0.46,0.4371,0.4431,0.5159,0.5614,0.5651,0.6436,0.7056,0.72,0.7056,0.7019,0.7363,0.7902,0.8303,0.8323,0.8715,0.9041,0.9591,1.0138,1.0549,1.112,1.1409,1.1619,1.1619,1.1332,1.1188,1.1044,1.075,1.0455,1.0167,1.0023,1.0023,1.0167,0.0,0.0,0.0,0.0,0.0,0.0,0.0,0.0,0.0,0.0,0.0,0.0,0.0,0.0,0.0,0.0,0.0,0.0,0.0,0.0,0.0,0.0,-0.0065,-0.0135,-0.0139,-0.0071,0.0221,0.0616,0.1236,0.187,0.2387,0.3037,0.343,0.3537,0.3888,0.415,0.4314,0.4214,0.4135,0.0,0.0,0.0,0.0,0.0,0.0,0.1552,0.1296,0.0242,-0.115,-0.2249,-0.2743,-0.2981,-0.3255,-0.3451,-0.3532,-0.3428,-0.3384,-0.3334,-0.3098,-0.2686,-0.2122,-0.1299,-0.0117,0.1022,0.1186,0.1888,0.2449,0.1946,0.1818,0.1654,0.1532,0.1528,0.1602,0.163,0.2363,0.2932,0.3167,0.369,0.4257,0.4821,0.4574,0.4445,0.4855,0.4638,0.4425,0.4491,0.5194,0.5648,0.5723,0.6513,0.7135,0.7566,0.711,0.7023,0.7422,0.7854,0.8163,0.8215,0.8585,0.9194,0.9918,1.0156,1.0696,1.143,1.1558,1.1619,1.1619,1.1619,1.1332,1.1044,1.1044,1.0606,0.9879,0.959,0.959,0.9735,0.0,0.0,0.0,0.0,0.0,0.0,0.0,0.0,0.0,0.0,0.0,0.0,0.0,0.0,0.0,0.0,0.0,0.0,0.0,0.0,0.0,0.0,-0.1073,-0.1092,-0.1082,-0.0954,-0.0617,-0.0138,0.0953,0.1734,0.2264,0.2504,0.289,0.3435,0.3289,0.3632,0.406,0.3564,0.3549,0.3928,0.3611,0.0,0.0,0.0,0.0,0.0,0.0527,-0.0403,-0.1237,-0.1272,-0.2103,-0.3105,-0.3543,-0.3684,-0.3679,-0.3354,-0.3482,-0.3503,-0.2858,-0.2019,-0.1182,-0.0479,0.0588,0.1475,0.1834,0.2181,0.2267,0.1861,0.1687,0.156,0.138,0.1389,0.1619,0.2123,0.2645,0.3088,0.3562,0.3993,0.4539,0.5242,0.4711,0.4597,0.5331,0.4803,0.4442,0.4551,0.4985,0.5444,0.5801,0.6257,0.67,0.7135,0.6843,0.703,0.7697,0.7641,0.7983,0.8736,0.8758,0.9285,1.0193,1.0242,1.0754,1.1579,1.1606,0.0,1.1619,1.1619,1.1619,1.1476,1.1188,1.075,1.0311,0.9879,0.959,0.9446,0.0,0.0,0.0,0.0,0.0,0.0,0.0,0.0,0.0,0.0,-0.4089,-0.3876,0.0,0.0,0.0,0.0,0.0,0.0,0.0,0.0,0.0,0.0,0.0,0.0,-0.1758,-0.1509,-0.1139,-0.0643,0.0,0.1081,0.192,0.2183,0.2602,0.311,0.3078,0.3249,0.3626,0.3249,0.3249,0.3547,0.2868,0.2769,0.0,0.0,0.0,0.0,0.0147,-0.0558,-0.1319,-0.1227,-0.1771,-0.2633,-0.3219,-0.362,-0.3743,-0.3379,-0.3259,-0.3142,-0.2437,-0.1457,-0.0484,0.0244,0.1311,0.2278,0.2192,0.2382,0.2325,0.1777,0.163,0.1463,0.1311,0.1356,0.1596,0.184,0.2489,0.3071,0.3362,0.3957,0.4406,0.497,0.4574,0.46,0.5074,0.4698,0.448,0.4567,0.5036,0.5358,0.5825,0.641,0.6845,0.699,0.6956,0.7301,0.7917,0.7786,0.8143,0.8867,0.8867,0.9376,1.0266,1.0333,1.083,1.1619,1.1619,1.1619,1.1619,1.1619,1.1619,1.1476,1.1038,1.0599,1.0455,0.959,0.9302,0.9302,0.0,0.0,0.0,0.0,0.0,0.0,0.0,-0.4897,-0.4655,-0.4474,-0.4576,-0.4394,-0.3794,-0.3651,0.0,0.0,0.0,0.0,0.0,0.0,0.0,0.0,0.0,0.0,0.0,0.0,0.0,-0.1135,-0.0485,0.0,0.0,0.0,0.0,0.0,0.2792,0.2959,0.3174,0.2907,0.2974,0.0,0.0,0.2268,0.0,0.0,0.0,0.0,0.0,-0.031,-0.1025,-0.1173,-0.1606,-0.2235,-0.2465,-0.3129,-0.3651,-0.3162,-0.3162,-0.3047,-0.2214,-0.0864,0.037,0.0988,0.205,0.2858,0.2429,0.2467,0.238,0.1801,0.1584,0.1376,0.1196,0.1241,0.1365,0.1555,0.2167,0.2729,0.3007,0.3606,0.421,0.4693,0.4451,0.4485,0.4821,0.4745,0.4526,0.4732,0.5216,0.5538,0.5974,0.6555,0.699,0.699,0.7119,0.749,0.7993,0.7976,0.8345,0.8992,0.8826,0.931,1.0309,1.0407,1.0894,1.1619,1.1619,1.1619,1.1619,1.1619,1.1619,1.1476,1.0743,1.0455,1.0311,0.9157,0.8874,0.9163,0.0,0.0,0.0,0.0,0.0,0.0,0.0,-0.5314,-0.4943,-0.4405,-0.4595,-0.4598,-0.4105,-0.3799,0.0,0.0,0.0,0.0,0.0,0.0,0.0,0.0,0.0,0.0,0.0,0.0,0.0,-0.1994,-0.1204,0.0,0.0,0.0,0.0,0.0,0.0,0.2447,0.2767,0.2452,0.0,0.0,0.0,0.0,0.0,0.0,0.0,0.0,0.0,0.0511,-0.0156,-0.0435,-0.1491,-0.2651,-0.1558,-0.2096,-0.3012,-0.2316,-0.2896,-0.351,-0.2321,-0.0617,0.1235,0.2467,0.2533,0.2403,0.2528,0.244,0.2157,0.1754,0.1518,0.1308,0.1233,0.0905,0.0901,0.1535,0.1611,0.1946,0.2977,0.3417,0.3989,0.4684,0.449,0.4552,0.489,0.4814,0.4735,0.509,0.5829,0.6268,0.6413,0.67,0.699,0.699,0.6892,0.7274,0.7993,0.7774,0.8183,0.9117,0.8588,0.9214,1.0437,1.0161,1.0606,1.1619,1.1619,1.1619,0.0,1.1619,1.1619,1.1476,1.0743,1.0311,0.9879,0.9018,0.8729,0.8729,0.0,0.0,0.0,0.0,0.0,0.0,0.0,-0.5578,-0.5345,-0.496,-0.4781,-0.4757,-0.4751,-0.4408,-0.3994,0.0,0.0,0.0,0.0,0.0,0.0,0.0,0.0,0.0,0.0,0.0,-0.2925,-0.2628,-0.1784,0.0,0.0,0.0,0.0,0.0,0.0,0.1727,0.2099,0.1625,0.0,0.0,0.0,0.0,0.0,0.0,0.0,0.0,0.0,0.0,0.0535,-0.0406,-0.1682,-0.2661,-0.1577,-0.1555,-0.1986,-0.2004,-0.1813,-0.1492,-0.0973,0.0123,0.1235,0.2222,0.2362,0.2198,0.2277,0.2077,0.1875,0.1695,0.1219,0.0816,0.0848,0.0522,0.0483,0.1078,0.1354,0.1782,0.2789,0.3286,0.3786,0.431,0.4417,0.4382,0.4614,0.4645,0.4843,0.5528,0.5829,0.6264,0.67,0.6845,0.699,0.699,0.7191,0.7425,0.7993,0.806,0.8198,0.8703,0.8448,0.9079,1.0167,1.0023,1.0462,1.1619,1.1619,1.1619,0.0,1.1619,1.1476,1.1188,1.0743,1.0167,0.9446,0.8584,0.844,0.8584,0.0,0.0,0.0,0.0,0.0,0.0,-0.5902,-0.5816,-0.5689,-0.5301,-0.4969,-0.4871,-0.5009,-0.4811,-0.4429,-0.3899,0.0,0.0,0.0,0.0,0.0,0.0,0.0,0.0,0.0,0.0,-0.3493,-0.3219,-0.2517,-0.1703,0.0,0.0,0.0285,0.0898,0.0,0.0,0.0,0.0,0.0,0.0,0.0,0.0,0.0,0.0,0.0,0.0,0.0,0.0,0.0,0.0,0.0,-0.2238,-0.101,-0.0952,-0.1305,-0.1344,-0.0756,0.0111,0.0473,0.0731,0.1234,0.1966,0.2087,0.2135,0.2131,0.1841,0.1573,0.1384,0.0874,0.0475,0.0349,0.0148,0.0158,0.0686,0.1022,0.1613,0.2643,0.3027,0.3529,0.403,0.4153,0.4281,0.4417,0.4636,0.5,0.5673,0.5974,0.6264,0.699,0.6966,0.6949,0.6949,0.7347,0.7727,0.7945,0.8248,0.8542,0.8556,0.8344,0.8687,0.959,0.9446,1.0023,1.1325,1.1325,1.1332,0.0,1.1476,1.1332,1.09,1.0311,0.9735,0.9013,0.8295,0.815,0.8295,0.0,0.0,0.0,0.0,0.0,0.0,0.0,-0.6115,-0.5835,-0.5182,-0.5024,-0.4921,-0.4726,-0.4726,-0.465,-0.4517,0.0,0.0,0.0,0.0,0.0,0.0,0.0,0.0,0.0,0.0,0.0,-0.3698,-0.3409,-0.282,-0.1969,-0.149,-0.0814,0.0,0.0,0.0,0.0,0.0,0.0,0.0,0.0,0.0,0.0,0.0,0.0,0.0,0.0,0.0,0.0,0.0,0.0,0.0,0.0,0.008,-0.1162,-0.0272,-0.0,0.0315,0.1662,0.1531,0.123,0.2303,0.2185,0.1915,0.2093,0.1823,0.126,0.0899,0.0606,0.0272,-0.0139,-0.0286,-0.0152,0.0512,0.0619,0.1133,0.2475,0.2779,0.3088,0.3842,0.3967,0.4109,0.4292,0.4808,0.5392,0.5825,0.6119,0.6555,0.699,0.6905,0.6856,0.6856,0.7661,0.805,0.7836,0.8645,0.8844,0.8556,0.8135,0.8188,0.8729,0.829,0.9008,1.0455,1.0455,1.0894,0.0,1.1188,1.1044,1.09,0.974,0.9018,0.8584,0.7856,0.7566,0.7566,0.0,0.0,0.0,0.0,0.0,0.0,0.0,-0.6101,-0.5772,-0.4971,-0.5105,-0.5199,-0.5051,-0.5144,-0.5161,-0.5043,0.0,0.0,0.0,0.0,0.0,0.0,0.0,0.0,0.0,0.0,0.0,0.0,0.0,-0.3399,-0.2609,-0.1722,-0.1005,-0.0417,-0.0522,-0.0313,0.0,0.0,0.0,0.0,0.0,0.0,0.0707,0.0,0.0,0.0,0.0,0.0,0.0,0.0,0.0,0.0,0.0,0.0,0.0,-0.0888,-0.0437,0.0096,0.0521,0.118,0.1734,0.2072,0.2033,0.1764,0.1319,0.08,0.0507,0.0477,-0.0134,-0.054,-0.034,-0.0779,-0.0902,-0.0246,0.0347,0.1023,0.1843,0.2549,0.3162,0.3607,0.3757,0.4093,0.4422,0.4427,0.4808,0.5683,0.5974,0.6264,0.699,0.6962,0.6945,0.6945,0.7567,0.7902,0.7836,0.8568,0.8588,0.8023,0.796,0.8045,0.8285,0.814,0.8719,0.9735,1.0023,1.0311,1.0894,1.0894,1.075,1.0167,0.9879,0.9013,0.7856,0.7711,0.7566,0.7566,0.0,0.0,0.0,0.0,0.0,0.0,0.0,-0.6334,-0.6087,-0.5437,-0.5524,-0.5582,-0.543,-0.544,-0.548,-0.5468,0.0,0.0,0.0,0.0,0.0,0.0,0.0,0.0,0.0,0.0,0.0,0.0,0.0,0.0,0.0,0.0,-0.1405,-0.0857,-0.0807,-0.0302,0.0,0.0,0.0,0.0,0.0,0.0,0.0447,0.0,0.0,0.0,0.0,0.0,0.0,0.0,0.0,0.0,0.0,0.0,0.0,0.0,-0.0552,-0.0342,-0.0095,0.0694,0.1515,0.1611,0.1688,0.1547,0.0655,0.0149,-0.0068,-0.02,-0.0793,-0.1261,-0.1008,-0.1056,-0.1044,-0.0795,0.0085,0.0916,0.1598,0.2395,0.3025,0.3633,0.3811,0.4003,0.4417,0.4279,0.4517,0.568,0.5825,0.6105,0.6941,0.6937,0.6925,0.6892,0.7517,0.7855,0.7774,0.8413,0.8433,0.7836,0.7842,0.7796,0.7711,0.7711,0.8145,0.9018,0.9302,0.9879,0.0,1.075,1.0462,0.9879,0.959,0.8724,0.7566,0.7421,0.7421,0.7276,0.0,0.0,0.0,0.0,0.0,0.0,0.0,0.0,0.0,0.0,-0.616,-0.6026,-0.5782,-0.5761,-0.5761,0.0,0.0,0.0,0.0,0.0,0.0,0.0,0.0,0.0,0.0,0.0,0.0,-0.5621,-0.4986,-0.4459,-0.3953,0.0,0.0,-0.1307,-0.0802,0.01,0.0,0.0,0.0,0.0,-0.084,-0.0731,0.0,0.0,0.0,0.0,0.0,0.0,0.0,0.0,0.0,0.0,0.0,0.0,0.0,0.0,0.0,0.0,0.0,0.0277,0.059,0.095,0.1169,0.1174,0.0153,-0.0284,0.0,-0.0969,-0.1415,-0.1755,-0.1803,-0.1123,-0.0666,-0.0933,-0.0,0.0994,0.1592,0.2234,0.2956,0.3807,0.3781,0.3777,0.4174,0.41,0.4517,0.568,0.5825,0.6083,0.686,0.686,0.6823,0.6729,0.7513,0.7888,0.7688,0.8159,0.8213,0.7845,0.7621,0.7421,0.699,0.699,0.757,0.8584,0.8584,0.9452,1.09,1.0599,1.0311,0.9735,0.9013,0.829,0.7566,0.7135,0.699,0.699,0.0,0.0,0.0,0.0,0.0,0.0,0.0,0.0,0.0,0.0,0.0,-0.6235,-0.6167,-0.6221,0.0,0.0,0.0,0.0,0.0,0.0,0.0,0.0,0.0,0.0,0.0,0.0,0.0,-0.5739,-0.551,-0.4886,-0.3894,-0.3328,0.0,0.0,0.0,0.0,0.0,0.0,0.0,0.0,-0.0728,-0.0795,0.0,0.0,0.0,0.0,0.0181,0.0494,0.0,0.0,0.0,0.0,0.0,0.0,0.0,0.0,-0.0348,-0.0569,-0.0808,0.0,0.032,0.1066,0.0783,0.0147,0.0,-0.1274,-0.1743,-0.1567,-0.1967,-0.2262,-0.1887,-0.1318,-0.081,-0.0304,0.0742,0.1528,0.1663,0.2222,0.2684,0.3177,0.309,0.3306,0.391,0.3817,0.4083,0.5247,0.5683,0.5939,0.6432,0.6777,0.6888,0.6733,0.744,0.7845,0.7798,0.8268,0.8324,0.796,0.7652,0.7421,0.699,0.699,0.7276,0.7856,0.815,0.9018,1.0167,1.0455,1.0023,0.9446,0.9302,0.829,0.7131,0.7421,0.7421,0.7566,0.0,0.0,0.0,0.0,0.0,0.0,0.0,0.0,0.0,0.0,0.0,0.0,0.0,0.0,0.0,0.0,0.0,0.0,0.0,0.0,0.0,0.0,0.0,0.0,0.0,0.0,0.0,0.0,0.0,-0.5094,0.0,0.0,0.0,0.0,0.0,0.0,0.0,0.0,0.0,0.0,-0.0744,0.0,0.0,0.0,0.0,0.0,-0.0294,-0.0244,0.0,0.0065,-0.0269,-0.0891,0.0,0.0,0.0,0.0,-0.0925,-0.1082,-0.137,-0.0707,0.0146,0.0594,0.0362,-0.0069,-0.059,-0.1406,-0.2003,-0.1822,-0.2228,-0.2476,-0.2317,-0.1975,-0.1505,-0.0745,-0.0084,0.0656,0.143,0.1915,0.2431,0.305,0.2905,0.2984,0.3837,0.3683,0.4056,0.5389,0.565,0.603,0.652,0.6737,0.6827,0.6607,0.7135,0.7463,0.7557,0.7975,0.8028,0.7713,0.7522,0.7276,0.699,0.699,0.728,0.786,0.8005,0.8874,1.0167,1.0455,1.0023,0.9302,0.9302,0.829,0.699,0.7276,0.7421,0.7566,0.0,0.0,0.0,0.0,0.0,0.0,0.0,0.0,0.0,0.0,0.0,0.0,0.0,0.0,0.0,0.0,0.0,0.0,0.0,0.0,0.0,0.0,0.0,0.0,0.0,0.0,0.0,0.0,0.0,0.0,0.0,0.0,-0.3126,0.0,0.0,0.0,0.0,0.0,0.0,-0.0903,-0.0847,0.0,0.0,0.0,0.0,0.0,0.0,0.0,0.0,-0.1081,-0.1109,-0.1192,-0.1541,0.0,0.0,0.0,0.0,0.0,-0.1924,-0.1182,-0.0288,-0.0141,0.0,-0.0,-0.0443,-0.1237,-0.1895,-0.1964,-0.23,-0.2627,-0.2875,-0.2746,-0.2304,-0.164,-0.1212,-0.0499,0.1097,0.1604,0.2152,0.2896,0.271,0.2926,0.3748,0.3681,0.4164,0.5515,0.574,0.5948,0.6569,0.6786,0.6717,0.646,0.67,0.6935,0.7144,0.7431,0.7631,0.7451,0.7098,0.699,0.699,0.699,0.7425,0.815,0.815,0.0,1.0455,1.0455,0.9879,0.9163,0.9163,0.829,0.699,0.7135,0.7421,0.7711,0.0,0.0,0.0,0.0,0.0,0.0,0.0,0.0,0.0,0.0,0.0,0.0,0.0,0.0,0.0,0.0,0.0,0.0,0.0,0.0,0.0,0.0,0.0,0.0,0.0,0.0,0.0,0.0,0.0,0.0,-0.512,-0.4212,-0.2943,0.0,0.0,0.0,0.0,0.0,0.0,-0.0903,-0.0847,0.0,0.0,0.0,0.0,0.0,0.0,0.0,0.0,-0.0986,-0.1123,-0.131,-0.1449,0.0,0.0,0.0,0.0,0.0,-0.2634,-0.2639,-0.2115,-0.0771,-0.0207,-0.0201,-0.1035,-0.1572,-0.197,-0.239,-0.2703,-0.2991,-0.3096,-0.3056,-0.2778,-0.2458,-0.1279,-0.0105,0.082,0.1482,0.2037,0.2183,0.2287,0.2617,0.3255,0.3361,0.3863,0.5161,0.5524,0.573,0.6061,0.6557,0.6517,0.6053,0.6497,0.6593,0.6302,0.6794,0.7161,0.7544,0.7127,0.699,0.699,0.699,0.7425,0.815,0.0,0.8874,1.0023,1.0023,0.9446,0.8729,0.8729,0.8005,0.7135,0.815,0.8295,0.815,0.0,0.0,0.0,0.0,0.0,0.0,0.0,0.0,0.0,0.0,0.0,0.0,0.0,0.0,0.0,0.0,0.0,0.0,0.0,0.0,0.0,0.0,0.0,0.0,0.0,0.0,0.0,0.0,0.0,-0.5756,-0.5107,-0.3562,-0.2329,-0.1369,0.0,0.0,0.0,0.0,-0.0956,-0.096,0.0,0.0,0.0,0.0,0.0,0.0,0.0,0.0,0.0,0.0,-0.1218,-0.1293,-0.1761,0.0,0.0,0.0,0.0,0.0,-0.2871,-0.2951,-0.2778,-0.2052,-0.1537,-0.1337,-0.1597,-0.1929,-0.2157,-0.2294,-0.2818,-0.3254,-0.3374,-0.3418,-0.337,-0.317,-0.2147,-0.087,0.0236,0.1335,0.211,0.2034,0.2219,0.2672,0.3259,0.346,0.407,0.5091,0.5308,0.5667,0.6039,0.6489,0.6453,0.5915,0.6118,0.6204,0.6163,0.6286,0.6657,0.7276,0.7135,0.699,0.699,0.699,0.7425,0.815,0.0,0.8729,0.9879,0.9879,0.9446,0.8729,0.8729,0.815,0.7421,0.8295,0.8729,0.8729,0.0,0.0,0.0,0.0,0.0,0.0,0.0,0.0,0.0,0.0,0.0,0.0,0.0,0.0,0.0,0.0,0.0,0.0,0.0,0.0,0.0,0.0,0.0,0.0,0.0,0.0,-0.6936,-0.6732,-0.6217,-0.5597,-0.479,-0.3131,-0.2052,0.0,0.0,0.0,0.0,-0.1138,-0.106,-0.1073,0.0,0.0,0.0,0.0,0.0,0.0,0.0,0.0,0.0,0.0,0.0,0.0,0.0,0.0,0.0,-0.2507,-0.2805,-0.3051,-0.3285,-0.3333,-0.3313,-0.3216,-0.2715,-0.2194,-0.183,-0.2048,-0.2297,-0.2455,-0.2911,-0.3369,-0.3573,-0.3699,-0.3742,-0.345,-0.2541,-0.1582,-0.0358,0.1208,0.2214,0.2052,0.2448,0.2757,0.3298,0.3716,0.4139,0.5017,0.5371,0.5604,0.6009,0.6421,0.6397,0.5811,0.573,0.581,0.5912,0.5904,0.6264,0.699,0.699,0.699,0.699,0.699,0.7425,0.815,0.815,0.8729,0.9735,0.9735,0.9302,0.8584,0.8584,0.8295,0.7856,0.844,0.9018,0.9446,0.0,0.0,0.0,0.0,0.0,0.0,0.0,0.0,0.0,0.0,0.0,0.0,0.0,0.0,0.0,0.0,0.0,0.0,0.0,0.0,0.0,0.0,0.0,0.0,0.0,-0.7469,-0.727,-0.7042,-0.6279,-0.529,-0.4082,-0.3533,-0.2556,-0.1234,0.0,0.0,0.0,0.0,-0.1293,-0.125,-0.1073,0.0,0.0,0.0,0.0,0.0,0.0,0.0,0.0,0.0,0.0,0.0,0.0,0.0,-0.2634,-0.3175,-0.339,-0.3582,-0.4281,-0.4385,-0.4271,-0.4018,-0.3033,-0.206,-0.1463,-0.1673,-0.2243,-0.3446,-0.3212,-0.3004,-0.3699,-0.3814,-0.3584,-0.2996,-0.2091,-0.1295,-0.1015,0.0908,0.2249,0.218,0.2461,0.2889,0.3355,0.3599,0.4123,0.4812,0.5159,0.552,0.5923,0.6325,0.623,0.5485,0.557,0.5504,0.5282,0.5643,0.6264,0.699,0.699,0.699,0.699,0.699,0.7425,0.815,0.815,0.8584,0.9302,0.9302,0.8874,0.815,0.815,0.8295,0.8584,0.8729,0.9157,0.9735,0.0,0.0,0.0,0.0,0.0,0.0,0.0,0.0,0.0,0.0,0.0,0.0,0.0,0.0,0.0,0.0,0.0,0.0,0.0,0.0,0.0,0.0,0.0,-0.8306,-0.8089,-0.7809,-0.7473,-0.6987,-0.6027,-0.514,-0.421,-0.3613,0.0,0.0,0.0,0.0,0.0,0.0,-0.121,-0.1122,-0.1097,-0.1075,0.0,0.0,0.0,0.0,0.0,0.0,0.0,0.0,-0.1934,-0.1974,-0.2569,-0.2681,-0.2642,-0.2958,-0.3377,-0.3798,-0.4062,-0.4332,-0.4535,-0.4286,-0.3371,-0.249,-0.2083,-0.2126,-0.2449,-0.2758,-0.2945,-0.3224,-0.3687,-0.4062,-0.415,-0.3597,-0.2462,-0.1249,-0.0,0.0921,0.1744,0.244,0.285,0.3127,0.3552,0.3947,0.4205,0.4476,0.4858,0.5245,0.5513,0.5915,0.5953,0.5491,0.557,0.5504,0.5146,0.5647,0.6119,0.67,0.6845,0.699,0.699,0.7276,0.757,0.815,0.8295,0.8729,0.9302,0.9302,0.8874,0.8155,0.844,0.8729,0.9157,0.9302,0.959,0.9879,0.0,0.0,0.0,0.0,0.0,0.0,0.0,0.0,0.0,0.0,0.0,0.0,0.0,0.0,0.0,0.0,0.0,0.0,0.0,0.0,0.0,0.0,0.0,-0.8456,-0.8386,-0.798,-0.7442,-0.6798,-0.5888,-0.515,-0.45,0.0,0.0,0.0,0.0,0.0,0.0,0.0,-0.1142,-0.1011,-0.1175,-0.1254,0.0,0.0,0.0,0.0,0.0,0.0,0.0,0.0,-0.2321,-0.2263,-0.3015,-0.3051,-0.2795,-0.2975,-0.3396,-0.3958,-0.4247,-0.4448,-0.4619,-0.4577,-0.3747,-0.2813,-0.2477,-0.2359,-0.2259,-0.2239,-0.2761,-0.3415,-0.3778,-0.4108,-0.424,-0.3737,-0.2928,-0.1547,0.0645,0.119,0.1754,0.2711,0.2969,0.3369,0.3792,0.4049,0.4308,0.4308,0.4574,0.4977,0.5379,0.5672,0.5722,0.5529,0.5464,0.5254,0.5033,0.5512,0.5974,0.6264,0.67,0.699,0.699,0.7421,0.7711,0.8155,0.8584,0.8874,0.9302,0.9302,0.8874,0.8295,0.844,0.8729,0.9157,0.959,0.9735,0.9735,0.0,0.0,0.0,0.0,0.0,0.0,0.0,0.0,0.0,0.0,0.0,0.0,0.0,0.0,0.0,0.0,0.0,0.0,0.0,0.0,0.0,0.0,0.0,-0.8863,-0.8587,-0.7783,-0.7103,-0.6568,-0.5948,-0.5266,-0.468,-0.4591,0.0,0.0,0.0,0.0,0.0,0.0,0.0,-0.1014,-0.1456,-0.1523,-0.1433,0.0,0.0,0.0,0.0,0.0,0.0,0.0,-0.2633,-0.2675,-0.2984,-0.3159,-0.3222,-0.3365,-0.361,-0.413,-0.5176,-0.4984,-0.454,-0.4958,-0.4143,-0.3115,-0.2578,-0.2,-0.1621,-0.2199,-0.29,-0.3591,-0.3898,-0.3829,-0.376,-0.3431,-0.3196,-0.2064,0.0645,0.1719,0.2437,0.2882,0.3123,0.3382,0.3705,0.407,0.4308,0.4308,0.4574,0.4977,0.5379,0.5454,0.5529,0.5604,0.5254,0.5036,0.4662,0.5389,0.5825,0.5825,0.6555,0.699,0.699,0.7421,0.7856,0.8155,0.8584,0.8874,0.9302,0.9302,0.9018,0.8729,0.8295,0.8295,0.8729,0.9157,0.9302,0.9302,0.0,0.0,0.0,0.0,0.0,0.0,0.0,0.0,0.0,0.0,0.0,0.0,0.0,0.0,0.0,0.0,0.0,0.0,0.0,0.0,0.0,0.0,0.0,0.0,0.0,0.0,-0.6356,-0.5957,-0.562,-0.5327,0.0,0.0,0.0,-0.3752,0.0,0.0,0.0,0.0,-0.1176,-0.0969,-0.1219,-0.1409,-0.1591,0.0,0.0,0.0,0.0,0.0,0.0,0.0,0.0,0.0,-0.3149,-0.3278,-0.325,-0.3227,-0.3503,-0.4068,-0.4766,-0.5034,-0.5197,-0.5396,-0.4598,-0.3713,-0.3671,-0.2778,-0.2053,-0.2547,-0.3062,-0.3554,-0.3653,-0.3894,-0.3864,-0.3157,-0.297,-0.22,0.0131,0.1464,0.2293,0.2709,0.2969,0.3369,0.3789,0.4047,0.4308,0.4308,0.444,0.4708,0.5379,0.513,0.5176,0.5526,0.5181,0.4964,0.46,0.5367,0.5825,0.5825,0.6555,0.699,0.699,0.7715,0.8005,0.815,0.8874,0.9157,0.9302,0.9018,0.9013,0.9157,0.9018,0.9018,0.9157,0.959,0.959,0.9302,0.0,0.0,0.0,0.0,0.0,0.0,0.0,0.0,0.0,0.0,-0.9268,-0.9843,0.0,0.0,0.0,0.0,0.0,0.0,0.0,0.0,0.0,0.0,0.0,0.0,0.0,-0.6674,-0.6135,0.0,0.0,0.0,0.0,0.0,0.0,-0.4244,0.0,-0.2771,-0.2277,-0.1695,-0.1315,-0.1097,-0.1221,-0.1411,-0.1643,0.0,0.0,0.0,0.0,0.0,0.0,0.0,0.0,0.0,-0.3261,-0.3456,-0.347,-0.3431,-0.3779,-0.4308,-0.5446,-0.5569,-0.5526,-0.6054,-0.4966,-0.3758,-0.3303,-0.2558,-0.2083,-0.2643,-0.3084,-0.3511,-0.3684,-0.3782,-0.3741,-0.3147,-0.2635,-0.1685,-0.0131,0.1334,0.229,0.2694,0.2961,0.3362,0.3768,0.4037,0.4308,0.4308,0.4308,0.4577,0.5379,0.4867,0.4913,0.5536,0.5051,0.4832,0.4608,0.537,0.5825,0.5825,0.6555,0.699,0.699,0.7715,0.815,0.815,0.9018,0.9302,0.9307,0.8874,0.8874,0.9302,0.9163,0.9157,0.9302,0.959,0.9446,0.9302,0.0,0.0,-1.0609,-1.0777,0.0,0.0,0.0,0.0,0.0,0.0,-0.925,-0.9804,0.0,0.0,0.0,0.0,0.0,0.0,0.0,0.0,0.0,0.0,0.0,0.0,0.0,0.0,0.0,0.0,0.0,0.0,0.0,0.0,-0.551,-0.4882,0.0,-0.3202,-0.2893,-0.203,-0.1559,-0.1391,-0.1453,-0.152,-0.1647,-0.2233,0.0,0.0,0.0,0.0,0.0,0.0,0.0,0.0,-0.3297,-0.3545,-0.3778,-0.4001,-0.4267,-0.4898,-0.6738,-0.6367,-0.5683,-0.6769,-0.5326,-0.3366,-0.2143,-0.1844,-0.2084,-0.2586,-0.2949,-0.332,-0.3735,-0.3505,-0.3295,-0.3273,-0.2046,-0.0778,0.0,0.1335,0.229,0.2559,0.2961,0.3362,0.3768,0.4037,0.4308,0.4308,0.4308,0.4577,0.5379,0.4768,0.4693,0.5597,0.4958,0.4594,0.4654,0.5386,0.5825,0.5825,0.6555,0.699,0.699,0.7715,0.815,0.8295,0.9018,0.9302,0.9302,0.8874,0.9013,0.9302,0.8874,0.9018,0.9302,0.9302,0.9302,0.9302,0.0,0.0,-1.0957,-1.0891,0.0,0.0,0.0,0.0,0.0,0.0,0.0,0.0,0.0,0.0,0.0,0.0,0.0,0.0,0.0,0.0,0.0,0.0,0.0,0.0,0.0,0.0,0.0,0.0,0.0,0.0,0.0,0.0,0.0,-0.5152,0.0,-0.3457,-0.3086,-0.2592,-0.1992,-0.1433,-0.1676,-0.1713,-0.1624,-0.2031,-0.246,0.0,0.0,0.0,0.0,0.0,0.0,0.0,-0.3105,-0.3425,-0.3845,-0.4245,-0.465,-0.5171,-0.636,-0.664,-0.662,-0.6962,-0.524,-0.3201,-0.2087,-0.1876,-0.2002,-0.2391,-0.2517,-0.2772,-0.306,-0.3069,-0.2977,-0.2811,-0.2189,-0.1171,0.0401,0.1478,0.229,0.229,0.2559,0.2961,0.3228,0.3633,0.4037,0.4308,0.4308,0.4577,0.5379,0.4723,0.4626,0.5515,0.489,0.4531,0.4591,0.5364,0.5825,0.5825,0.6555,0.699,0.699,0.7715,0.844,0.9018,0.9157,0.9302,0.9302,0.9163,0.9157,0.9302,0.959,0.9446,0.9302,0.959,0.959,0.9302,0.0,0.0,0.0,0.0,0.0,0.0,0.0,0.0,0.0,0.0,0.0,0.0,0.0,0.0,0.0,0.0,0.0,0.0,0.0,0.0,0.0,0.0,0.0,0.0,0.0,0.0,0.0,0.0,0.0,0.0,0.0,0.0,0.0,-0.5178,0.0,-0.3965,-0.3619,-0.3081,-0.2515,-0.1909,-0.1866,-0.1814,-0.1826,-0.2171,-0.2593,-0.3043,-0.317,0.0,0.0,0.0,0.0,0.0,0.0,0.0,-0.4101,-0.4633,-0.497,-0.5547,-0.7045,-0.7247,-0.6873,-0.6187,-0.4908,-0.3535,-0.2226,-0.1896,-0.1911,-0.2167,-0.2291,-0.2544,-0.2952,-0.2855,-0.2764,-0.27,-0.2336,-0.1444,0.0134,0.1481,0.2155,0.2155,0.2559,0.2827,0.3228,0.3499,0.3902,0.4308,0.4308,0.4574,0.5111,0.4574,0.462,0.5266,0.4745,0.4512,0.4572,0.5355,0.5808,0.5774,0.6532,0.7135,0.757,0.786,0.8584,0.9302,0.9302,0.9302,0.9302,0.9302,0.9302,0.9302,0.959,0.9446,0.9302,0.959,0.9446,0.9302,0.0,0.0,0.0,0.0,0.0,0.0,0.0,0.0,0.0,0.0,0.0,0.0,0.0,0.0,0.0,0.0,0.0,0.0,0.0,0.0,0.0,0.0,0.0,0.0,0.0,0.0,0.0,0.0,0.0,0.0,0.0,0.0,0.0,-0.5188,0.0,0.0,-0.4112,-0.3524,-0.3037,-0.2593,-0.2103,-0.1973,-0.2107,-0.2326,-0.2726,-0.317,-0.3353,-0.3398,-0.3417,-0.3426,0.0,0.0,0.0,0.0,-0.4311,-0.4896,-0.5228,-0.5851,-0.7727,-0.7637,-0.6701,-0.5344,-0.4722,-0.3934,-0.2232,-0.1909,-0.1932,-0.1932,-0.2172,-0.2423,-0.2708,-0.2623,-0.2409,-0.2575,-0.2351,-0.1589,-0.0269,0.1077,0.2019,0.2155,0.2425,0.2827,0.3228,0.3499,0.3902,0.4308,0.4308,0.444,0.4839,0.444,0.4493,0.5023,0.4608,0.4501,0.4572,0.5345,0.5637,0.5733,0.6665,0.7425,0.815,0.815,0.8584,0.9302,0.9302,0.9302,0.9302,0.9302,0.9302,0.9302,0.9302,0.9302,0.9302,0.9446,0.9302,0.9302,0.0,0.0,0.0,0.0,0.0,0.0,0.0,0.0,0.0,0.0,-1.0909,-1.0835,0.0,0.0,0.0,0.0,0.0,0.0,-1.039,0.0,0.0,-0.8683,-0.8439,0.0,0.0,0.0,0.0,0.0,0.0,0.0,0.0,0.0,0.0,-0.5663,0.0,0.0,-0.4412,-0.3877,-0.3473,-0.3252,-0.2637,-0.2415,-0.2415,-0.2233,0.0,0.0,-0.3309,-0.3486,-0.3557,-0.3565,-0.3652,0.0,0.0,0.0,-0.4174,-0.4908,-0.5478,-0.6053,-0.6899,-0.6976,-0.6452,-0.5435,-0.469,-0.3755,-0.2237,-0.1909,-0.1932,-0.1932,-0.193,-0.2061,-0.2094,-0.2125,-0.2029,-0.2187,-0.209,-0.1723,-0.0806,0.0404,0.1481,0.2154,0.229,0.2558,0.3094,0.3228,0.3499,0.4308,0.4308,0.444,0.4839,0.444,0.4473,0.4953,0.4546,0.4463,0.4572,0.5012,0.5473,0.5812,0.6982,0.7715,0.815,0.844,0.8874,0.9302,0.9302,0.9302,0.9302,0.9302,0.9302,0.9302,0.9735,0.959,0.9302,0.9735,0.959,0.9302,0.0,0.0,0.0,0.0,0.0,0.0,0.0,0.0,0.0,0.0,0.0,-1.0736,0.0,0.0,0.0,-1.085,-1.0621,-1.0273,-0.9825,-0.9408,-0.9105,-0.8822,-0.8659,-0.8496,0.0,0.0,0.0,0.0,0.0,0.0,0.0,-0.6961,-0.6316,0.0,0.0,0.0,0.0,-0.3913,-0.3524,-0.2993,-0.2726,-0.2621,-0.2576,0.0,0.0,0.0,0.0,0.0,-0.3698,-0.3894,-0.3914,-0.3907,-0.3946,0.0,0.0,0.0,-0.5242,-0.5694,-0.6728,-0.7119,-0.6877,-0.5409,-0.4979,-0.4306,-0.2351,-0.1909,-0.1932,-0.1932,-0.1945,-0.1966,-0.1994,-0.2024,-0.2053,-0.2084,-0.2114,-0.1867,-0.1065,0.0268,0.1342,0.2131,0.2144,0.2423,0.3094,0.3228,0.3499,0.4308,0.4308,0.444,0.4839,0.444,0.447,0.494,0.4535,0.4439,0.4521,0.4985,0.561,0.6551,0.7425,0.8005,0.844,0.8584,0.8874,0.9302,0.9302,0.9302,0.9302,0.9302,0.9302,0.9302,0.9446,0.9446,0.9302,0.9446,0.9446,0.9302,0.0,0.0,0.0,0.0,0.0,0.0,0.0,0.0,0.0,0.0,0.0,0.0,0.0,0.0,0.0,0.0,-1.0428,-1.0,-0.939,-0.9208,-0.9065,-0.892,-0.8765,-0.8692,-0.8666,0.0,0.0,0.0,0.0,0.0,-0.8222,-0.774,-0.7043,0.0,-0.5527,0.0,0.0,0.0,0.0,0.0,-0.2804,-0.2775,0.0,0.0,0.0,0.0,0.0,0.0,-0.3804,-0.4011,-0.4038,-0.3954,-0.4073,-0.401,0.0,0.0,0.0,-0.5417,-0.6531,-0.6867,-0.6596,-0.5365,-0.4848,-0.4202,-0.2446,-0.1904,-0.1929,-0.1921,-0.1949,-0.1985,-0.2014,-0.2044,-0.2074,-0.2105,-0.2128,-0.2001,-0.1188,0.0133,0.1334,0.2112,0.2136,0.2423,0.3094,0.3228,0.3497,0.4171,0.4308,0.4305,0.4571,0.444,0.4462,0.478,0.4527,0.4425,0.4482,0.4985,0.5774,0.6841,0.757,0.8005,0.8584,0.8584,0.8729,0.9018,0.9157,0.9163,0.9157,0.9302,0.9302,0.9302,0.9302,0.9302,0.9302,0.9302,0.9302,0.9302,0.0,0.0,0.0,0.0,0.0,0.0,0.0,0.0,0.0,0.0,0.0,0.0,0.0,0.0,-1.0273,-1.0677,-1.0351,-0.9922,-0.9527,-0.9168,-0.9024,-0.8984,-0.8805,0.0,-0.9324,0.0,0.0,0.0,0.0,0.0,-0.9313,-0.8672,-0.8,-0.7353,-0.5972,-0.5098,-0.4628,0.0,0.0,0.0,-0.3148,-0.3003,-0.3089,0.0,0.0,0.0,0.0,-0.3736,-0.3907,-0.3845,-0.3799,-0.3792,-0.3799,-0.3805,-0.3852,0.0,0.0,0.0,-0.5949,-0.5555,-0.5034,-0.5001,-0.3896,-0.2711,-0.2392,-0.2124,-0.1924,-0.1894,-0.1936,-0.1985,-0.2014,-0.2044,-0.2074,-0.2105,-0.211,-0.1978,-0.1186,0.0132,0.1319,0.2109,0.2136,0.2423,0.3094,0.3228,0.3362,0.3768,0.4171,0.4174,0.3902,0.4174,0.4308,0.4311,0.4368,0.4425,0.4482,0.5033,0.568,0.6402,0.6841,0.7425,0.815,0.815,0.815,0.815,0.8584,0.8729,0.8729,0.9163,0.9302,0.9302,0.9302,0.9302,0.9302,0.9302,0.9302,0.9302,0.0,0.0,0.0,0.0,0.0,0.0,0.0,0.0,0.0,0.0,0.0,0.0,0.0,-1.0253,-1.0235,-1.0312,-0.9961,-0.9567,-0.9208,-0.9024,-0.9004,-0.9241,-0.898,-0.8948,-0.9255,0.0,0.0,0.0,0.0,-0.8792,-0.8948,-0.8287,-0.7794,-0.7339,-0.6423,-0.551,-0.4554,-0.4238,0.0,-0.3266,-0.3368,-0.326,-0.3113,0.0,-0.3382,-0.3977,-0.3796,-0.3835,-0.4029,-0.4174,-0.3961,-0.3753,-0.3904,-0.3823,-0.3736,-0.4072,-0.4552,-0.5061,-0.5481,-0.5457,-0.5157,-0.4793,-0.438,-0.3797,-0.2721,-0.2403,-0.2261,-0.1913,-0.1948,-0.1985,-0.2014,-0.2027,-0.2045,-0.2075,-0.2097,-0.1971,-0.1431,-0.0264,0.0666,0.1187,0.1869,0.2423,0.2827,0.2827,0.2961,0.3362,0.3768,0.4037,0.4171,0.4174,0.4577,0.498,0.4597,0.4387,0.4482,0.5036,0.5538,0.597,0.6696,0.728,0.7711,0.7711,0.7711,0.7856,0.8,0.8145,0.8295,0.8729,0.8874,0.8874,0.9163,0.9302,0.9302,0.9302,0.9302,0.9302,0.0,0.0,0.0,0.0,0.0,-1.1036,0.0,0.0,0.0,0.0,0.0,0.0,0.0,0.0,-1.0077,-0.9807,-0.9479,-0.9168,-0.8846,-0.8781,-0.8907,-0.9255,-0.9098,-0.9089,-0.9322,0.0,0.0,0.0,0.0,0.0,0.0,-0.8287,-0.786,-0.7537,-0.7028,-0.6119,0.0,0.0,-0.4072,-0.3405,-0.3684,-0.3488,-0.3011,-0.3042,-0.3404,-0.3926,-0.3784,-0.3863,-0.4106,-0.4192,-0.4226,-0.4158,-0.3912,-0.3718,-0.3573,0.0,-0.4227,-0.4539,-0.4764,-0.4867,-0.4758,-0.4498,-0.4223,-0.3743,-0.2921,-0.2639,-0.2419,-0.2022,-0.2061,-0.2093,-0.1999,-0.2004,-0.202,-0.2071,-0.2087,-0.2087,-0.1938,-0.079,0.0133,0.0524,0.1464,0.229,0.2694,0.2694,0.2828,0.2961,0.3365,0.3633,0.377,0.4039,0.4316,0.4876,0.4357,0.4269,0.4343,0.4749,0.5235,0.5788,0.6395,0.6841,0.7421,0.7421,0.7421,0.7421,0.7421,0.7715,0.815,0.8584,0.8729,0.8874,0.9163,0.9302,0.9302,0.9302,0.9302,0.9302,0.0,-1.0264,-1.0429,-1.0777,-1.1103,-1.1246,0.0,0.0,0.0,0.0,0.0,0.0,0.0,0.0,0.0,-0.9218,-0.8923,-0.8707,-0.8521,-0.848,-0.8641,-0.8996,-0.9099,-0.9261,-0.9482,0.0,0.0,0.0,0.0,0.0,0.0,0.0,-0.8328,-0.794,-0.7801,-0.6909,-0.5588,-0.5015,-0.4501,-0.4115,-0.4224,-0.3666,-0.2928,-0.3276,-0.3406,-0.3443,-0.3508,-0.3751,-0.4062,-0.3875,-0.4415,-0.4988,-0.3941,0.0,0.0,0.0,0.0,0.0,0.0,0.0,0.0,-0.4155,-0.3296,-0.2362,-0.2907,-0.2728,-0.239,-0.1973,-0.2144,-0.2302,-0.2093,-0.1975,-0.2005,-0.2093,-0.2082,-0.232,-0.271,-0.1175,-0.0,0.0129,0.1324,0.229,0.2694,0.2694,0.2694,0.2694,0.2959,0.3094,0.2694,0.3365,0.3792,0.3844,0.3897,0.3925,0.3925,0.4459,0.5066,0.5713,0.5791,0.6264,0.699,0.699,0.699,0.699,0.699,0.7425,0.815,0.8584,0.8874,0.9302,0.9302,0.9302,0.9302,0.9302,0.9302,0.9302,-1.0206,-1.0446,-1.068,-1.0924,-1.0785,-1.0745,0.0,0.0,0.0,0.0,0.0,0.0,0.0,0.0,0.0,-0.8909,-0.859,-0.8341,-0.8291,-0.8193,-0.8391,-0.8925,-0.8854,-0.8945,0.0,0.0,0.0,0.0,0.0,0.0,0.0,0.0,0.0,0.0,-0.7555,-0.7202,-0.6662,-0.5873,-0.5046,-0.4203,-0.469,-0.3987,-0.2734,-0.3581,-0.3761,-0.3608,-0.4002,-0.4037,-0.3961,-0.4138,-0.4094,-0.3825,-0.3562,0.0,0.0,0.0,0.0,0.0,-0.3725,0.0,0.0,0.0,0.0,0.0,-0.3459,-0.3245,-0.2893,-0.2623,-0.2424,-0.2413,-0.2303,-0.2083,-0.1992,-0.2037,-0.2037,-0.2038,-0.2319,-0.1568,-0.066,-0.0,0.134,0.229,0.229,0.229,0.229,0.229,0.2668,0.2798,0.2692,0.3636,0.4044,0.3789,0.4113,0.4279,0.4279,0.4256,0.4591,0.5288,0.5647,0.597,0.6116,0.67,0.699,0.699,0.699,0.728,0.7711,0.815,0.8295,0.844,0.9018,0.9302,0.9302,0.9302,0.9302,0.9302,-1.0217,-1.0328,-1.0419,-1.0794,-1.0622,-1.0562,0.0,0.0,0.0,0.0,0.0,0.0,0.0,0.0,0.0,0.0,-0.8003,-0.7821,-0.7795,-0.7904,-0.8139,-0.8576,-0.8685,-0.8774,0.0,0.0,0.0,0.0,0.0,0.0,0.0,0.0,0.0,0.0,-0.7526,-0.7475,-0.7323,-0.6717,-0.5926,-0.5069,-0.5022,-0.4255,-0.319,-0.3624,-0.3613,-0.3357,-0.3737,-0.3893,-0.3913,-0.4014,-0.3781,-0.3508,-0.3972,-0.3901,0.0,0.0,0.0,0.0,0.0,0.0,0.0,-0.4002,0.0,0.0,-0.3829,-0.3565,-0.3273,-0.2909,-0.2845,-0.2605,-0.2385,-0.242,-0.2329,-0.2225,-0.2241,-0.2262,-0.2296,-0.1941,-0.1311,-0.0264,0.1196,0.214,0.2154,0.2155,0.215,0.2136,0.2252,0.2514,0.2937,0.3356,0.3636,0.3768,0.3954,0.3981,0.3981,0.381,0.4149,0.4578,0.5213,0.568,0.5825,0.67,0.699,0.699,0.699,0.7135,0.7421,0.7715,0.8005,0.844,0.9018,0.9302,0.9302,0.9302,0.9302,0.9302,0.0,-1.0118,-1.0052,-1.0601,-1.0563,0.0,0.0,0.0,0.0,0.0,0.0,0.0,0.0,0.0,0.0,0.0,-0.7406,-0.7293,-0.7167,-0.7573,0.0,0.0,0.0,0.0,0.0,0.0,0.0,0.0,0.0,0.0,0.0,0.0,0.0,0.0,-0.7623,-0.7717,-0.7634,-0.7277,-0.6865,-0.6324,-0.5398,-0.461,-0.3956,-0.359,-0.333,-0.3079,-0.3111,-0.3466,-0.3829,-0.3667,-0.3538,-0.3701,-0.4613,-0.4296,-0.3514,-0.3492,-0.3623,0.0,0.0,0.0,0.0,0.0,-0.3818,0.0,-0.3978,-0.376,-0.3414,-0.3196,-0.3112,-0.3065,-0.2422,-0.2577,-0.2723,-0.249,-0.2413,-0.246,-0.2515,-0.217,-0.1545,-0.0516,0.1176,0.2251,0.2143,0.2147,0.2136,0.2106,0.2105,0.2368,0.3159,0.2933,0.3092,0.3768,0.3405,0.3289,0.3289,0.3379,0.3569,0.3997,0.4774,0.5389,0.5825,0.67,0.699,0.699,0.699,0.699,0.699,0.7421,0.8,0.8729,0.9018,0.9302,0.9302,0.9302,0.9302,0.9302,-1.0285,-1.0291,-1.0392,-1.0791,0.0,0.0,0.0,0.0,0.0,0.0,0.0,0.0,0.0,0.0,0.0,0.0,0.0,-0.6999,0.0,0.0,0.0,0.0,0.0,0.0,0.0,0.0,0.0,0.0,0.0,0.0,0.0,0.0,0.0,0.0,-0.78,-0.7717,-0.7484,-0.6885,-0.6848,-0.7096,-0.638,-0.5121,-0.3809,-0.3909,-0.3704,-0.3424,-0.3479,-0.3625,-0.3774,-0.3378,-0.3413,-0.3504,-0.3315,-0.3423,-0.352,-0.3163,-0.3382,0.0,0.0,0.0,0.0,-0.4063,-0.3977,0.0,-0.4099,-0.3997,-0.3804,-0.3739,-0.3355,-0.3045,-0.2852,-0.2587,-0.2315,-0.2348,-0.2224,-0.2226,-0.2501,-0.1644,-0.0763,-0.0129,0.1306,0.2233,0.2083,0.2104,0.2105,0.2075,0.2072,0.2462,0.3109,0.3154,0.3326,0.3765,0.3371,0.3377,0.3647,0.3194,0.3377,0.4361,0.4898,0.5389,0.5825,0.67,0.699,0.699,0.699,0.699,0.699,0.7421,0.7856,0.8295,0.8729,0.9018,0.9302,0.9302,0.9302,0.9302,-0.9469,-0.9624,-0.987,-1.0346,0.0,0.0,0.0,0.0,0.0,0.0,0.0,0.0,0.0,0.0,0.0,0.0,0.0,0.0,0.0,0.0,0.0,0.0,0.0,0.0,0.0,0.0,0.0,0.0,0.0,0.0,0.0,0.0,0.0,0.0,0.0,-0.79,-0.8316,-0.7316,-0.7102,-0.7395,-0.6309,-0.5399,-0.472,-0.4375,-0.4069,-0.3641,-0.34,-0.3302,-0.3314,-0.3273,-0.3312,-0.333,-0.3139,-0.3078,-0.3145,-0.2918,-0.3215,-0.3549,-0.3587,-0.3698,-0.3789,-0.3968,-0.4009,0.0,0.0,-0.4056,-0.4035,-0.3957,-0.3653,-0.3346,-0.2991,-0.2848,-0.2795,-0.2519,-0.2449,-0.2347,-0.2521,-0.181,-0.1004,-0.0382,0.1156,0.2065,0.2064,0.2078,0.2074,0.2044,0.2041,0.2303,0.3095,0.314,0.345,0.4037,0.3633,0.3645,0.3806,0.3192,0.3235,0.4249,0.4475,0.5098,0.5825,0.641,0.6845,0.699,0.699,0.699,0.699,0.7276,0.7566,0.786,0.844,0.8874,0.9018,0.9157,0.9302,0.9302,-0.8562,-0.8929,-0.9294,-0.9922,0.0,0.0,0.0,0.0,0.0,0.0,0.0,0.0,0.0,0.0,0.0,0.0,0.0,0.0,0.0,0.0,0.0,0.0,0.0,-0.7336,0.0,0.0,0.0,0.0,0.0,0.0,0.0,0.0,0.0,0.0,0.0,0.0,-0.8908,-0.7881,-0.7555,-0.7605,-0.6325,-0.5701,-0.5598,-0.4586,-0.4072,-0.3797,-0.3188,-0.2957,-0.2909,-0.3035,-0.3096,-0.3083,-0.3059,-0.2887,-0.2743,-0.2719,-0.2949,-0.3305,-0.3357,-0.3554,-0.373,-0.3789,-0.3952,-0.4061,0.0,0.0,0.0,-0.4143,-0.3944,-0.3588,-0.31,-0.3164,-0.321,-0.2749,-0.2624,-0.2513,-0.2447,-0.2124,-0.156,-0.0732,0.0995,0.2015,0.202,0.202,0.2018,0.2011,0.1994,0.2256,0.2824,0.3128,0.3569,0.4152,0.3897,0.3789,0.3832,0.3198,0.31,0.385,0.4052,0.4662,0.5538,0.6119,0.6555,0.6845,0.699,0.699,0.699,0.699,0.7135,0.7566,0.8295,0.8584,0.8729,0.9157,0.9302,0.9302,-0.8384,-0.9136,-0.9678,-0.9972,0.0,0.0,0.0,0.0,0.0,0.0,0.0,0.0,0.0,0.0,0.0,0.0,0.0,0.0,-0.6915,0.0,0.0,0.0,-0.7091,-0.7117,-0.7433,0.0,0.0,0.0,0.0,0.0,0.0,0.0,0.0,0.0,-0.805,-0.8104,-0.8028,-0.8164,-0.8328,-0.8426,-0.7431,-0.6395,-0.5219,-0.4191,-0.3671,-0.3567,-0.3371,-0.3087,-0.2847,-0.2709,-0.2578,-0.2428,-0.2084,-0.2391,-0.2807,-0.2197,-0.2597,-0.3274,-0.3375,-0.331,-0.3367,-0.3793,-0.3887,-0.3934,-0.3906,0.0,-0.4202,-0.418,0.0,-0.3569,-0.327,0.0,0.0,-0.2654,-0.2468,-0.2403,-0.2249,-0.1891,-0.1364,-0.065,0.0941,0.1951,0.199,0.1866,0.1898,0.1975,0.1906,0.1909,0.2144,0.2951,0.3516,0.3828,0.3744,0.377,0.3777,0.3184,0.3087,0.3514,0.3889,0.4371,0.481,0.5974,0.6413,0.6559,0.6845,0.699,0.699,0.699,0.699,0.7135,0.786,0.844,0.8729,0.9157,0.9302,0.9302,-0.7873,-0.8501,-0.9078,-0.9344,0.0,0.0,0.0,0.0,0.0,0.0,0.0,0.0,-0.6662,-0.6582,-0.672,-0.7177,-0.7129,-0.703,-0.6963,-0.7031,0.0,0.0,-0.6546,-0.6518,-0.6566,-0.6762,-0.689,0.0,-0.7245,0.0,0.0,0.0,0.0,0.0,-0.807,-0.8382,-0.8858,-0.8886,-0.8705,-0.8469,-0.8139,-0.7176,-0.5987,-0.5107,-0.4171,-0.3229,-0.306,-0.2401,-0.1617,-0.1266,-0.1887,-0.2685,-0.1567,-0.1651,-0.2242,-0.2352,-0.2648,-0.2985,-0.3115,-0.3266,-0.3347,-0.3542,-0.3811,-0.4018,-0.389,-0.4119,-0.4256,-0.4319,0.0,0.0,0.0,0.0,0.0,0.0,-0.2597,-0.2361,-0.224,-0.188,-0.1449,-0.0821,0.0325,0.135,0.1926,0.163,0.1551,0.1947,0.1569,0.1339,0.1385,0.2176,0.3116,0.4081,0.3875,0.3768,0.3768,0.3318,0.3225,0.3647,0.3745,0.4228,0.4956,0.5683,0.6119,0.6119,0.67,0.6845,0.67,0.6845,0.699,0.7135,0.786,0.815,0.844,0.9018,0.9302,0.9302,-0.7405,-0.7976,-0.8566,-0.8835,0.0,0.0,0.0,0.0,0.0,0.0,0.0,-0.6362,-0.6265,-0.6205,-0.6439,-0.7037,-0.6985,-0.7009,-0.6999,-0.6865,-0.6705,-0.6351,-0.6069,-0.5991,-0.6036,-0.6263,-0.6475,0.0,0.0,0.0,0.0,0.0,0.0,0.0,-0.8014,-0.8503,-0.9562,-0.9346,-0.9155,-0.8811,-0.8737,-0.7792,-0.6509,-0.5501,-0.4221,-0.2956,-0.2378,-0.1793,-0.0995,-0.0217,-0.1018,-0.2181,-0.1086,-0.0915,-0.131,-0.2325,-0.2704,-0.2888,-0.3071,-0.325,-0.3389,-0.3425,-0.3731,-0.3929,-0.3895,-0.4012,-0.4188,-0.4404,-0.4176,0.0,0.0,0.0,-0.3281,0.0,0.0,-0.2574,-0.2406,-0.2099,-0.1753,-0.1233,-0.0395,0.0515,0.1303,0.1128,0.0927,0.094,0.0716,0.073,0.0747,0.1401,0.2462,0.3668,0.3599,0.3633,0.3768,0.3458,0.3505,0.3928,0.3745,0.4083,0.4956,0.5392,0.5683,0.5683,0.641,0.6555,0.6413,0.67,0.699,0.728,0.786,0.815,0.8295,0.9013,0.9302,0.9302,-0.7125,-0.7912,-0.8555,-0.8677,-0.8855,0.0,0.0,0.0,-0.6689,-0.5954,-0.6147,-0.6326,-0.6195,-0.6788,-0.7197,-0.7211,-0.7361,-0.7339,-0.6892,-0.661,-0.6492,-0.6702,-0.5785,-0.5624,-0.6264,-0.6112,-0.6046,-0.6121,0.0,0.0,0.0,0.0,0.0,0.0,-0.7787,-0.8494,-0.9416,-0.928,-0.949,-0.9943,-0.9288,-0.8125,-0.6576,-0.4636,-0.3608,-0.3049,-0.1502,-0.1264,-0.1593,-0.0426,-0.0,0.0,0.0,-0.0359,-0.0353,-0.1658,-0.2635,-0.329,-0.3396,-0.3266,-0.3283,-0.3549,-0.3613,-0.3682,-0.386,-0.3881,-0.3961,-0.4495,-0.3983,-0.3434,-0.357,0.0,0.0,0.0,0.0,0.0,0.0,-0.256,-0.2342,-0.1709,-0.0885,-0.019,0.0,0.0406,0.0,-0.1533,-0.0781,-0.0115,0.0121,0.1008,0.1677,0.2194,0.2918,0.3362,0.3768,0.3596,0.3505,0.3928,0.403,0.408,0.4226,0.4956,0.525,0.525,0.5683,0.6119,0.6413,0.6413,0.6845,0.7566,0.8005,0.8295,0.8729,0.9163,0.9302,0.9302,-0.6973,-0.7446,-0.7924,-0.8109,-0.8414,-0.8332,-0.7641,-0.728,-0.6942,-0.6582,-0.6372,-0.6301,-0.643,-0.6397,-0.6427,-0.6611,-0.6668,-0.6598,-0.6286,-0.5982,-0.5799,-0.5647,-0.5061,-0.4885,-0.5336,-0.549,-0.5649,-0.5955,-0.6263,0.0,0.0,0.0,0.0,0.0,-0.7485,-0.8297,-0.9203,-0.9607,-0.9819,-0.9846,-0.8667,-0.7551,-0.6536,-0.5394,-0.4174,-0.2702,-0.0925,-0.0463,0.0,-0.0111,0.0,-0.0,-0.0203,-0.0096,-0.0269,-0.1422,-0.2423,-0.3167,0.0,0.0,-0.3694,-0.3589,-0.3808,-0.4065,-0.4066,-0.4178,-0.434,-0.4614,-0.4373,-0.4102,-0.3891,0.0,0.0,0.0,0.0,0.0,0.0,-0.3019,-0.2724,-0.2281,-0.1469,-0.071,-0.0186,-0.0301,-0.0528,-0.0968,-0.1128,-0.1291,-0.1325,-0.0125,0.115,0.2191,0.2388,0.2704,0.3002,0.3334,0.352,0.3694,0.3902,0.4226,0.4517,0.4956,0.5101,0.4956,0.5538,0.5829,0.5974,0.6268,0.67,0.728,0.786,0.815,0.844,0.9018,0.9302,0.9302,-0.6616,-0.6936,-0.7315,-0.7748,-0.8055,-0.8022,-0.7385,-0.714,-0.688,-0.6505,-0.6213,-0.6084,-0.6141,-0.6031,-0.5874,-0.5893,-0.5935,-0.5858,-0.546,-0.5303,-0.5054,-0.4935,-0.4458,-0.4388,-0.483,-0.4997,-0.5268,-0.5644,-0.578,-0.5879,-0.5823,-0.5863,-0.6054,-0.6395,-0.6872,-0.7806,-0.8982,-0.9309,-0.9525,-0.9607,-0.831,-0.7209,-0.6313,-0.5827,-0.4516,-0.2704,0.0,0.0,0.0586,0.0113,0.0,0.0,0.0,0.0,-0.019,-0.124,-0.2486,-0.3423,-0.3401,-0.377,0.0,-0.3887,-0.4137,-0.4413,-0.4395,-0.4456,-0.4539,-0.4581,-0.4458,-0.4171,-0.3946,0.0,0.0,0.0,0.0,0.0,0.0,-0.3347,-0.3048,-0.2725,-0.1978,-0.1311,-0.0691,-0.094,-0.1204,-0.1253,-0.1545,-0.1849,-0.1911,-0.0743,0.0381,0.1418,0.199,0.23,0.2457,0.3057,0.352,0.3694,0.4047,0.4517,0.4665,0.4956,0.4956,0.4665,0.5244,0.5535,0.5825,0.6119,0.6555,0.728,0.786,0.815,0.844,0.9018,0.9302,0.9302,-0.6113,-0.6417,-0.6826,-0.7544,-0.7798,-0.7634,-0.6944,-0.6789,-0.6431,-0.5704,-0.5741,-0.5724,-0.5482,-0.5663,-0.5686,-0.5205,-0.5368,-0.5201,-0.4736,-0.4442,-0.436,-0.4471,-0.403,-0.408,-0.4688,-0.4629,-0.4763,-0.5161,-0.5246,-0.5173,-0.5042,-0.5386,-0.5682,-0.5876,-0.6117,-0.7158,-0.8717,-0.8399,-0.8656,-0.9298,-0.8078,-0.698,-0.6137,-0.5762,-0.4479,-0.2825,-0.1651,-0.0,0.1409,0.0454,0.0,0.0,0.011,0.0,-0.0207,-0.132,-0.2727,-0.3976,-0.3867,-0.4108,-0.4447,-0.4504,-0.4641,0.0,0.0,-0.4715,-0.467,-0.4623,-0.4235,-0.3886,-0.388,-0.3816,0.0,0.0,0.0,0.0,-0.3808,-0.3613,-0.3385,-0.3066,-0.2437,-0.1876,-0.1449,-0.1575,-0.1862,-0.2294,-0.1976,-0.1752,-0.1877,-0.1104,-0.0379,0.0129,0.1459,0.2154,0.2157,0.3042,0.3505,0.3932,0.4461,0.4662,0.4665,0.4665,0.4665,0.4665,0.4665,0.5101,0.5825,0.5825,0.6551,0.7566,0.8005,0.8295,0.8729,0.9157,0.9302,0.9302,-0.611,-0.6558,-0.6908,-0.7081,-0.716,-0.6975,-0.6473,-0.6378,-0.6263,-0.5957,-0.5733,-0.5647,-0.5778,-0.5422,-0.5081,-0.479,-0.4646,-0.4337,-0.407,-0.3644,-0.3416,-0.3594,-0.3158,-0.3184,-0.3904,-0.383,-0.3998,-0.4538,-0.4751,-0.4719,-0.4483,-0.4752,-0.5181,-0.5763,-0.5668,-0.6587,-0.8122,-0.7685,-0.7717,-0.7956,-0.7611,-0.664,-0.5456,-0.5373,-0.3996,-0.1888,-0.1313,-0.0959,-0.0716,0.0347,0.0342,0.0113,0.1104,0.0762,-0.0215,-0.1247,-0.2447,-0.3507,-0.3774,-0.4091,-0.4293,-0.4339,-0.4651,-0.4976,0.0,0.0,0.0,-0.5739,-0.5229,-0.4733,-0.4763,-0.4375,-0.3981,-0.3589,-0.3584,-0.3708,-0.3877,-0.3778,-0.3658,-0.3381,-0.3048,-0.2572,-0.1874,-0.1881,-0.2024,-0.2124,-0.2144,-0.1993,-0.1958,-0.162,-0.1078,0.0129,0.0787,0.1473,0.2188,0.2755,0.3211,0.3558,0.4011,0.4333,0.4665,0.4665,0.4665,0.4665,0.4665,0.5101,0.5825,0.5825,0.6406,0.728,0.786,0.8584,0.9157,0.9302,0.9302,0.9302,-0.5793,-0.6219,-0.6444,-0.6294,-0.6371,-0.6405,-0.6253,-0.6013,-0.584,-0.5694,-0.5235,-0.4953,-0.5051,-0.4778,-0.4442,-0.4179,-0.4076,-0.3711,-0.3308,-0.3077,-0.2842,-0.2808,-0.2587,-0.2631,-0.2956,-0.3206,-0.352,-0.3938,-0.4116,-0.4137,-0.4047,-0.4225,-0.4598,-0.5189,-0.5205,-0.5929,-0.7195,-0.7292,-0.7223,-0.7049,-0.7015,-0.6094,0.0,-0.5063,-0.3439,-0.1084,-0.0367,-0.0122,-0.012,0.0,0.0116,0.0229,0.1463,0.133,0.0545,-0.0953,-0.1968,-0.2847,-0.3393,-0.3841,-0.4168,-0.4418,-0.4691,-0.4953,-0.531,-0.5614,-0.5813,0.0,-0.5703,-0.5357,0.0,-0.4417,-0.3966,-0.3533,-0.3429,-0.3561,-0.3862,-0.3931,-0.3861,-0.3549,-0.3474,-0.3166,-0.2535,-0.2289,-0.214,-0.2208,-0.2214,-0.2165,-0.2251,-0.1989,-0.1621,-0.0867,0.0,0.0797,0.1215,0.205,0.264,0.2977,0.3709,0.4176,0.4371,0.4371,0.4517,0.4665,0.4517,0.4953,0.5825,0.5825,0.6261,0.7135,0.786,0.8584,0.9302,0.9302,0.9302,0.9313,-0.5354,-0.5777,-0.5851,-0.5548,-0.5656,-0.5833,-0.6072,-0.5663,-0.5173,-0.5009,-0.455,-0.4157,-0.398,-0.3856,-0.3678,-0.3452,-0.3344,-0.2943,-0.2492,-0.2329,-0.2193,-0.1957,-0.2002,-0.2138,-0.2138,-0.2693,-0.3074,-0.3316,-0.3441,-0.3491,-0.3542,-0.3724,-0.403,-0.4433,-0.4772,-0.5375,-0.6299,-0.7129,-0.7171,-0.6586,-0.6381,-0.5667,-0.457,-0.4646,-0.3126,-0.0618,0.0628,0.1487,0.1686,-0.0119,-0.035,0.0345,0.1495,0.169,0.1204,-0.0322,-0.1479,-0.2392,-0.3066,-0.3549,-0.4031,-0.4464,-0.469,-0.4971,-0.5393,-0.5887,-0.6007,-0.5636,-0.5711,-0.5643,-0.4573,-0.4181,-0.3818,-0.3352,-0.3302,-0.3495,-0.3915,-0.414,-0.4096,-0.3721,-0.3784,0.0,-0.3029,-0.2619,-0.244,-0.247,-0.2261,-0.2365,-0.2647,-0.2231,-0.2037,-0.2013,-0.0761,-0.0,0.0132,0.1353,0.2072,0.2243,0.3404,0.3882,0.408,0.408,0.4371,0.4665,0.4371,0.4808,0.5825,0.5825,0.6264,0.728,0.786,0.8584,0.9302,0.9302,0.9302,0.9318,-0.4984,-0.5395,-0.5605,-0.5315,-0.5123,-0.5145,-0.5273,-0.5142,-0.471,-0.4082,-0.401,-0.3886,-0.3695,-0.3176,-0.2875,-0.2813,-0.176,-0.1052,-0.0927,-0.0575,-0.0569,-0.0788,-0.0771,-0.1197,-0.1851,-0.1955,-0.212,-0.2588,-0.2896,-0.2928,0.0,-0.3134,-0.3508,-0.3936,-0.4229,-0.4961,-0.6062,-0.6807,-0.6791,-0.6309,-0.6341,-0.5916,-0.5067,-0.4395,-0.2751,-0.0741,0.113,0.1858,0.181,0.0721,0.0589,0.092,0.161,0.1135,0.0334,0.0328,-0.1194,-0.2808,-0.3287,-0.3546,-0.3814,-0.4109,-0.4474,-0.4922,-0.5466,-0.5852,-0.6158,-0.6476,-0.6116,-0.5556,-0.5116,0.0,-0.3502,-0.3095,-0.363,-0.4121,-0.4229,-0.4711,-0.4739,-0.4106,-0.4004,-0.37,-0.3052,-0.2945,-0.2795,-0.2629,-0.2804,-0.2793,-0.2691,-0.2755,-0.2613,0.0,-0.1524,-0.0781,0.0,0.0,0.1368,0.2241,0.295,0.342,0.3646,0.4228,0.4517,0.4226,0.4517,0.5098,0.5825,0.5825,0.67,0.786,0.8005,0.8584,0.9302,0.9302,0.9302,0.9318,-0.4492,-0.4626,-0.4707,-0.4753,-0.4418,-0.4193,-0.4426,-0.4111,-0.383,-0.3993,-0.3376,-0.2832,-0.2457,-0.172,-0.129,-0.1191,-0.0597,0.0239,0.1193,0.1184,0.094,0.0699,0.0115,-0.034,-0.0786,-0.1412,-0.183,-0.2007,-0.2334,0.0,0.0,0.0,-0.2943,-0.3502,-0.4357,-0.509,-0.5764,-0.6515,-0.6621,-0.6242,-0.6254,-0.5582,-0.4453,-0.2807,-0.1521,-0.0247,0.1394,0.2005,0.1955,0.1465,0.1436,0.1514,0.1747,0.1489,0.0894,0.0439,-0.0656,-0.1851,-0.2781,-0.307,-0.326,-0.3785,-0.407,-0.4457,-0.5184,-0.57,-0.5994,-0.6241,-0.592,-0.5429,-0.4541,-0.3691,0.0,-0.3316,-0.3599,-0.3987,-0.442,-0.4785,-0.487,-0.4437,-0.4264,-0.3921,-0.3449,-0.3164,-0.3032,-0.2928,-0.2988,-0.3065,-0.3068,-0.2979,-0.2757,0.0,0.0,0.0,-0.1042,0.0,0.1229,0.1682,0.2523,0.2986,0.3209,0.3791,0.408,0.408,0.4371,0.4808,0.5538,0.5974,0.6845,0.815,0.815,0.8584,0.9302,0.9302,0.9302,0.9318,-0.4037,-0.3861,-0.3772,-0.4082,-0.374,-0.3519,-0.3635,-0.2923,-0.2557,-0.3412,-0.2369,-0.1426,-0.1004,-0.0231,0.0357,0.0726,0.0606,0.1334,0.2911,0.2539,0.2159,0.2015,0.1062,0.0468,0.0345,-0.0795,-0.1497,-0.1615,-0.1808,-0.1869,0.0,0.0,-0.2593,-0.3428,-0.4545,-0.5218,-0.561,0.0,-0.6536,-0.6439,-0.5921,-0.5001,-0.373,-0.1551,-0.0385,0.0249,0.1529,0.2022,0.1977,0.1977,0.1936,0.1885,0.1885,0.1844,0.1566,0.0221,-0.055,-0.1096,-0.2162,-0.2473,-0.2679,-0.3428,-0.363,-0.3937,-0.479,-0.5426,-0.5721,-0.5638,-0.5485,-0.4959,-0.3823,-0.317,0.0,0.0,-0.3755,-0.403,-0.4722,-0.4967,-0.4941,-0.4662,-0.4431,-0.4138,-0.3661,-0.3321,-0.3131,-0.3174,-0.3231,-0.3265,-0.3471,0.0,0.0,0.0,0.0,-0.229,-0.1907,0.0,0.1096,0.1403,0.239,0.2851,0.2771,0.3354,0.3791,0.3935,0.408,0.4662,0.5392,0.6268,0.7135,0.8005,0.8005,0.8584,0.9157,0.9157,0.9157,0.9323,-0.3706,-0.3508,-0.3282,-0.3422,-0.3358,-0.3234,-0.3058,-0.1776,-0.0916,-0.1368,-0.0578,-0.0118,-0.0,0.048,0.1453,0.2582,0.2462,0.2585,0.3202,0.3039,0.277,0.2526,0.2018,0.152,0.1035,0.023,-0.0665,-0.1748,-0.1528,-0.1318,0.0,0.0,-0.2633,-0.3834,-0.4324,0.0,0.0,-0.5891,-0.6308,-0.6508,-0.5504,-0.4658,-0.3907,-0.1925,-0.0511,0.063,0.1644,0.2004,0.1977,0.1977,0.1936,0.1885,0.1885,0.1844,0.1458,-0.0336,-0.1231,-0.179,-0.2122,-0.2429,-0.2728,-0.3057,-0.3342,-0.3619,-0.4574,-0.5002,-0.521,-0.5202,-0.4446,-0.3726,-0.3446,-0.3459,-0.3587,0.0,-0.4531,-0.516,-0.5183,-0.5631,-0.5631,-0.4831,-0.455,-0.4146,-0.3503,-0.3158,-0.3161,-0.3511,-0.346,-0.3522,-0.3575,0.0,0.0,-0.3717,-0.3752,-0.2913,-0.1091,-0.0264,0.0829,0.2105,0.2697,0.2876,0.2333,0.3498,0.3935,0.3646,0.4374,0.5101,0.5825,0.6555,0.728,0.7711,0.8005,0.844,0.8729,0.8729,0.9018,0.9323,-0.2967,-0.2727,-0.263,-0.3083,-0.2363,-0.17,-0.1686,-0.0813,0.0119,0.0719,0.0599,0.0842,0.1709,0.1956,0.2329,0.3083,0.296,0.296,0.3455,0.3189,0.3056,0.3178,0.2796,0.2286,0.1658,0.0592,-0.0114,-0.0528,-0.0881,-0.0988,-0.0813,0.0,0.0,0.0,0.0,-0.518,-0.5582,-0.5877,-0.6022,-0.6127,-0.5203,-0.4085,-0.2945,-0.1836,-0.0519,0.0758,0.2039,0.2016,0.1605,0.2099,0.2068,0.1913,0.1913,0.1637,0.1138,0.0569,-0.0678,-0.1795,-0.1683,-0.1897,-0.2222,-0.2777,-0.3093,-0.3403,-0.3954,-0.4392,-0.4706,-0.4662,-0.3962,-0.3268,-0.2792,-0.2834,-0.3083,-0.3581,-0.411,-0.4629,-0.5272,-0.5427,-0.5359,-0.5166,-0.4561,-0.411,-0.3835,-0.3454,-0.3313,-0.3519,-0.3588,-0.3773,-0.4031,0.0,0.0,-0.3711,0.0,-0.2762,-0.1004,0.0,0.1107,0.2245,0.2702,0.288,0.2624,0.3644,0.408,0.4228,0.481,0.5247,0.5829,0.641,0.7135,0.786,0.8005,0.844,0.9013,0.8729,0.9018,0.9323,-0.2514,-0.2135,-0.1891,-0.2167,-0.1318,-0.0447,-0.0236,0.0359,0.1213,0.2219,0.1842,0.1721,0.2746,0.2751,0.3001,0.3501,0.3362,0.3477,0.3973,0.3586,0.3576,0.3702,0.3332,0.2817,0.2173,0.1086,0.0467,0.0328,-0.0306,-0.0665,-0.0704,0.0,0.0,0.0,-0.4382,-0.5166,-0.5535,-0.553,-0.547,-0.5297,-0.4759,-0.363,-0.2209,-0.1194,-0.0,0.1023,0.193,0.2031,0.174,0.2236,0.2214,0.1943,0.1934,0.1303,0.0695,0.0811,0.0115,-0.0796,-0.1366,-0.1594,-0.1934,-0.2378,-0.26,-0.3045,-0.3479,-0.3921,-0.4231,-0.4365,-0.3584,-0.2835,-0.2522,-0.2438,-0.2763,-0.3657,0.0,-0.4417,-0.5195,-0.526,-0.5206,-0.5165,-0.445,-0.3937,-0.3845,-0.3444,-0.3364,-0.3478,-0.3703,-0.399,-0.441,0.0,0.0,0.0,0.0,0.0,-0.1655,-0.0,0.1251,0.2245,0.2569,0.2745,0.2917,0.3789,0.4371,0.481,0.5247,0.5538,0.5974,0.641,0.7135,0.8005,0.8005,0.8584,0.9018,0.8729,0.8894,0.9378,-0.2261,-0.1832,-0.1307,-0.0698,-0.0235,0.0355,0.1203,0.2051,0.2792,0.3202,0.3126,0.2917,0.2575,0.2837,0.3353,0.4125,0.4068,0.4284,0.5039,0.4599,0.4438,0.4438,0.3699,0.3062,0.2652,0.2172,0.1307,0.0,-0.0,-0.0317,-0.0931,0.0,-0.2872,-0.3398,-0.3937,-0.4582,-0.5065,-0.5021,-0.4602,-0.4046,-0.4036,-0.329,-0.1842,-0.0,0.1054,0.1578,0.1426,0.1916,0.2523,0.2144,0.1999,0.1971,0.1941,0.1074,0.0,0.0118,0.0942,0.1295,-0.1178,-0.1884,-0.1877,-0.1847,-0.207,-0.2519,-0.3377,-0.3589,-0.3778,-0.4407,-0.3305,-0.2303,-0.2674,-0.2603,-0.2909,-0.4055,0.0,-0.5058,-0.5216,-0.5473,-0.5323,-0.435,-0.3996,-0.3678,-0.3218,-0.3048,-0.3111,-0.3563,-0.3745,-0.411,0.0,0.0,0.0,-0.4804,-0.4171,0.0,-0.3209,-0.0538,0.1262,0.2247,0.2304,0.2478,0.2917,0.3789,0.4517,0.525,0.5683,0.5974,0.6413,0.6845,0.7276,0.7711,0.8005,0.8295,0.8729,0.8295,0.8654,0.9355,-0.0688,-0.0463,-0.0234,0.0239,0.1087,0.1948,0.2571,0.2843,0.3128,0.3426,0.3734,0.3922,0.4108,0.3914,0.4125,0.4769,0.4875,0.4862,0.5117,0.5045,0.4755,0.4508,0.3967,0.3569,0.3185,0.245,0.182,0.1308,0.0905,0.0,0.0,-0.1548,-0.2322,-0.2764,-0.3774,-0.4381,-0.4655,-0.4605,-0.4446,-0.4161,-0.3808,-0.2517,-0.0534,0.0534,0.186,0.2892,0.2852,0.2941,0.3152,0.2493,0.223,0.1975,0.1964,0.1699,0.1318,0.1318,0.0951,0.0589,0.0,-0.0589,-0.1294,-0.1756,-0.1971,-0.2067,-0.2285,-0.2828,-0.3122,-0.2944,-0.2363,-0.1894,-0.1917,-0.2167,-0.2505,-0.3003,-0.3548,0.0,-0.4631,-0.456,-0.4402,-0.4532,-0.3971,-0.3528,-0.3206,-0.3312,-0.3364,-0.3436,-0.4167,-0.4622,0.0,0.0,0.0,0.0,-0.4225,0.0,-0.3146,-0.0823,0.0987,0.2277,0.2604,0.3061,0.3789,0.4226,0.481,0.525,0.5683,0.5974,0.6413,0.6845,0.7425,0.8005,0.8005,0.8584,0.9018,0.8729,0.8946,0.9503,0.1197,0.1203,0.133,0.1581,0.2452,0.3207,0.3453,0.3623,0.3796,0.4085,0.4423,0.4757,0.5199,0.5145,0.524,0.5631,0.5602,0.5713,0.5972,0.5762,0.5448,0.5171,0.4371,0.3844,0.3702,0.2714,0.0,0.2052,0.163,0.1125,0.0545,-0.0881,-0.1798,-0.2312,-0.3231,-0.3801,-0.3862,-0.3944,-0.3888,-0.356,-0.2918,-0.1469,0.0403,0.1615,0.2811,0.3845,0.3791,0.3737,0.3682,0.3124,0.2603,0.2222,0.2222,0.2086,0.1948,0.1948,0.1451,0.072,0.048,-0.0,-0.0719,-0.143,-0.165,-0.1628,-0.1715,-0.2261,-0.2457,-0.1538,-0.1517,-0.1704,-0.1644,-0.2009,-0.2462,-0.29,-0.3349,-0.381,-0.4284,-0.4098,-0.3915,-0.4028,-0.3479,-0.3128,-0.289,-0.3118,-0.3318,-0.3384,-0.4076,-0.4516,0.0,0.0,-0.5004,-0.476,-0.3962,-0.3521,-0.3121,-0.0971,0.0847,0.2292,0.29,0.3354,0.3935,0.4519,0.481,0.525,0.5683,0.5974,0.6413,0.6881,0.731,0.7865,0.8047,0.8474,0.9013,0.8579,0.8805,0.9229,0.2831,0.3052,0.3158,0.3323,0.3702,0.3951,0.3948,0.4377,0.48,0.5056,0.5314,0.554,0.5803,0.6269,0.6589,0.6589,0.6506,0.6723,0.7379,0.6632,0.6153,0.6068,0.4794,0.4008,0.3951,0.3083,0.245,0.2055,0.2022,0.177,0.118,-0.0118,-0.1071,-0.1815,-0.2333,-0.2619,-0.2917,-0.3,-0.3035,-0.2777,-0.1741,-0.0539,0.0942,0.2959,0.3902,0.43,0.4234,0.4174,0.4115,0.367,0.312,0.2594,0.2594,0.2349,0.1979,0.1977,0.1977,0.173,0.037,0.0,-0.0246,-0.097,-0.1324,-0.1422,-0.1704,-0.2133,-0.1899,-0.033,-0.0876,-0.1624,-0.1573,-0.2053,-0.2618,-0.3262,-0.3781,-0.4021,-0.4014,-0.4017,-0.3711,-0.2989,-0.2751,0.0,-0.2265,-0.2607,-0.2976,-0.3279,-0.3607,0.0,0.0,0.0,-0.4731,-0.4794,-0.3633,-0.312,-0.3162,-0.0975,0.0848,0.2294,0.3192,0.35,0.35,0.4374,0.481,0.525,0.5683,0.5974,0.6417,0.6941,0.7223,0.7584,0.8117,0.8533,0.8739,0.83,0.8533,0.8969,0.2966,0.32,0.3441,0.3697,0.4069,0.4456,0.4755,0.4953,0.5148,0.5598,0.5958,0.6289,0.6685,0.7107,0.7393,0.7655,0.7369,0.7355,0.7488,0.6999,0.6671,0.6385,0.5612,0.491,0.4392,0.3844,0.3323,0.2823,0.2297,0.1921,0.18,0.084,0.0121,-0.0492,-0.1247,-0.1911,-0.2349,-0.2892,-0.3053,-0.295,-0.1748,-0.0269,0.1479,0.3365,0.4574,0.5095,0.4711,0.4526,0.4491,0.3753,0.3242,0.3013,0.3013,0.2762,0.2381,0.2107,0.173,0.1358,0.0864,0.037,-0.0,-0.0246,-0.1091,-0.1784,-0.1851,-0.1931,-0.1681,-0.0893,-0.0552,-0.0655,-0.1623,-0.1811,-0.1986,-0.2361,-0.2857,-0.324,-0.3393,-0.3327,-0.3149,-0.3237,-0.2773,-0.2392,-0.2193,-0.2414,-0.2611,0.0,0.0,-0.373,-0.4173,-0.4252,-0.4338,-0.4551,-0.4049,-0.356,-0.3207,-0.098,0.0851,0.2323,0.3494,0.3791,0.35,0.4374,0.481,0.525,0.5683,0.5829,0.5977,0.6794,0.7113,0.7244,0.7998,0.8582,0.8856,0.871,0.8785,0.9055,0.3152,0.3506,0.3865,0.4111,0.4583,0.4954,0.553,0.5612,0.5827,0.6308,0.6398,0.6585,0.6987,0.7254,0.766,0.8061,0.7922,0.7794,0.8056,0.7607,0.7285,0.6845,0.6223,0.5623,0.4794,0.4281,0.3763,0.3242,0.2703,0.256,0.2562,0.1719,0.099,0.0374,-0.0382,-0.1039,-0.1583,-0.1593,-0.1738,-0.1616,-0.0539,0.1076,0.2825,0.39,0.4842,0.5626,0.5212,0.5026,0.4875,0.4111,0.3613,0.3278,0.3255,0.3011,0.2517,0.2355,0.1975,0.1606,0.1482,0.0741,0.0,0.0,-0.0608,-0.1194,-0.1416,-0.1633,-0.1729,-0.1369,-0.0564,-0.0223,-0.0886,-0.1418,-0.1822,-0.1896,-0.2382,-0.2671,-0.2895,-0.2677,-0.2579,-0.2726,-0.2346,-0.2056,-0.1963,-0.2088,-0.2191,-0.2258,-0.2797,0.0,-0.3708,-0.3657,-0.3826,-0.4105,-0.3848,-0.347,-0.2805,0.0142,0.2014,0.2624,0.3644,0.3935,0.3791,0.4519,0.4956,0.525,0.5683,0.5825,0.5835,0.6537,0.6864,0.6981,0.7809,0.8272,0.8374,0.8336,0.8402,0.8526,0.3739,0.4076,0.4287,0.4665,0.5105,0.5698,0.6177,0.626,0.6477,0.6854,0.6805,0.6719,0.6987,0.7388,0.7794,0.8189,0.8189,0.8323,0.859,0.8323,0.7882,0.7524,0.685,0.6114,0.5329,0.4616,0.4101,0.3799,0.3498,0.3353,0.3479,0.2642,0.1901,0.1144,0.0521,-0.0132,-0.0661,-0.0134,0.0269,0.0404,0.1212,0.2558,0.4308,0.4437,0.4973,0.5759,0.5732,0.554,0.5131,0.4608,0.4116,0.3663,0.3608,0.3253,0.2777,0.2612,0.2349,0.21,0.1977,0.1111,0.0123,0.0,0.0,-0.012,-0.0722,-0.1201,-0.155,-0.152,-0.0695,0.0,0.0,-0.089,-0.164,-0.1705,-0.2077,-0.2369,-0.2318,0.0,-0.2072,-0.214,-0.1854,-0.1663,-0.1576,-0.1713,-0.1844,-0.1851,-0.2433,-0.2883,-0.3193,-0.3005,-0.312,-0.368,-0.3523,-0.2836,-0.1688,0.1873,0.3354,0.2917,0.3789,0.4226,0.408,0.481,0.525,0.525,0.5683,0.5832,0.5856,0.644,0.6619,0.6727,0.7638,0.796,0.7876,0.7809,0.7862,0.813,0.4523,0.4969,0.5419,0.5423,0.585,0.6341,0.6519,0.6814,0.7015,0.6938,0.7245,0.7393,0.7393,0.7794,0.8189,0.8456,0.859,0.859,0.859,0.8323,0.8051,0.803,0.7544,0.6958,0.6276,0.5307,0.4891,0.4881,0.474,0.4482,0.4098,0.3594,0.2845,0.1964,0.1447,0.1061,0.0805,0.0941,0.1346,0.1885,0.2827,0.3633,0.4308,0.4977,0.5379,0.5496,0.5602,0.554,0.5131,0.4608,0.4398,0.436,0.4041,0.3682,0.3459,0.341,0.2866,0.2344,0.2099,0.1482,0.0741,0.0123,0.0,-0.0,-0.0123,-0.0243,-0.0239,-0.0238,-0.0118,0.0,0.0,-0.0571,-0.1232,-0.1686,-0.2022,-0.2132,-0.1742,0.0,-0.2178,-0.2222,-0.2034,-0.1602,-0.1037,-0.1271,-0.1516,-0.1899,-0.2224,-0.2586,-0.3158,-0.3107,-0.2929,-0.3009,-0.3062,-0.1917,0.0713,0.2752,0.35,0.2917,0.408,0.4371,0.408,0.481,0.525,0.525,0.5683,0.5863,0.6079,0.6466,0.699,0.735,0.7842,0.8153,0.844,0.8125,0.7982,0.8017,0.502,0.5314,0.5612,0.5866,0.6173,0.6656,0.7184,0.7255,0.7345,0.7503,0.7388,0.7388,0.7794,0.7794,0.8056,0.8851,0.8851,0.8851,0.8851,0.859,0.8323,0.8056,0.7877,0.7318,0.6523,0.5732,0.5175,0.5082,0.5042,0.4897,0.4514,0.4158,0.3535,0.2769,0.2127,0.1739,0.175,0.175,0.1885,0.2289,0.3096,0.3902,0.4708,0.5379,0.6049,0.6431,0.6118,0.5925,0.565,0.4778,0.4536,0.4455,0.417,0.3802,0.3558,0.3508,0.287,0.2244,0.1981,0.1739,0.1498,0.1114,0.0494,0.0247,0.0864,0.0491,0.0122,0.0487,0.0241,0.0,0.0,-0.0468,-0.1154,-0.1679,-0.1889,-0.1882,-0.1763,-0.1768,-0.1899,-0.205,-0.185,-0.1637,-0.1415,-0.0946,-0.0951,-0.1922,-0.2042,-0.2299,-0.2467,-0.2155,-0.2213,-0.2933,-0.1906,-0.0139,0.2432,0.348,0.3791,0.3498,0.4371,0.4665,0.4665,0.5247,0.5683,0.5832,0.5974,0.6162,0.6241,0.6619,0.7005,0.7395,0.7602,0.7933,0.8397,0.7933,0.7774,0.7782,0.5651,0.5799,0.5956,0.6339,0.6646,0.6995,0.7606,0.7702,0.7671,0.7912,0.7522,0.7388,0.7922,0.766,0.7922,0.8984,0.9117,0.9117,0.9117,0.8851,0.859,0.8189,0.8189,0.7655,0.6853,0.6317,0.5758,0.5423,0.5494,0.5339,0.4952,0.461,0.4105,0.3581,0.2814,0.2423,0.229,0.229,0.229,0.2423,0.3228,0.4168,0.4973,0.5778,0.6585,0.7236,0.6532,0.621,0.5941,0.4946,0.4677,0.4557,0.4273,0.391,0.3668,0.3613,0.3015,0.2285,0.212,0.2008,0.2026,0.2003,0.1123,0.0624,0.1748,0.1245,0.0497,0.0745,0.0613,0.0363,0.0,-0.0477,-0.1062,-0.1751,0.0,-0.1484,-0.1395,-0.1377,-0.1487,-0.1751,-0.1769,-0.167,-0.1456,-0.0488,-0.0489,-0.1711,-0.1737,-0.1752,-0.1872,-0.1293,-0.1466,-0.2322,-0.0695,0.1131,0.3449,0.3774,0.3937,0.408,0.4517,0.481,0.525,0.5683,0.5974,0.6413,0.6413,0.647,0.6712,0.6777,0.7169,0.7581,0.7652,0.7842,0.8154,0.7681,0.7525,0.7681,0.6455,0.6643,0.6967,0.7224,0.7523,0.774,0.7857,0.8149,0.8196,0.7646,0.7526,0.7526,0.7526,0.7526,0.7922,0.8984,0.9117,0.9117,0.9117,0.9117,0.8851,0.8584,0.8323,0.8056,0.7922,0.7236,0.6831,0.684,0.6569,0.6034,0.5366,0.5369,0.4702,0.3763,0.3362,0.2961,0.2694,0.2694,0.2694,0.2828,0.4168,0.4973,0.5513,0.6585,0.6719,0.6573,0.6473,0.6177,0.5762,0.5217,0.5086,0.4993,0.4487,0.4281,0.4106,0.392,0.3724,0.3393,0.2285,0.2038,0.206,0.2057,0.1672,0.1414,0.206,0.2038,0.1513,0.0378,0.0997,0.1472,0.0242,-0.0,-0.0475,-0.1816,0.0,0.0,-0.0226,-0.0577,-0.1181,-0.1681,-0.1806,-0.1343,-0.0252,-0.0,-0.0253,-0.1014,-0.1032,-0.1299,-0.1932,-0.1323,-0.0684,-0.0142,0.0,0.1136,0.3496,0.35,0.3791,0.408,0.4517,0.481,0.525,0.5683,0.5974,0.6413,0.6413,0.6651,0.7252,0.7252,0.7663,0.8136,0.8145,0.815,0.8145,0.7681,0.7525,0.7525,0.7125,0.7176,0.7369,0.7626,0.7722,0.7966,0.8144,0.8344,0.8408,0.7922,0.766,0.766,0.7794,0.7927,0.8323,0.9389,0.9655,0.9788,0.9788,0.9522,0.9256,0.859,0.8456,0.8323,0.8056,0.7789,0.7388,0.6715,0.6719,0.6451,0.5644,0.5513,0.4977,0.4037,0.3768,0.3365,0.2961,0.2961,0.2961,0.3096,0.4037,0.4977,0.5781,0.6719,0.7254,0.7512,0.7139,0.6845,0.6444,0.5721,0.5558,0.5411,0.5016,0.4762,0.438,0.384,0.3761,0.3548,0.2862,0.2604,0.2349,0.2069,0.1677,0.1548,0.2065,0.2184,0.192,0.1408,0.1392,0.125,0.0869,0.0616,0.0122,-0.0598,0.0,-0.0725,-0.0119,0.0482,0.0855,0.0747,0.0249,0.0126,0.0646,0.0644,0.0513,0.0385,-0.0129,-0.0521,-0.0784,-0.0537,0.0138,0.143,0.1425,0.215,0.3791,0.3648,0.3791,0.4517,0.481,0.5247,0.5538,0.5974,0.641,0.67,0.67,0.6925,0.7356,0.7548,0.7982,0.8618,0.831,0.831,0.8462,0.7838,0.7369,0.7217,0.766,0.7602,0.7812,0.8202,0.8333,0.8333,0.8738,0.8938,0.8723,0.8189,0.7927,0.7794,0.7922,0.7927,0.8462,0.9661,0.9927,1.006,1.0193,0.9788,0.9256,0.859,0.859,0.8456,0.8323,0.8189,0.7789,0.6982,0.6982,0.6581,0.5778,0.5513,0.498,0.4308,0.3902,0.3633,0.3362,0.3362,0.3362,0.3497,0.444,0.5245,0.618,0.6853,0.7522,0.7917,0.7441,0.7153,0.6885,0.6197,0.5889,0.5843,0.5483,0.5086,0.468,0.4174,0.3947,0.3848,0.3583,0.3318,0.278,0.2229,0.1962,0.1831,0.2093,0.2215,0.2207,0.2078,0.1798,0.1526,0.1525,0.1386,0.1001,0.0751,0.0125,-0.0125,0.025,0.1124,0.1881,0.2168,0.178,0.1406,0.144,0.1429,0.1421,0.1428,0.0913,0.0528,0.0,0.0412,0.1126,0.1871,0.216,0.2753,0.3816,0.3669,0.3953,0.481,0.5122,0.556,0.5974,0.6268,0.657,0.7031,0.7043,0.7269,0.7544,0.7893,0.8315,0.8774,0.8622,0.8622,0.8466,0.7994,0.7369,0.706,0.8056,0.8056,0.8323,0.8984,0.9117,0.925,0.9661,0.9661,0.9262,0.8189,0.8056,0.7922,0.7526,0.7526,0.8061,0.9528,0.9661,0.9794,1.0193,0.9516,0.8984,0.859,0.859,0.859,0.859,0.8323,0.8056,0.8056,0.7388,0.6581,0.5912,0.5513,0.4977,0.4308,0.3902,0.3768,0.3768,0.3768,0.3768,0.3902,0.5376,0.6049,0.6451,0.7259,0.7526,0.7393,0.7121,0.6982,0.6969,0.6481,0.6317,0.6304,0.5827,0.5342,0.476,0.4821,0.4574,0.4308,0.4308,0.4037,0.3499,0.2423,0.2425,0.2559,0.229,0.2131,0.2109,0.2242,0.2477,0.271,0.2193,0.2064,0.2064,0.2064,0.1536,0.1149,0.1159,0.1151,0.1404,0.2061,0.2176,0.2184,0.2236,0.2213,0.2207,0.2239,0.2138,0.1499,0.014,0.1421,0.2016,0.1167,0.1896,0.2787,0.3569,0.3569,0.4137,0.525,0.5314,0.5753,0.6413,0.6413,0.6605,0.7129,0.7158,0.7406,0.8008,0.8468,0.8678,0.8769,0.9231,0.8925,0.8145,0.8145,0.7681,0.6904,0.8323,0.8456,0.8456,0.8717,0.8984,0.9117,0.925,0.9522,0.9528,0.8851,0.8851,0.8723,0.8323,0.8723,0.9256,0.9661,1.0193,1.0326,1.0193,0.9794,0.9389,0.8984,0.8717,0.859,0.859,0.8456,0.8323,0.8056,0.7922,0.7254,0.6317,0.5915,0.5379,0.4708,0.4571,0.4437,0.4571,0.4842,0.4977,0.4977,0.5644,0.6183,0.6451,0.6987,0.7121,0.7121,0.6987,0.6853,0.6581,0.6423,0.6415,0.6406,0.5981,0.5727,0.5482,0.4967,0.4705,0.4574,0.4308,0.4174,0.4037,0.3499,0.323,0.2961,0.2961,0.2684,0.2543,0.2809,0.2778,0.2621,0.249,0.2469,0.2451,0.258,0.2446,0.2181,0.1917,0.2178,0.2322,0.2213,0.2087,0.211,0.2168,0.2146,0.214,0.217,0.2162,0.1505,0.0142,0.0996,0.1722,0.1898,0.248,0.3082,0.3569,0.3537,0.4116,0.5314,0.558,0.5849,0.6413,0.6763,0.6953,0.7133,0.7243,0.7469,0.7977,0.8365,0.8886,0.9231,0.9392,0.9085,0.8622,0.8306,0.7677,0.6896,0.859,0.8717,0.8851,0.8989,0.9256,0.9516,0.9649,0.9921,0.9921,0.9383,0.9383,0.925,0.8851,0.925,0.9516,0.9927,1.0459,1.0591,1.0193,0.9927,0.9661,0.9389,0.8856,0.859,0.859,0.8633,0.8504,0.8323,0.8102,0.756,0.6719,0.618,0.551,0.4839,0.4977,0.4973,0.4839,0.5245,0.5379,0.5513,0.618,0.6715,0.6987,0.7254,0.7388,0.7388,0.6987,0.6719,0.6719,0.6585,0.6455,0.6455,0.6183,0.6046,0.5778,0.5245,0.4977,0.4977,0.4574,0.444,0.444,0.4305,0.3765,0.3362,0.3228,0.3096,0.2961,0.3094,0.3074,0.3056,0.2924,0.2771,0.2886,0.2886,0.2886,0.275,0.2605,0.2746,0.2631,0.2382,0.2271,0.2163,0.2196,0.2215,0.2226,0.2229,0.2206,0.1803,0.1,0.1434,0.1875,0.2625,0.2932,0.3254,0.3893,0.3992,0.4572,0.5493,0.5924,0.6341,0.6755,0.6965,0.7174,0.7235,0.7362,0.7723,0.8347,0.842,0.8764,0.9392,0.9241,0.8934,0.8462,0.8306,0.7677,0.6896,0.859,0.8851,0.925,0.9528,0.9927,1.0326,1.0591,1.0717,1.0452,0.9915,0.9782,0.9649,0.925,0.925,0.9516,1.0193,1.0585,1.0585,1.0193,1.0066,0.9933,0.9794,0.9123,0.8723,0.8584,0.8709,0.8715,0.8606,0.8033,0.7491,0.6996,0.6317,0.5644,0.4973,0.5245,0.5245,0.4973,0.5379,0.5513,0.5647,0.6982,0.7512,0.7517,0.7922,0.8056,0.7922,0.6991,0.6719,0.6987,0.6585,0.6455,0.6455,0.6455,0.6183,0.5912,0.5513,0.5379,0.5379,0.4977,0.4839,0.4839,0.4839,0.444,0.3768,0.3362,0.3362,0.3362,0.3362,0.3633,0.3633,0.3362,0.3228,0.3228,0.3228,0.2959,0.2959,0.3228,0.2965,0.2834,0.2701,0.2468,0.2352,0.2208,0.2281,0.2313,0.2278,0.2258,0.2262,0.2293,0.2319,0.2624,0.3063,0.31,0.3437,0.423,0.4633,0.5206,0.5961,0.6316,0.6758,0.7141,0.7323,0.7415,0.7395,0.7329,0.7994,0.8778,0.8471,0.8778,0.9402,0.8934,0.8618,0.8145,0.8145,0.7677,0.7053,0.859,0.8851,0.9117,0.925,0.9788,1.0193,1.0326,1.0585,1.0585,1.0452,1.0452,1.0319,1.0054,1.0187,1.0452,1.0585,1.085,1.085,1.0193,1.0193,1.0193,1.006,0.9661,0.9256,0.8984,0.8844,0.8758,0.8731,0.8622,0.8209,0.7505,0.7018,0.6313,0.5644,0.5778,0.5778,0.5644,0.6049,0.6321,0.6321,0.7522,0.7655,0.725,0.8184,0.8189,0.766,0.7393,0.7121,0.6987,0.6585,0.6455,0.6455,0.6455,0.6451,0.6317,0.5915,0.5778,0.5778,0.5379,0.5245,0.5245,0.5245,0.5111,0.4842,0.4171,0.4037,0.4037,0.4037,0.3902,0.3768,0.3633,0.3633,0.3633,0.3633,0.3633,0.3633,0.3633,0.3668,0.3426,0.275,0.2916,0.3087,0.2834,0.2715,0.2581,0.2288,0.2275,0.2283,0.2322,0.2621,0.2917,0.3063,0.369,0.4017,0.4176,0.5206,0.5849,0.6118,0.6312,0.6731,0.7235,0.7309,0.7358,0.7395,0.7484,0.7994,0.8778,0.8778,0.8934,0.9402,0.9246,0.8774,0.8145,0.8145,0.7833,0.7369,0.8851,0.9123,0.9389,0.9389,0.9921,1.0326,1.0193,1.0326,1.0459,1.0459,1.0459,1.0459,1.0459,1.0717,1.085,1.0717,1.0982,1.0982,1.0193,1.0326,1.0465,1.0459,1.006,0.9794,0.9655,0.9307,0.8938,0.8682,0.866,0.8386,0.7873,0.7277,0.6719,0.6183,0.6183,0.6049,0.5912,0.6317,0.6455,0.6589,0.7789,0.8056,0.7655,0.8451,0.8456,0.7922,0.766,0.7393,0.7254,0.6991,0.6853,0.6719,0.6719,0.6585,0.6451,0.6046,0.6046,0.6049,0.5781,0.5647,0.5647,0.5647,0.5647,0.5379,0.4708,0.4708,0.4708,0.4574,0.444,0.4303,0.4303,0.4037,0.3902,0.4037,0.3924,0.3942,0.4077,0.3989,0.3751,0.334,0.3375,0.3414,0.3173,0.3014,0.2868,0.2888,0.2721,0.2583,0.2622,0.2917,0.3209,0.3354,0.3838,0.4307,0.4752,0.5528,0.6204,0.6473,0.6804,0.7085,0.7325,0.7415,0.7456,0.7456,0.7505,0.7994,0.8778,0.831,0.8622,0.909,0.8618,0.8306,0.7838,0.7838,0.7681,0.769,0.925,0.9522,0.9794,0.9794,1.0193,1.0585,1.0326,1.0193,1.0193,1.0326,1.0326,1.0459,1.0717,1.1143,1.129,1.0758,1.1045,1.1066,1.0264,1.0512,1.0772,1.0758,1.0345,1.0199,1.0326,0.9924,0.9388,0.875,0.856,0.8423,0.8086,0.7397,0.6853,0.6585,0.6585,0.6317,0.6046,0.6317,0.6585,0.6719,0.7922,0.8189,0.8056,0.8717,0.8851,0.8456,0.7927,0.766,0.7526,0.7526,0.7254,0.7121,0.6987,0.6853,0.6451,0.6183,0.6183,0.6451,0.6049,0.6046,0.6046,0.6046,0.6046,0.5778,0.5108,0.5245,0.5379,0.4977,0.4839,0.4839,0.4839,0.4313,0.4052,0.4322,0.4237,0.4136,0.4549,0.4324,0.408,0.408,0.3843,0.3747,0.3641,0.3321,0.3171,0.3498,0.3177,0.3027,0.2915,0.3354,0.3504,0.3512,0.4137,0.4752,0.5345,0.5862,0.6387,0.6758,0.7161,0.7329,0.7415,0.7493,0.7525,0.7525,0.7525,0.7994,0.8778,0.7994,0.8154,0.8778,0.7994,0.7525,0.7525,0.7525,0.7525,0.7706,0.9661,0.9927,1.0193,1.0193,1.0193,1.0326,1.0585,1.0459,1.0326,1.0585,1.0585,1.0717,1.1115,1.1903,1.1851,1.0502,1.1439,1.1516,1.0141,1.0581,1.0921,1.0921,1.0792,1.0591,1.0605,1.075,1.026,0.9149,0.9021,0.8607,0.8204,0.7704,0.7254,0.6987,0.6585,0.6585,0.6853,0.6585,0.6719,0.6987,0.7517,0.7655,0.766,0.8456,0.8584,0.859,0.8456,0.8323,0.7922,0.766,0.7526,0.7393,0.7121,0.6987,0.6853,0.6585,0.6455,0.6455,0.6451,0.6451,0.6451,0.6451,0.6451,0.6317,0.5912,0.5778,0.5778,0.5379,0.5379,0.5245,0.4839,0.4753,0.4792,0.4928,0.4572,0.4611,0.5308,0.5229,0.4991,0.4991,0.476,0.4364,0.408,0.3928,0.3782,0.35,0.3496,0.3203,0.2915,0.3644,0.3955,0.3559,0.4601,0.5197,0.5345,0.6162,0.6661,0.6672,0.7189,0.7419,0.7509,0.7521,0.7525,0.7525,0.7525,0.7994,0.8778,0.831,0.831,0.8778,0.831,0.7842,0.7525,0.7525,0.7525,0.7574,1.006,1.0193,1.0452,1.0452,1.0585,1.0717,1.0459,1.0459,1.0459,1.0193,1.0459,1.0717,1.085,1.1524,1.1789,1.1186,1.1674,1.1579,1.0474,1.0829,1.1029,1.0955,1.0887,1.0812,1.0731,1.0664,1.0289,0.9747,0.9406,0.8856,0.8132,0.7947,0.7655,0.7254,0.6987,0.6853,0.6982,0.6853,0.6987,0.725,0.765,0.7789,0.7922,0.8456,0.8456,0.8323,0.859,0.8456,0.8323,0.8189,0.7922,0.7794,0.7388,0.7121,0.6987,0.6853,0.6719,0.6853,0.6991,0.6987,0.6719,0.6719,0.6585,0.6451,0.6317,0.6183,0.6183,0.5781,0.5647,0.5658,0.5569,0.5331,0.523,0.5134,0.4917,0.4958,0.5383,0.5304,0.5204,0.5204,0.5087,0.481,0.4517,0.4226,0.408,0.4228,0.3937,0.3789,0.3644,0.408,0.4399,0.431,0.4869,0.5474,0.6148,0.6484,0.6982,0.7486,0.7423,0.7484,0.7525,0.7525,0.7525,0.7525,0.7525,0.7994,0.8778,0.8154,0.8154,0.8778,0.7998,0.7681,0.7525,0.7525,0.7566,0.7811]}]]